<?xml version="1.0" encoding="UTF-8" standalone="no" ?>
<gpx xmlns="http://www.topografix.com/GPX/1/1" xmlns:xsi="http://www.w3.org/2001/XMLSchema-instance" xsi:schemaLocation="http://www.topografix.com/GPX/1/1 http://www.topografix.com/GPX/1/1/gpx.xsd" version="1.1" creator="VisuGPX - https://www.visugpx.com">
  <metadata>
    <name>Abbaye de Sénanque</name>
    <desc><![CDATA[Rando avec passage à l\'abbaye de Sénanque ( très belle à visiter ), mais prévoir du temps , nous on l\'avait déjà vu avec guide. ]]></desc>
  </metadata>
  <trk>
    <name><![CDATA[02-MAI-11 17:05:00]]></name>
    <trkseg>
      <trkpt lat="43.91425" lon="5.19747">
        <ele>350.06</ele>
        <time>2011-05-02T08:05:28Z</time>
      </trkpt>
      <trkpt lat="43.91425" lon="5.19747">
        <ele>349.58</ele>
        <time>2011-05-02T08:05:54Z</time>
      </trkpt>
      <trkpt lat="43.91426" lon="5.19747">
        <ele>350.54</ele>
        <time>2011-05-02T08:06:19Z</time>
      </trkpt>
      <trkpt lat="43.91426" lon="5.19747">
        <ele>351.02</ele>
        <time>2011-05-02T08:06:50Z</time>
      </trkpt>
      <trkpt lat="43.91426" lon="5.19746">
        <ele>350.06</ele>
        <time>2011-05-02T08:07:10Z</time>
      </trkpt>
      <trkpt lat="43.91426" lon="5.19746">
        <ele>350.54</ele>
        <time>2011-05-02T08:07:30Z</time>
      </trkpt>
      <trkpt lat="43.91427" lon="5.19746">
        <ele>349.1</ele>
        <time>2011-05-02T08:07:54Z</time>
      </trkpt>
      <trkpt lat="43.91427" lon="5.19746">
        <ele>350.06</ele>
        <time>2011-05-02T08:08:28Z</time>
      </trkpt>
      <trkpt lat="43.91427" lon="5.19746">
        <ele>349.58</ele>
        <time>2011-05-02T08:08:56Z</time>
      </trkpt>
      <trkpt lat="43.91426" lon="5.19746">
        <ele>349.58</ele>
        <time>2011-05-02T08:09:22Z</time>
      </trkpt>
      <trkpt lat="43.91426" lon="5.19746">
        <ele>350.06</ele>
        <time>2011-05-02T08:09:33Z</time>
      </trkpt>
      <trkpt lat="43.91427" lon="5.19745">
        <ele>350.06</ele>
        <time>2011-05-02T08:09:50Z</time>
      </trkpt>
      <trkpt lat="43.91428" lon="5.19743">
        <ele>350.06</ele>
        <time>2011-05-02T08:10:04Z</time>
      </trkpt>
      <trkpt lat="43.91428" lon="5.19743">
        <ele>350.54</ele>
        <time>2011-05-02T08:10:19Z</time>
      </trkpt>
      <trkpt lat="43.91426" lon="5.19743">
        <ele>350.54</ele>
        <time>2011-05-02T08:10:29Z</time>
      </trkpt>
      <trkpt lat="43.9142" lon="5.19742">
        <ele>349.58</ele>
        <time>2011-05-02T08:10:35Z</time>
      </trkpt>
      <trkpt lat="43.91402" lon="5.19731">
        <ele>348.62</ele>
        <time>2011-05-02T08:10:54Z</time>
      </trkpt>
      <trkpt lat="43.91393" lon="5.19727">
        <ele>348.13</ele>
        <time>2011-05-02T08:11:07Z</time>
      </trkpt>
      <trkpt lat="43.91391" lon="5.19724">
        <ele>348.13</ele>
        <time>2011-05-02T08:11:10Z</time>
      </trkpt>
      <trkpt lat="43.9139" lon="5.19722">
        <ele>348.13</ele>
        <time>2011-05-02T08:11:12Z</time>
      </trkpt>
      <trkpt lat="43.9139" lon="5.19719">
        <ele>348.13</ele>
        <time>2011-05-02T08:11:14Z</time>
      </trkpt>
      <trkpt lat="43.91391" lon="5.197">
        <ele>348.13</ele>
        <time>2011-05-02T08:11:30Z</time>
      </trkpt>
      <trkpt lat="43.91391" lon="5.197">
        <ele>348.13</ele>
        <time>2011-05-02T08:11:32Z</time>
      </trkpt>
      <trkpt lat="43.91386" lon="5.19698">
        <ele>348.13</ele>
        <time>2011-05-02T08:11:37Z</time>
      </trkpt>
      <trkpt lat="43.9138" lon="5.19694">
        <ele>347.65</ele>
        <time>2011-05-02T08:11:43Z</time>
      </trkpt>
      <trkpt lat="43.9136" lon="5.19681">
        <ele>348.62</ele>
        <time>2011-05-02T08:12:00Z</time>
      </trkpt>
      <trkpt lat="43.91343" lon="5.19673">
        <ele>349.58</ele>
        <time>2011-05-02T08:12:15Z</time>
      </trkpt>
      <trkpt lat="43.91338" lon="5.19668">
        <ele>350.54</ele>
        <time>2011-05-02T08:12:30Z</time>
      </trkpt>
      <trkpt lat="43.91338" lon="5.19668">
        <ele>350.54</ele>
        <time>2011-05-02T08:12:55Z</time>
      </trkpt>
      <trkpt lat="43.91337" lon="5.19669">
        <ele>350.06</ele>
        <time>2011-05-02T08:13:27Z</time>
      </trkpt>
      <trkpt lat="43.91337" lon="5.19669">
        <ele>350.06</ele>
        <time>2011-05-02T08:14:07Z</time>
      </trkpt>
      <trkpt lat="43.91336" lon="5.19669">
        <ele>350.54</ele>
        <time>2011-05-02T08:14:39Z</time>
      </trkpt>
      <trkpt lat="43.9134" lon="5.19669">
        <ele>350.54</ele>
        <time>2011-05-02T08:14:54Z</time>
      </trkpt>
      <trkpt lat="43.9135" lon="5.19667">
        <ele>353.42</ele>
        <time>2011-05-02T08:15:09Z</time>
      </trkpt>
      <trkpt lat="43.9136" lon="5.19661">
        <ele>355.34</ele>
        <time>2011-05-02T08:15:22Z</time>
      </trkpt>
      <trkpt lat="43.91374" lon="5.19657">
        <ele>359.19</ele>
        <time>2011-05-02T08:15:38Z</time>
      </trkpt>
      <trkpt lat="43.91386" lon="5.19651">
        <ele>361.59</ele>
        <time>2011-05-02T08:15:54Z</time>
      </trkpt>
      <trkpt lat="43.9139" lon="5.19645">
        <ele>362.55</ele>
        <time>2011-05-02T08:16:00Z</time>
      </trkpt>
      <trkpt lat="43.91396" lon="5.19632">
        <ele>364.48</ele>
        <time>2011-05-02T08:16:13Z</time>
      </trkpt>
      <trkpt lat="43.91397" lon="5.19629">
        <ele>364.48</ele>
        <time>2011-05-02T08:16:15Z</time>
      </trkpt>
      <trkpt lat="43.91407" lon="5.19612">
        <ele>366.4</ele>
        <time>2011-05-02T08:16:29Z</time>
      </trkpt>
      <trkpt lat="43.91407" lon="5.1961">
        <ele>366.88</ele>
        <time>2011-05-02T08:16:30Z</time>
      </trkpt>
      <trkpt lat="43.9141" lon="5.19596">
        <ele>366.88</ele>
        <time>2011-05-02T08:16:40Z</time>
      </trkpt>
      <trkpt lat="43.91409" lon="5.19593">
        <ele>366.88</ele>
        <time>2011-05-02T08:16:42Z</time>
      </trkpt>
      <trkpt lat="43.91396" lon="5.19579">
        <ele>366.4</ele>
        <time>2011-05-02T08:16:59Z</time>
      </trkpt>
      <trkpt lat="43.91393" lon="5.19579">
        <ele>365.92</ele>
        <time>2011-05-02T08:17:11Z</time>
      </trkpt>
      <trkpt lat="43.91393" lon="5.19578">
        <ele>365.92</ele>
        <time>2011-05-02T08:17:12Z</time>
      </trkpt>
      <trkpt lat="43.91395" lon="5.19576">
        <ele>365.92</ele>
        <time>2011-05-02T08:17:14Z</time>
      </trkpt>
      <trkpt lat="43.91406" lon="5.19562">
        <ele>367.36</ele>
        <time>2011-05-02T08:17:29Z</time>
      </trkpt>
      <trkpt lat="43.91417" lon="5.19548">
        <ele>367.84</ele>
        <time>2011-05-02T08:17:43Z</time>
      </trkpt>
      <trkpt lat="43.91428" lon="5.19536">
        <ele>368.8</ele>
        <time>2011-05-02T08:17:56Z</time>
      </trkpt>
      <trkpt lat="43.9143" lon="5.19534">
        <ele>368.32</ele>
        <time>2011-05-02T08:17:58Z</time>
      </trkpt>
      <trkpt lat="43.91446" lon="5.1952">
        <ele>369.28</ele>
        <time>2011-05-02T08:18:16Z</time>
      </trkpt>
      <trkpt lat="43.91457" lon="5.19512">
        <ele>370.24</ele>
        <time>2011-05-02T08:18:28Z</time>
      </trkpt>
      <trkpt lat="43.91464" lon="5.1951">
        <ele>370.24</ele>
        <time>2011-05-02T08:18:42Z</time>
      </trkpt>
      <trkpt lat="43.91464" lon="5.1951">
        <ele>370.24</ele>
        <time>2011-05-02T08:19:14Z</time>
      </trkpt>
      <trkpt lat="43.91464" lon="5.1951">
        <ele>370.24</ele>
        <time>2011-05-02T08:19:47Z</time>
      </trkpt>
      <trkpt lat="43.91466" lon="5.19509">
        <ele>370.24</ele>
        <time>2011-05-02T08:19:49Z</time>
      </trkpt>
      <trkpt lat="43.9147" lon="5.19506">
        <ele>370.24</ele>
        <time>2011-05-02T08:19:53Z</time>
      </trkpt>
      <trkpt lat="43.91488" lon="5.19495">
        <ele>370.73</ele>
        <time>2011-05-02T08:20:09Z</time>
      </trkpt>
      <trkpt lat="43.91504" lon="5.19488">
        <ele>370.73</ele>
        <time>2011-05-02T08:20:23Z</time>
      </trkpt>
      <trkpt lat="43.91524" lon="5.19481">
        <ele>371.21</ele>
        <time>2011-05-02T08:20:40Z</time>
      </trkpt>
      <trkpt lat="43.91547" lon="5.19478">
        <ele>371.21</ele>
        <time>2011-05-02T08:20:57Z</time>
      </trkpt>
      <trkpt lat="43.91568" lon="5.19477">
        <ele>371.69</ele>
        <time>2011-05-02T08:21:14Z</time>
      </trkpt>
      <trkpt lat="43.91589" lon="5.19475">
        <ele>373.13</ele>
        <time>2011-05-02T08:21:30Z</time>
      </trkpt>
      <trkpt lat="43.9161" lon="5.19468">
        <ele>371.21</ele>
        <time>2011-05-02T08:21:49Z</time>
      </trkpt>
      <trkpt lat="43.91631" lon="5.19464">
        <ele>370.73</ele>
        <time>2011-05-02T08:22:06Z</time>
      </trkpt>
      <trkpt lat="43.91651" lon="5.19459">
        <ele>371.21</ele>
        <time>2011-05-02T08:22:22Z</time>
      </trkpt>
      <trkpt lat="43.91665" lon="5.19442">
        <ele>371.69</ele>
        <time>2011-05-02T08:22:38Z</time>
      </trkpt>
      <trkpt lat="43.91671" lon="5.19422">
        <ele>373.13</ele>
        <time>2011-05-02T08:22:53Z</time>
      </trkpt>
      <trkpt lat="43.91671" lon="5.19421">
        <ele>373.13</ele>
        <time>2011-05-02T08:23:00Z</time>
      </trkpt>
      <trkpt lat="43.91671" lon="5.19418">
        <ele>373.13</ele>
        <time>2011-05-02T08:23:02Z</time>
      </trkpt>
      <trkpt lat="43.9166" lon="5.194">
        <ele>375.05</ele>
        <time>2011-05-02T08:23:17Z</time>
      </trkpt>
      <trkpt lat="43.91646" lon="5.19382">
        <ele>375.53</ele>
        <time>2011-05-02T08:23:33Z</time>
      </trkpt>
      <trkpt lat="43.91632" lon="5.19362">
        <ele>376.49</ele>
        <time>2011-05-02T08:23:50Z</time>
      </trkpt>
      <trkpt lat="43.91629" lon="5.19358">
        <ele>376.49</ele>
        <time>2011-05-02T08:23:54Z</time>
      </trkpt>
      <trkpt lat="43.91621" lon="5.19337">
        <ele>378.42</ele>
        <time>2011-05-02T08:24:10Z</time>
      </trkpt>
      <trkpt lat="43.91621" lon="5.19333">
        <ele>378.9</ele>
        <time>2011-05-02T08:24:14Z</time>
      </trkpt>
      <trkpt lat="43.91618" lon="5.1931">
        <ele>380.82</ele>
        <time>2011-05-02T08:24:29Z</time>
      </trkpt>
      <trkpt lat="43.91617" lon="5.19289">
        <ele>380.82</ele>
        <time>2011-05-02T08:24:42Z</time>
      </trkpt>
      <trkpt lat="43.91613" lon="5.19264">
        <ele>380.34</ele>
        <time>2011-05-02T08:24:57Z</time>
      </trkpt>
      <trkpt lat="43.91617" lon="5.19242">
        <ele>381.3</ele>
        <time>2011-05-02T08:25:12Z</time>
      </trkpt>
      <trkpt lat="43.91625" lon="5.19227">
        <ele>380.82</ele>
        <time>2011-05-02T08:25:23Z</time>
      </trkpt>
      <trkpt lat="43.91628" lon="5.19218">
        <ele>380.34</ele>
        <time>2011-05-02T08:25:29Z</time>
      </trkpt>
      <trkpt lat="43.91629" lon="5.19215">
        <ele>379.86</ele>
        <time>2011-05-02T08:25:31Z</time>
      </trkpt>
      <trkpt lat="43.91639" lon="5.19196">
        <ele>378.42</ele>
        <time>2011-05-02T08:25:45Z</time>
      </trkpt>
      <trkpt lat="43.91649" lon="5.19176">
        <ele>378.42</ele>
        <time>2011-05-02T08:26:00Z</time>
      </trkpt>
      <trkpt lat="43.91653" lon="5.19163">
        <ele>378.42</ele>
        <time>2011-05-02T08:26:08Z</time>
      </trkpt>
      <trkpt lat="43.91656" lon="5.19157">
        <ele>377.94</ele>
        <time>2011-05-02T08:26:12Z</time>
      </trkpt>
      <trkpt lat="43.91671" lon="5.1914">
        <ele>377.94</ele>
        <time>2011-05-02T08:26:29Z</time>
      </trkpt>
      <trkpt lat="43.91683" lon="5.19116">
        <ele>377.94</ele>
        <time>2011-05-02T08:26:45Z</time>
      </trkpt>
      <trkpt lat="43.91689" lon="5.19091">
        <ele>377.94</ele>
        <time>2011-05-02T08:27:02Z</time>
      </trkpt>
      <trkpt lat="43.91689" lon="5.19066">
        <ele>378.9</ele>
        <time>2011-05-02T08:27:18Z</time>
      </trkpt>
      <trkpt lat="43.91689" lon="5.19041">
        <ele>378.9</ele>
        <time>2011-05-02T08:27:33Z</time>
      </trkpt>
      <trkpt lat="43.91689" lon="5.1903">
        <ele>379.38</ele>
        <time>2011-05-02T08:27:50Z</time>
      </trkpt>
      <trkpt lat="43.91688" lon="5.19025">
        <ele>379.86</ele>
        <time>2011-05-02T08:27:54Z</time>
      </trkpt>
      <trkpt lat="43.9169" lon="5.18996">
        <ele>379.86</ele>
        <time>2011-05-02T08:28:12Z</time>
      </trkpt>
      <trkpt lat="43.91699" lon="5.18968">
        <ele>380.82</ele>
        <time>2011-05-02T08:28:31Z</time>
      </trkpt>
      <trkpt lat="43.91702" lon="5.18961">
        <ele>381.3</ele>
        <time>2011-05-02T08:28:45Z</time>
      </trkpt>
      <trkpt lat="43.91701" lon="5.18962">
        <ele>381.3</ele>
        <time>2011-05-02T08:29:00Z</time>
      </trkpt>
      <trkpt lat="43.91702" lon="5.1896">
        <ele>381.3</ele>
        <time>2011-05-02T08:29:22Z</time>
      </trkpt>
      <trkpt lat="43.91701" lon="5.18949">
        <ele>382.26</ele>
        <time>2011-05-02T08:29:30Z</time>
      </trkpt>
      <trkpt lat="43.9169" lon="5.18928">
        <ele>383.22</ele>
        <time>2011-05-02T08:29:47Z</time>
      </trkpt>
      <trkpt lat="43.91681" lon="5.1891">
        <ele>384.18</ele>
        <time>2011-05-02T08:30:01Z</time>
      </trkpt>
      <trkpt lat="43.91674" lon="5.18898">
        <ele>384.66</ele>
        <time>2011-05-02T08:30:11Z</time>
      </trkpt>
      <trkpt lat="43.91662" lon="5.18887">
        <ele>386.11</ele>
        <time>2011-05-02T08:30:27Z</time>
      </trkpt>
      <trkpt lat="43.91645" lon="5.1888">
        <ele>387.07</ele>
        <time>2011-05-02T08:30:43Z</time>
      </trkpt>
      <trkpt lat="43.91644" lon="5.18879">
        <ele>387.07</ele>
        <time>2011-05-02T08:30:44Z</time>
      </trkpt>
      <trkpt lat="43.91639" lon="5.18856">
        <ele>387.55</ele>
        <time>2011-05-02T08:31:00Z</time>
      </trkpt>
      <trkpt lat="43.91638" lon="5.18846">
        <ele>387.55</ele>
        <time>2011-05-02T08:31:14Z</time>
      </trkpt>
      <trkpt lat="43.91639" lon="5.18847">
        <ele>387.55</ele>
        <time>2011-05-02T08:31:31Z</time>
      </trkpt>
      <trkpt lat="43.91639" lon="5.18846">
        <ele>387.55</ele>
        <time>2011-05-02T08:31:32Z</time>
      </trkpt>
      <trkpt lat="43.91641" lon="5.18839">
        <ele>387.55</ele>
        <time>2011-05-02T08:31:37Z</time>
      </trkpt>
      <trkpt lat="43.91655" lon="5.18831">
        <ele>388.99</ele>
        <time>2011-05-02T08:31:52Z</time>
      </trkpt>
      <trkpt lat="43.91671" lon="5.18827">
        <ele>391.39</ele>
        <time>2011-05-02T08:32:07Z</time>
      </trkpt>
      <trkpt lat="43.91684" lon="5.18816">
        <ele>392.36</ele>
        <time>2011-05-02T08:32:22Z</time>
      </trkpt>
      <trkpt lat="43.91694" lon="5.18808">
        <ele>393.32</ele>
        <time>2011-05-02T08:32:33Z</time>
      </trkpt>
      <trkpt lat="43.91707" lon="5.18797">
        <ele>395.24</ele>
        <time>2011-05-02T08:32:48Z</time>
      </trkpt>
      <trkpt lat="43.91718" lon="5.18776">
        <ele>396.2</ele>
        <time>2011-05-02T08:33:05Z</time>
      </trkpt>
      <trkpt lat="43.91727" lon="5.18761">
        <ele>397.16</ele>
        <time>2011-05-02T08:33:19Z</time>
      </trkpt>
      <trkpt lat="43.91733" lon="5.18745">
        <ele>397.64</ele>
        <time>2011-05-02T08:33:31Z</time>
      </trkpt>
      <trkpt lat="43.9173" lon="5.1872">
        <ele>398.6</ele>
        <time>2011-05-02T08:33:47Z</time>
      </trkpt>
      <trkpt lat="43.91725" lon="5.18713">
        <ele>398.6</ele>
        <time>2011-05-02T08:34:00Z</time>
      </trkpt>
      <trkpt lat="43.91725" lon="5.18712">
        <ele>398.6</ele>
        <time>2011-05-02T08:34:18Z</time>
      </trkpt>
      <trkpt lat="43.91728" lon="5.18688">
        <ele>399.08</ele>
        <time>2011-05-02T08:34:33Z</time>
      </trkpt>
      <trkpt lat="43.91733" lon="5.18663">
        <ele>398.6</ele>
        <time>2011-05-02T08:34:49Z</time>
      </trkpt>
      <trkpt lat="43.91747" lon="5.18647">
        <ele>399.57</ele>
        <time>2011-05-02T08:35:04Z</time>
      </trkpt>
      <trkpt lat="43.91752" lon="5.18632">
        <ele>399.57</ele>
        <time>2011-05-02T08:35:19Z</time>
      </trkpt>
      <trkpt lat="43.91752" lon="5.18632">
        <ele>399.57</ele>
        <time>2011-05-02T08:35:25Z</time>
      </trkpt>
      <trkpt lat="43.91751" lon="5.18623">
        <ele>399.08</ele>
        <time>2011-05-02T08:35:31Z</time>
      </trkpt>
      <trkpt lat="43.91747" lon="5.18601">
        <ele>398.12</ele>
        <time>2011-05-02T08:35:46Z</time>
      </trkpt>
      <trkpt lat="43.91744" lon="5.18594">
        <ele>398.12</ele>
        <time>2011-05-02T08:35:51Z</time>
      </trkpt>
      <trkpt lat="43.91734" lon="5.18577">
        <ele>396.2</ele>
        <time>2011-05-02T08:36:05Z</time>
      </trkpt>
      <trkpt lat="43.91725" lon="5.18558">
        <ele>395.24</ele>
        <time>2011-05-02T08:36:21Z</time>
      </trkpt>
      <trkpt lat="43.91726" lon="5.18555">
        <ele>395.72</ele>
        <time>2011-05-02T08:36:33Z</time>
      </trkpt>
      <trkpt lat="43.91726" lon="5.18555">
        <ele>396.2</ele>
        <time>2011-05-02T08:36:40Z</time>
      </trkpt>
      <trkpt lat="43.91725" lon="5.18551">
        <ele>395.72</ele>
        <time>2011-05-02T08:36:43Z</time>
      </trkpt>
      <trkpt lat="43.91715" lon="5.18527">
        <ele>395.24</ele>
        <time>2011-05-02T08:36:59Z</time>
      </trkpt>
      <trkpt lat="43.91707" lon="5.18509">
        <ele>394.76</ele>
        <time>2011-05-02T08:37:12Z</time>
      </trkpt>
      <trkpt lat="43.91702" lon="5.18498">
        <ele>394.76</ele>
        <time>2011-05-02T08:37:20Z</time>
      </trkpt>
      <trkpt lat="43.91699" lon="5.18493">
        <ele>394.76</ele>
        <time>2011-05-02T08:37:24Z</time>
      </trkpt>
      <trkpt lat="43.91686" lon="5.18472">
        <ele>394.28</ele>
        <time>2011-05-02T08:37:40Z</time>
      </trkpt>
      <trkpt lat="43.91681" lon="5.18446">
        <ele>393.8</ele>
        <time>2011-05-02T08:37:55Z</time>
      </trkpt>
      <trkpt lat="43.91679" lon="5.18434">
        <ele>393.8</ele>
        <time>2011-05-02T08:38:09Z</time>
      </trkpt>
      <trkpt lat="43.91674" lon="5.18421">
        <ele>393.8</ele>
        <time>2011-05-02T08:38:27Z</time>
      </trkpt>
      <trkpt lat="43.91666" lon="5.18402">
        <ele>391.39</ele>
        <time>2011-05-02T08:38:41Z</time>
      </trkpt>
      <trkpt lat="43.91666" lon="5.184">
        <ele>391.87</ele>
        <time>2011-05-02T08:38:42Z</time>
      </trkpt>
      <trkpt lat="43.91664" lon="5.18386">
        <ele>390.91</ele>
        <time>2011-05-02T08:38:56Z</time>
      </trkpt>
      <trkpt lat="43.91665" lon="5.18384">
        <ele>390.91</ele>
        <time>2011-05-02T08:39:08Z</time>
      </trkpt>
      <trkpt lat="43.91665" lon="5.18385">
        <ele>390.91</ele>
        <time>2011-05-02T08:39:24Z</time>
      </trkpt>
      <trkpt lat="43.91665" lon="5.18385">
        <ele>390.43</ele>
        <time>2011-05-02T08:39:45Z</time>
      </trkpt>
      <trkpt lat="43.91665" lon="5.18385">
        <ele>390.43</ele>
        <time>2011-05-02T08:40:24Z</time>
      </trkpt>
      <trkpt lat="43.91665" lon="5.18385">
        <ele>389.95</ele>
        <time>2011-05-02T08:40:55Z</time>
      </trkpt>
      <trkpt lat="43.91665" lon="5.18385">
        <ele>389.95</ele>
        <time>2011-05-02T08:41:25Z</time>
      </trkpt>
      <trkpt lat="43.91666" lon="5.18385">
        <ele>390.43</ele>
        <time>2011-05-02T08:41:53Z</time>
      </trkpt>
      <trkpt lat="43.91666" lon="5.18385">
        <ele>390.43</ele>
        <time>2011-05-02T08:42:15Z</time>
      </trkpt>
      <trkpt lat="43.9167" lon="5.18379">
        <ele>388.99</ele>
        <time>2011-05-02T08:42:30Z</time>
      </trkpt>
      <trkpt lat="43.91668" lon="5.18374">
        <ele>387.55</ele>
        <time>2011-05-02T08:42:44Z</time>
      </trkpt>
      <trkpt lat="43.91672" lon="5.18372">
        <ele>385.15</ele>
        <time>2011-05-02T08:43:00Z</time>
      </trkpt>
      <trkpt lat="43.91673" lon="5.18372">
        <ele>385.15</ele>
        <time>2011-05-02T08:43:19Z</time>
      </trkpt>
      <trkpt lat="43.91673" lon="5.18372">
        <ele>385.15</ele>
        <time>2011-05-02T08:43:59Z</time>
      </trkpt>
      <trkpt lat="43.91673" lon="5.18372">
        <ele>385.63</ele>
        <time>2011-05-02T08:44:32Z</time>
      </trkpt>
      <trkpt lat="43.91673" lon="5.1837">
        <ele>384.18</ele>
        <time>2011-05-02T08:44:47Z</time>
      </trkpt>
      <trkpt lat="43.91677" lon="5.18367">
        <ele>382.74</ele>
        <time>2011-05-02T08:45:01Z</time>
      </trkpt>
      <trkpt lat="43.91674" lon="5.18363">
        <ele>381.3</ele>
        <time>2011-05-02T08:45:08Z</time>
      </trkpt>
      <trkpt lat="43.91675" lon="5.18361">
        <ele>378.9</ele>
        <time>2011-05-02T08:45:22Z</time>
      </trkpt>
      <trkpt lat="43.91676" lon="5.18353">
        <ele>376.97</ele>
        <time>2011-05-02T08:45:35Z</time>
      </trkpt>
      <trkpt lat="43.91674" lon="5.18349">
        <ele>374.57</ele>
        <time>2011-05-02T08:45:48Z</time>
      </trkpt>
      <trkpt lat="43.91678" lon="5.18349">
        <ele>374.09</ele>
        <time>2011-05-02T08:45:59Z</time>
      </trkpt>
      <trkpt lat="43.91682" lon="5.18351">
        <ele>373.13</ele>
        <time>2011-05-02T08:46:03Z</time>
      </trkpt>
      <trkpt lat="43.91694" lon="5.18351">
        <ele>372.17</ele>
        <time>2011-05-02T08:46:17Z</time>
      </trkpt>
      <trkpt lat="43.91707" lon="5.18355">
        <ele>371.21</ele>
        <time>2011-05-02T08:46:31Z</time>
      </trkpt>
      <trkpt lat="43.91721" lon="5.18355">
        <ele>369.76</ele>
        <time>2011-05-02T08:46:43Z</time>
      </trkpt>
      <trkpt lat="43.91727" lon="5.18351">
        <ele>367.84</ele>
        <time>2011-05-02T08:46:56Z</time>
      </trkpt>
      <trkpt lat="43.91737" lon="5.18346">
        <ele>364.96</ele>
        <time>2011-05-02T08:47:11Z</time>
      </trkpt>
      <trkpt lat="43.91748" lon="5.18343">
        <ele>363.04</ele>
        <time>2011-05-02T08:47:25Z</time>
      </trkpt>
      <trkpt lat="43.91758" lon="5.18337">
        <ele>361.11</ele>
        <time>2011-05-02T08:47:40Z</time>
      </trkpt>
      <trkpt lat="43.91761" lon="5.18335">
        <ele>360.15</ele>
        <time>2011-05-02T08:47:44Z</time>
      </trkpt>
      <trkpt lat="43.91773" lon="5.1833">
        <ele>358.23</ele>
        <time>2011-05-02T08:47:59Z</time>
      </trkpt>
      <trkpt lat="43.91778" lon="5.18325">
        <ele>354.86</ele>
        <time>2011-05-02T08:48:14Z</time>
      </trkpt>
      <trkpt lat="43.91783" lon="5.18323">
        <ele>353.9</ele>
        <time>2011-05-02T08:48:29Z</time>
      </trkpt>
      <trkpt lat="43.9179" lon="5.18319">
        <ele>351.5</ele>
        <time>2011-05-02T08:48:48Z</time>
      </trkpt>
      <trkpt lat="43.91793" lon="5.18317">
        <ele>351.02</ele>
        <time>2011-05-02T08:49:01Z</time>
      </trkpt>
      <trkpt lat="43.91793" lon="5.18316">
        <ele>350.54</ele>
        <time>2011-05-02T08:49:18Z</time>
      </trkpt>
      <trkpt lat="43.91799" lon="5.18311">
        <ele>349.1</ele>
        <time>2011-05-02T08:49:30Z</time>
      </trkpt>
      <trkpt lat="43.918" lon="5.18312">
        <ele>347.17</ele>
        <time>2011-05-02T08:49:45Z</time>
      </trkpt>
      <trkpt lat="43.91806" lon="5.18306">
        <ele>344.77</ele>
        <time>2011-05-02T08:50:02Z</time>
      </trkpt>
      <trkpt lat="43.91809" lon="5.18305">
        <ele>345.25</ele>
        <time>2011-05-02T08:50:05Z</time>
      </trkpt>
      <trkpt lat="43.91823" lon="5.18302">
        <ele>344.77</ele>
        <time>2011-05-02T08:50:20Z</time>
      </trkpt>
      <trkpt lat="43.91832" lon="5.18297">
        <ele>342.85</ele>
        <time>2011-05-02T08:50:38Z</time>
      </trkpt>
      <trkpt lat="43.91839" lon="5.18292">
        <ele>340.92</ele>
        <time>2011-05-02T08:50:51Z</time>
      </trkpt>
      <trkpt lat="43.91844" lon="5.18288">
        <ele>339.48</ele>
        <time>2011-05-02T08:51:11Z</time>
      </trkpt>
      <trkpt lat="43.91854" lon="5.18284">
        <ele>338.52</ele>
        <time>2011-05-02T08:51:25Z</time>
      </trkpt>
      <trkpt lat="43.91857" lon="5.18279">
        <ele>337.56</ele>
        <time>2011-05-02T08:51:40Z</time>
      </trkpt>
      <trkpt lat="43.91862" lon="5.18275">
        <ele>336.6</ele>
        <time>2011-05-02T08:51:53Z</time>
      </trkpt>
      <trkpt lat="43.91867" lon="5.1827">
        <ele>335.16</ele>
        <time>2011-05-02T08:52:07Z</time>
      </trkpt>
      <trkpt lat="43.91867" lon="5.1827">
        <ele>334.68</ele>
        <time>2011-05-02T08:52:09Z</time>
      </trkpt>
      <trkpt lat="43.9187" lon="5.18268">
        <ele>335.16</ele>
        <time>2011-05-02T08:52:13Z</time>
      </trkpt>
      <trkpt lat="43.91877" lon="5.18265">
        <ele>335.16</ele>
        <time>2011-05-02T08:52:25Z</time>
      </trkpt>
      <trkpt lat="43.91884" lon="5.18261">
        <ele>334.68</ele>
        <time>2011-05-02T08:52:32Z</time>
      </trkpt>
      <trkpt lat="43.91895" lon="5.18252">
        <ele>334.2</ele>
        <time>2011-05-02T08:52:46Z</time>
      </trkpt>
      <trkpt lat="43.91896" lon="5.18249">
        <ele>332.27</ele>
        <time>2011-05-02T08:52:58Z</time>
      </trkpt>
      <trkpt lat="43.91896" lon="5.18249">
        <ele>331.31</ele>
        <time>2011-05-02T08:53:18Z</time>
      </trkpt>
      <trkpt lat="43.91897" lon="5.18247">
        <ele>331.31</ele>
        <time>2011-05-02T08:53:22Z</time>
      </trkpt>
      <trkpt lat="43.91899" lon="5.18243">
        <ele>330.35</ele>
        <time>2011-05-02T08:53:25Z</time>
      </trkpt>
      <trkpt lat="43.91908" lon="5.18231">
        <ele>328.43</ele>
        <time>2011-05-02T08:53:40Z</time>
      </trkpt>
      <trkpt lat="43.91917" lon="5.18224">
        <ele>326.99</ele>
        <time>2011-05-02T08:53:53Z</time>
      </trkpt>
      <trkpt lat="43.91927" lon="5.18223">
        <ele>327.47</ele>
        <time>2011-05-02T08:54:06Z</time>
      </trkpt>
      <trkpt lat="43.91932" lon="5.18223">
        <ele>327.95</ele>
        <time>2011-05-02T08:54:18Z</time>
      </trkpt>
      <trkpt lat="43.91941" lon="5.18223">
        <ele>328.43</ele>
        <time>2011-05-02T08:54:27Z</time>
      </trkpt>
      <trkpt lat="43.9195" lon="5.18221">
        <ele>327.95</ele>
        <time>2011-05-02T08:54:36Z</time>
      </trkpt>
      <trkpt lat="43.91957" lon="5.18218">
        <ele>327.95</ele>
        <time>2011-05-02T08:54:42Z</time>
      </trkpt>
      <trkpt lat="43.91962" lon="5.18217">
        <ele>327.47</ele>
        <time>2011-05-02T08:54:48Z</time>
      </trkpt>
      <trkpt lat="43.91966" lon="5.18215">
        <ele>327.95</ele>
        <time>2011-05-02T08:54:52Z</time>
      </trkpt>
      <trkpt lat="43.9197" lon="5.18214">
        <ele>327.47</ele>
        <time>2011-05-02T08:54:56Z</time>
      </trkpt>
      <trkpt lat="43.91977" lon="5.18211">
        <ele>326.5</ele>
        <time>2011-05-02T08:55:02Z</time>
      </trkpt>
      <trkpt lat="43.9198" lon="5.18214">
        <ele>326.02</ele>
        <time>2011-05-02T08:55:16Z</time>
      </trkpt>
      <trkpt lat="43.9198" lon="5.18214">
        <ele>325.06</ele>
        <time>2011-05-02T08:55:29Z</time>
      </trkpt>
      <trkpt lat="43.91983" lon="5.18212">
        <ele>323.62</ele>
        <time>2011-05-02T08:55:43Z</time>
      </trkpt>
      <trkpt lat="43.91985" lon="5.18208">
        <ele>322.18</ele>
        <time>2011-05-02T08:55:49Z</time>
      </trkpt>
      <trkpt lat="43.91989" lon="5.18208">
        <ele>320.74</ele>
        <time>2011-05-02T08:56:02Z</time>
      </trkpt>
      <trkpt lat="43.91989" lon="5.18208">
        <ele>319.3</ele>
        <time>2011-05-02T08:56:13Z</time>
      </trkpt>
      <trkpt lat="43.91989" lon="5.18206">
        <ele>317.37</ele>
        <time>2011-05-02T08:56:26Z</time>
      </trkpt>
      <trkpt lat="43.9199" lon="5.18199">
        <ele>317.37</ele>
        <time>2011-05-02T08:56:36Z</time>
      </trkpt>
      <trkpt lat="43.9199" lon="5.18196">
        <ele>315.45</ele>
        <time>2011-05-02T08:56:58Z</time>
      </trkpt>
      <trkpt lat="43.91994" lon="5.18194">
        <ele>313.53</ele>
        <time>2011-05-02T08:57:11Z</time>
      </trkpt>
      <trkpt lat="43.91996" lon="5.18195">
        <ele>312.57</ele>
        <time>2011-05-02T08:57:23Z</time>
      </trkpt>
      <trkpt lat="43.92001" lon="5.18201">
        <ele>310.16</ele>
        <time>2011-05-02T08:57:35Z</time>
      </trkpt>
      <trkpt lat="43.92002" lon="5.18203">
        <ele>310.16</ele>
        <time>2011-05-02T08:57:37Z</time>
      </trkpt>
      <trkpt lat="43.92003" lon="5.18207">
        <ele>307.76</ele>
        <time>2011-05-02T08:57:49Z</time>
      </trkpt>
      <trkpt lat="43.92007" lon="5.18205">
        <ele>308.24</ele>
        <time>2011-05-02T08:58:02Z</time>
      </trkpt>
      <trkpt lat="43.92007" lon="5.18205">
        <ele>308.24</ele>
        <time>2011-05-02T08:58:07Z</time>
      </trkpt>
      <trkpt lat="43.92009" lon="5.18205">
        <ele>308.24</ele>
        <time>2011-05-02T08:58:08Z</time>
      </trkpt>
      <trkpt lat="43.92009" lon="5.18206">
        <ele>308.72</ele>
        <time>2011-05-02T08:58:17Z</time>
      </trkpt>
      <trkpt lat="43.92015" lon="5.18213">
        <ele>310.64</ele>
        <time>2011-05-02T08:58:31Z</time>
      </trkpt>
      <trkpt lat="43.92022" lon="5.18215">
        <ele>314.01</ele>
        <time>2011-05-02T08:58:46Z</time>
      </trkpt>
      <trkpt lat="43.92028" lon="5.18214">
        <ele>315.93</ele>
        <time>2011-05-02T08:58:59Z</time>
      </trkpt>
      <trkpt lat="43.92031" lon="5.1821">
        <ele>319.3</ele>
        <time>2011-05-02T08:59:14Z</time>
      </trkpt>
      <trkpt lat="43.92031" lon="5.1821">
        <ele>320.74</ele>
        <time>2011-05-02T08:59:27Z</time>
      </trkpt>
      <trkpt lat="43.92031" lon="5.18209">
        <ele>320.74</ele>
        <time>2011-05-02T08:59:37Z</time>
      </trkpt>
      <trkpt lat="43.9203" lon="5.18204">
        <ele>320.26</ele>
        <time>2011-05-02T08:59:40Z</time>
      </trkpt>
      <trkpt lat="43.9203" lon="5.18195">
        <ele>320.26</ele>
        <time>2011-05-02T08:59:52Z</time>
      </trkpt>
      <trkpt lat="43.92028" lon="5.18188">
        <ele>321.7</ele>
        <time>2011-05-02T08:59:58Z</time>
      </trkpt>
      <trkpt lat="43.92024" lon="5.18179">
        <ele>320.74</ele>
        <time>2011-05-02T09:00:06Z</time>
      </trkpt>
      <trkpt lat="43.9202" lon="5.18171">
        <ele>319.78</ele>
        <time>2011-05-02T09:00:15Z</time>
      </trkpt>
      <trkpt lat="43.92014" lon="5.18164">
        <ele>319.3</ele>
        <time>2011-05-02T09:00:28Z</time>
      </trkpt>
      <trkpt lat="43.92014" lon="5.18164">
        <ele>319.3</ele>
        <time>2011-05-02T09:00:48Z</time>
      </trkpt>
      <trkpt lat="43.92014" lon="5.18164">
        <ele>319.78</ele>
        <time>2011-05-02T09:01:04Z</time>
      </trkpt>
      <trkpt lat="43.92013" lon="5.18164">
        <ele>318.33</ele>
        <time>2011-05-02T09:01:24Z</time>
      </trkpt>
      <trkpt lat="43.92013" lon="5.18164">
        <ele>318.81</ele>
        <time>2011-05-02T09:01:51Z</time>
      </trkpt>
      <trkpt lat="43.92013" lon="5.18164">
        <ele>318.81</ele>
        <time>2011-05-02T09:02:21Z</time>
      </trkpt>
      <trkpt lat="43.92013" lon="5.18164">
        <ele>318.81</ele>
        <time>2011-05-02T09:02:51Z</time>
      </trkpt>
      <trkpt lat="43.92013" lon="5.18164">
        <ele>318.81</ele>
        <time>2011-05-02T09:03:21Z</time>
      </trkpt>
      <trkpt lat="43.92013" lon="5.18164">
        <ele>319.3</ele>
        <time>2011-05-02T09:03:55Z</time>
      </trkpt>
      <trkpt lat="43.92013" lon="5.18163">
        <ele>319.3</ele>
        <time>2011-05-02T09:04:35Z</time>
      </trkpt>
      <trkpt lat="43.92014" lon="5.18162">
        <ele>319.78</ele>
        <time>2011-05-02T09:05:09Z</time>
      </trkpt>
      <trkpt lat="43.92014" lon="5.18162">
        <ele>319.78</ele>
        <time>2011-05-02T09:05:33Z</time>
      </trkpt>
      <trkpt lat="43.92014" lon="5.18161">
        <ele>320.26</ele>
        <time>2011-05-02T09:06:02Z</time>
      </trkpt>
      <trkpt lat="43.92014" lon="5.18163">
        <ele>323.14</ele>
        <time>2011-05-02T09:06:25Z</time>
      </trkpt>
      <trkpt lat="43.92015" lon="5.18163">
        <ele>321.22</ele>
        <time>2011-05-02T09:06:40Z</time>
      </trkpt>
      <trkpt lat="43.92015" lon="5.18163">
        <ele>321.7</ele>
        <time>2011-05-02T09:06:57Z</time>
      </trkpt>
      <trkpt lat="43.92012" lon="5.18159">
        <ele>321.22</ele>
        <time>2011-05-02T09:07:02Z</time>
      </trkpt>
      <trkpt lat="43.92003" lon="5.18153">
        <ele>320.74</ele>
        <time>2011-05-02T09:07:17Z</time>
      </trkpt>
      <trkpt lat="43.91993" lon="5.18151">
        <ele>321.22</ele>
        <time>2011-05-02T09:07:31Z</time>
      </trkpt>
      <trkpt lat="43.91984" lon="5.18149">
        <ele>321.7</ele>
        <time>2011-05-02T09:07:45Z</time>
      </trkpt>
      <trkpt lat="43.91978" lon="5.18146">
        <ele>319.78</ele>
        <time>2011-05-02T09:07:51Z</time>
      </trkpt>
      <trkpt lat="43.91973" lon="5.18147">
        <ele>318.81</ele>
        <time>2011-05-02T09:08:05Z</time>
      </trkpt>
      <trkpt lat="43.91969" lon="5.18146">
        <ele>316.89</ele>
        <time>2011-05-02T09:08:16Z</time>
      </trkpt>
      <trkpt lat="43.91961" lon="5.18148">
        <ele>315.45</ele>
        <time>2011-05-02T09:08:30Z</time>
      </trkpt>
      <trkpt lat="43.91957" lon="5.18148">
        <ele>314.49</ele>
        <time>2011-05-02T09:08:44Z</time>
      </trkpt>
      <trkpt lat="43.9194" lon="5.18156">
        <ele>312.57</ele>
        <time>2011-05-02T09:08:59Z</time>
      </trkpt>
      <trkpt lat="43.91923" lon="5.18159">
        <ele>311.12</ele>
        <time>2011-05-02T09:09:14Z</time>
      </trkpt>
      <trkpt lat="43.91911" lon="5.18161">
        <ele>311.6</ele>
        <time>2011-05-02T09:09:29Z</time>
      </trkpt>
      <trkpt lat="43.91904" lon="5.18167">
        <ele>308.72</ele>
        <time>2011-05-02T09:09:42Z</time>
      </trkpt>
      <trkpt lat="43.91901" lon="5.18169">
        <ele>307.76</ele>
        <time>2011-05-02T09:09:46Z</time>
      </trkpt>
      <trkpt lat="43.91889" lon="5.18171">
        <ele>306.8</ele>
        <time>2011-05-02T09:10:01Z</time>
      </trkpt>
      <trkpt lat="43.91878" lon="5.18173">
        <ele>307.76</ele>
        <time>2011-05-02T09:10:14Z</time>
      </trkpt>
      <trkpt lat="43.91867" lon="5.18176">
        <ele>306.32</ele>
        <time>2011-05-02T09:10:27Z</time>
      </trkpt>
      <trkpt lat="43.91856" lon="5.18181">
        <ele>305.84</ele>
        <time>2011-05-02T09:10:40Z</time>
      </trkpt>
      <trkpt lat="43.91844" lon="5.18186">
        <ele>304.88</ele>
        <time>2011-05-02T09:10:56Z</time>
      </trkpt>
      <trkpt lat="43.9184" lon="5.18191">
        <ele>303.43</ele>
        <time>2011-05-02T09:11:04Z</time>
      </trkpt>
      <trkpt lat="43.91832" lon="5.18192">
        <ele>302.47</ele>
        <time>2011-05-02T09:11:12Z</time>
      </trkpt>
      <trkpt lat="43.91822" lon="5.18199">
        <ele>300.55</ele>
        <time>2011-05-02T09:11:25Z</time>
      </trkpt>
      <trkpt lat="43.91812" lon="5.18205">
        <ele>299.11</ele>
        <time>2011-05-02T09:11:39Z</time>
      </trkpt>
      <trkpt lat="43.91812" lon="5.18204">
        <ele>299.11</ele>
        <time>2011-05-02T09:11:42Z</time>
      </trkpt>
      <trkpt lat="43.91804" lon="5.18201">
        <ele>299.11</ele>
        <time>2011-05-02T09:11:51Z</time>
      </trkpt>
      <trkpt lat="43.91801" lon="5.18203">
        <ele>299.11</ele>
        <time>2011-05-02T09:11:55Z</time>
      </trkpt>
      <trkpt lat="43.91782" lon="5.18205">
        <ele>299.59</ele>
        <time>2011-05-02T09:12:12Z</time>
      </trkpt>
      <trkpt lat="43.91773" lon="5.18206">
        <ele>299.11</ele>
        <time>2011-05-02T09:12:22Z</time>
      </trkpt>
      <trkpt lat="43.91766" lon="5.18208">
        <ele>299.59</ele>
        <time>2011-05-02T09:12:31Z</time>
      </trkpt>
      <trkpt lat="43.91751" lon="5.18209">
        <ele>300.55</ele>
        <time>2011-05-02T09:12:47Z</time>
      </trkpt>
      <trkpt lat="43.9175" lon="5.18209">
        <ele>300.07</ele>
        <time>2011-05-02T09:12:50Z</time>
      </trkpt>
      <trkpt lat="43.91746" lon="5.18207">
        <ele>300.07</ele>
        <time>2011-05-02T09:12:53Z</time>
      </trkpt>
      <trkpt lat="43.91737" lon="5.18203">
        <ele>300.55</ele>
        <time>2011-05-02T09:13:01Z</time>
      </trkpt>
      <trkpt lat="43.91732" lon="5.18198">
        <ele>300.55</ele>
        <time>2011-05-02T09:13:07Z</time>
      </trkpt>
      <trkpt lat="43.91729" lon="5.18197">
        <ele>300.55</ele>
        <time>2011-05-02T09:13:09Z</time>
      </trkpt>
      <trkpt lat="43.91726" lon="5.18194">
        <ele>300.07</ele>
        <time>2011-05-02T09:13:12Z</time>
      </trkpt>
      <trkpt lat="43.91726" lon="5.1819">
        <ele>301.03</ele>
        <time>2011-05-02T09:13:14Z</time>
      </trkpt>
      <trkpt lat="43.91717" lon="5.18178">
        <ele>298.63</ele>
        <time>2011-05-02T09:13:28Z</time>
      </trkpt>
      <trkpt lat="43.91712" lon="5.18167">
        <ele>296.7</ele>
        <time>2011-05-02T09:13:40Z</time>
      </trkpt>
      <trkpt lat="43.91712" lon="5.18164">
        <ele>296.22</ele>
        <time>2011-05-02T09:13:56Z</time>
      </trkpt>
      <trkpt lat="43.9171" lon="5.18161">
        <ele>294.3</ele>
        <time>2011-05-02T09:14:15Z</time>
      </trkpt>
      <trkpt lat="43.91709" lon="5.18147">
        <ele>294.3</ele>
        <time>2011-05-02T09:14:28Z</time>
      </trkpt>
      <trkpt lat="43.91707" lon="5.1814">
        <ele>294.78</ele>
        <time>2011-05-02T09:14:36Z</time>
      </trkpt>
      <trkpt lat="43.91705" lon="5.18136">
        <ele>295.26</ele>
        <time>2011-05-02T09:14:39Z</time>
      </trkpt>
      <trkpt lat="43.91702" lon="5.18129">
        <ele>294.78</ele>
        <time>2011-05-02T09:14:53Z</time>
      </trkpt>
      <trkpt lat="43.91701" lon="5.18127">
        <ele>294.78</ele>
        <time>2011-05-02T09:14:56Z</time>
      </trkpt>
      <trkpt lat="43.91701" lon="5.18124">
        <ele>294.3</ele>
        <time>2011-05-02T09:14:58Z</time>
      </trkpt>
      <trkpt lat="43.917" lon="5.18121">
        <ele>293.82</ele>
        <time>2011-05-02T09:15:00Z</time>
      </trkpt>
      <trkpt lat="43.91689" lon="5.18097">
        <ele>292.86</ele>
        <time>2011-05-02T09:15:19Z</time>
      </trkpt>
      <trkpt lat="43.91687" lon="5.18095">
        <ele>292.86</ele>
        <time>2011-05-02T09:15:23Z</time>
      </trkpt>
      <trkpt lat="43.91681" lon="5.18078">
        <ele>291.9</ele>
        <time>2011-05-02T09:15:40Z</time>
      </trkpt>
      <trkpt lat="43.91676" lon="5.18068">
        <ele>289.97</ele>
        <time>2011-05-02T09:15:56Z</time>
      </trkpt>
      <trkpt lat="43.91678" lon="5.18063">
        <ele>289.97</ele>
        <time>2011-05-02T09:16:14Z</time>
      </trkpt>
      <trkpt lat="43.91678" lon="5.18058">
        <ele>289.49</ele>
        <time>2011-05-02T09:16:27Z</time>
      </trkpt>
      <trkpt lat="43.91679" lon="5.18059">
        <ele>291.9</ele>
        <time>2011-05-02T09:16:43Z</time>
      </trkpt>
      <trkpt lat="43.9168" lon="5.18043">
        <ele>289.97</ele>
        <time>2011-05-02T09:17:11Z</time>
      </trkpt>
      <trkpt lat="43.91682" lon="5.18045">
        <ele>289.01</ele>
        <time>2011-05-02T09:17:14Z</time>
      </trkpt>
      <trkpt lat="43.9168" lon="5.18047">
        <ele>289.49</ele>
        <time>2011-05-02T09:17:17Z</time>
      </trkpt>
      <trkpt lat="43.91675" lon="5.1805">
        <ele>289.49</ele>
        <time>2011-05-02T09:17:32Z</time>
      </trkpt>
      <trkpt lat="43.91671" lon="5.1805">
        <ele>289.97</ele>
        <time>2011-05-02T09:17:36Z</time>
      </trkpt>
      <trkpt lat="43.91664" lon="5.18044">
        <ele>291.9</ele>
        <time>2011-05-02T09:17:49Z</time>
      </trkpt>
      <trkpt lat="43.91657" lon="5.18043">
        <ele>292.38</ele>
        <time>2011-05-02T09:17:57Z</time>
      </trkpt>
      <trkpt lat="43.91647" lon="5.18032">
        <ele>292.38</ele>
        <time>2011-05-02T09:18:07Z</time>
      </trkpt>
      <trkpt lat="43.91643" lon="5.18012">
        <ele>289.97</ele>
        <time>2011-05-02T09:18:21Z</time>
      </trkpt>
      <trkpt lat="43.91643" lon="5.18011">
        <ele>289.97</ele>
        <time>2011-05-02T09:18:22Z</time>
      </trkpt>
      <trkpt lat="43.91641" lon="5.17997">
        <ele>289.49</ele>
        <time>2011-05-02T09:18:35Z</time>
      </trkpt>
      <trkpt lat="43.91643" lon="5.17983">
        <ele>288.53</ele>
        <time>2011-05-02T09:18:48Z</time>
      </trkpt>
      <trkpt lat="43.91642" lon="5.17981">
        <ele>288.53</ele>
        <time>2011-05-02T09:18:54Z</time>
      </trkpt>
      <trkpt lat="43.91637" lon="5.17974">
        <ele>288.53</ele>
        <time>2011-05-02T09:19:06Z</time>
      </trkpt>
      <trkpt lat="43.91627" lon="5.17962">
        <ele>288.53</ele>
        <time>2011-05-02T09:19:19Z</time>
      </trkpt>
      <trkpt lat="43.9163" lon="5.17952">
        <ele>288.05</ele>
        <time>2011-05-02T09:19:24Z</time>
      </trkpt>
      <trkpt lat="43.9163" lon="5.17949">
        <ele>287.57</ele>
        <time>2011-05-02T09:19:28Z</time>
      </trkpt>
      <trkpt lat="43.91628" lon="5.17941">
        <ele>287.09</ele>
        <time>2011-05-02T09:19:32Z</time>
      </trkpt>
      <trkpt lat="43.91625" lon="5.17935">
        <ele>287.09</ele>
        <time>2011-05-02T09:19:36Z</time>
      </trkpt>
      <trkpt lat="43.91616" lon="5.17916">
        <ele>286.61</ele>
        <time>2011-05-02T09:19:50Z</time>
      </trkpt>
      <trkpt lat="43.91609" lon="5.17897">
        <ele>286.13</ele>
        <time>2011-05-02T09:20:05Z</time>
      </trkpt>
      <trkpt lat="43.91601" lon="5.17885">
        <ele>286.61</ele>
        <time>2011-05-02T09:20:17Z</time>
      </trkpt>
      <trkpt lat="43.91602" lon="5.1788">
        <ele>286.13</ele>
        <time>2011-05-02T09:20:21Z</time>
      </trkpt>
      <trkpt lat="43.91601" lon="5.17873">
        <ele>285.65</ele>
        <time>2011-05-02T09:20:27Z</time>
      </trkpt>
      <trkpt lat="43.91599" lon="5.17867">
        <ele>285.17</ele>
        <time>2011-05-02T09:20:31Z</time>
      </trkpt>
      <trkpt lat="43.91591" lon="5.17847">
        <ele>284.69</ele>
        <time>2011-05-02T09:20:44Z</time>
      </trkpt>
      <trkpt lat="43.91592" lon="5.17834">
        <ele>283.25</ele>
        <time>2011-05-02T09:20:53Z</time>
      </trkpt>
      <trkpt lat="43.91588" lon="5.17831">
        <ele>283.25</ele>
        <time>2011-05-02T09:20:57Z</time>
      </trkpt>
      <trkpt lat="43.91576" lon="5.17811">
        <ele>281.8</ele>
        <time>2011-05-02T09:21:12Z</time>
      </trkpt>
      <trkpt lat="43.91562" lon="5.17803">
        <ele>281.8</ele>
        <time>2011-05-02T09:21:26Z</time>
      </trkpt>
      <trkpt lat="43.91551" lon="5.17789">
        <ele>280.84</ele>
        <time>2011-05-02T09:21:40Z</time>
      </trkpt>
      <trkpt lat="43.9154" lon="5.17778">
        <ele>280.84</ele>
        <time>2011-05-02T09:21:53Z</time>
      </trkpt>
      <trkpt lat="43.91538" lon="5.17777">
        <ele>280.84</ele>
        <time>2011-05-02T09:22:10Z</time>
      </trkpt>
      <trkpt lat="43.91537" lon="5.17779">
        <ele>281.32</ele>
        <time>2011-05-02T09:22:13Z</time>
      </trkpt>
      <trkpt lat="43.91535" lon="5.17778">
        <ele>280.84</ele>
        <time>2011-05-02T09:22:38Z</time>
      </trkpt>
      <trkpt lat="43.91535" lon="5.17778">
        <ele>280.36</ele>
        <time>2011-05-02T09:23:19Z</time>
      </trkpt>
      <trkpt lat="43.91535" lon="5.17777">
        <ele>280.84</ele>
        <time>2011-05-02T09:23:49Z</time>
      </trkpt>
      <trkpt lat="43.91535" lon="5.17777">
        <ele>280.84</ele>
        <time>2011-05-02T09:24:25Z</time>
      </trkpt>
      <trkpt lat="43.91535" lon="5.17777">
        <ele>281.32</ele>
        <time>2011-05-02T09:24:50Z</time>
      </trkpt>
      <trkpt lat="43.91535" lon="5.17777">
        <ele>281.32</ele>
        <time>2011-05-02T09:25:08Z</time>
      </trkpt>
      <trkpt lat="43.91535" lon="5.17777">
        <ele>281.8</ele>
        <time>2011-05-02T09:25:41Z</time>
      </trkpt>
      <trkpt lat="43.91535" lon="5.17778">
        <ele>281.32</ele>
        <time>2011-05-02T09:26:00Z</time>
      </trkpt>
      <trkpt lat="43.91535" lon="5.17778">
        <ele>281.32</ele>
        <time>2011-05-02T09:26:24Z</time>
      </trkpt>
      <trkpt lat="43.91532" lon="5.17778">
        <ele>281.32</ele>
        <time>2011-05-02T09:26:36Z</time>
      </trkpt>
      <trkpt lat="43.91516" lon="5.17764">
        <ele>280.84</ele>
        <time>2011-05-02T09:26:49Z</time>
      </trkpt>
      <trkpt lat="43.91505" lon="5.1774">
        <ele>279.4</ele>
        <time>2011-05-02T09:27:05Z</time>
      </trkpt>
      <trkpt lat="43.91498" lon="5.17734">
        <ele>278.92</ele>
        <time>2011-05-02T09:27:11Z</time>
      </trkpt>
      <trkpt lat="43.91497" lon="5.17732">
        <ele>278.92</ele>
        <time>2011-05-02T09:27:16Z</time>
      </trkpt>
      <trkpt lat="43.91478" lon="5.17713">
        <ele>277.48</ele>
        <time>2011-05-02T09:27:33Z</time>
      </trkpt>
      <trkpt lat="43.91464" lon="5.17704">
        <ele>277.48</ele>
        <time>2011-05-02T09:27:47Z</time>
      </trkpt>
      <trkpt lat="43.91464" lon="5.17704">
        <ele>277.48</ele>
        <time>2011-05-02T09:27:59Z</time>
      </trkpt>
      <trkpt lat="43.91464" lon="5.17703">
        <ele>277</ele>
        <time>2011-05-02T09:28:21Z</time>
      </trkpt>
      <trkpt lat="43.91464" lon="5.17703">
        <ele>277.48</ele>
        <time>2011-05-02T09:28:57Z</time>
      </trkpt>
      <trkpt lat="43.91464" lon="5.17704">
        <ele>277</ele>
        <time>2011-05-02T09:29:29Z</time>
      </trkpt>
      <trkpt lat="43.91466" lon="5.17699">
        <ele>275.56</ele>
        <time>2011-05-02T09:29:44Z</time>
      </trkpt>
      <trkpt lat="43.91474" lon="5.17689">
        <ele>272.67</ele>
        <time>2011-05-02T09:29:59Z</time>
      </trkpt>
      <trkpt lat="43.9148" lon="5.17681">
        <ele>275.07</ele>
        <time>2011-05-02T09:30:11Z</time>
      </trkpt>
      <trkpt lat="43.91484" lon="5.17671">
        <ele>276.52</ele>
        <time>2011-05-02T09:30:22Z</time>
      </trkpt>
      <trkpt lat="43.91488" lon="5.17668">
        <ele>277.48</ele>
        <time>2011-05-02T09:30:31Z</time>
      </trkpt>
      <trkpt lat="43.91496" lon="5.17673">
        <ele>277.48</ele>
        <time>2011-05-02T09:30:38Z</time>
      </trkpt>
      <trkpt lat="43.915" lon="5.17666">
        <ele>277.96</ele>
        <time>2011-05-02T09:30:44Z</time>
      </trkpt>
      <trkpt lat="43.91513" lon="5.17656">
        <ele>278.44</ele>
        <time>2011-05-02T09:30:58Z</time>
      </trkpt>
      <trkpt lat="43.91527" lon="5.17651">
        <ele>279.4</ele>
        <time>2011-05-02T09:31:13Z</time>
      </trkpt>
      <trkpt lat="43.91543" lon="5.17643">
        <ele>280.36</ele>
        <time>2011-05-02T09:31:28Z</time>
      </trkpt>
      <trkpt lat="43.9155" lon="5.17639">
        <ele>280.36</ele>
        <time>2011-05-02T09:31:35Z</time>
      </trkpt>
      <trkpt lat="43.9157" lon="5.17639">
        <ele>280.84</ele>
        <time>2011-05-02T09:31:52Z</time>
      </trkpt>
      <trkpt lat="43.91582" lon="5.17641">
        <ele>281.32</ele>
        <time>2011-05-02T09:32:03Z</time>
      </trkpt>
      <trkpt lat="43.91591" lon="5.17639">
        <ele>281.32</ele>
        <time>2011-05-02T09:32:12Z</time>
      </trkpt>
      <trkpt lat="43.91593" lon="5.1764">
        <ele>281.8</ele>
        <time>2011-05-02T09:32:14Z</time>
      </trkpt>
      <trkpt lat="43.91604" lon="5.17644">
        <ele>282.28</ele>
        <time>2011-05-02T09:32:23Z</time>
      </trkpt>
      <trkpt lat="43.91621" lon="5.17651">
        <ele>283.25</ele>
        <time>2011-05-02T09:32:39Z</time>
      </trkpt>
      <trkpt lat="43.91629" lon="5.17654">
        <ele>283.25</ele>
        <time>2011-05-02T09:32:45Z</time>
      </trkpt>
      <trkpt lat="43.91646" lon="5.17657">
        <ele>284.21</ele>
        <time>2011-05-02T09:33:00Z</time>
      </trkpt>
      <trkpt lat="43.91651" lon="5.17658">
        <ele>284.21</ele>
        <time>2011-05-02T09:33:05Z</time>
      </trkpt>
      <trkpt lat="43.91656" lon="5.17656">
        <ele>284.69</ele>
        <time>2011-05-02T09:33:10Z</time>
      </trkpt>
      <trkpt lat="43.91669" lon="5.17649">
        <ele>286.13</ele>
        <time>2011-05-02T09:33:24Z</time>
      </trkpt>
      <trkpt lat="43.91678" lon="5.17645">
        <ele>286.61</ele>
        <time>2011-05-02T09:33:33Z</time>
      </trkpt>
      <trkpt lat="43.91681" lon="5.17644">
        <ele>287.09</ele>
        <time>2011-05-02T09:33:37Z</time>
      </trkpt>
      <trkpt lat="43.91686" lon="5.17641">
        <ele>287.57</ele>
        <time>2011-05-02T09:33:42Z</time>
      </trkpt>
      <trkpt lat="43.91689" lon="5.1764">
        <ele>288.05</ele>
        <time>2011-05-02T09:33:45Z</time>
      </trkpt>
      <trkpt lat="43.91699" lon="5.17634">
        <ele>288.05</ele>
        <time>2011-05-02T09:33:55Z</time>
      </trkpt>
      <trkpt lat="43.91712" lon="5.17625">
        <ele>289.01</ele>
        <time>2011-05-02T09:34:09Z</time>
      </trkpt>
      <trkpt lat="43.91713" lon="5.17625">
        <ele>289.01</ele>
        <time>2011-05-02T09:34:10Z</time>
      </trkpt>
      <trkpt lat="43.91715" lon="5.17624">
        <ele>289.49</ele>
        <time>2011-05-02T09:34:15Z</time>
      </trkpt>
      <trkpt lat="43.91719" lon="5.17624">
        <ele>289.49</ele>
        <time>2011-05-02T09:34:18Z</time>
      </trkpt>
      <trkpt lat="43.91736" lon="5.17622">
        <ele>289.49</ele>
        <time>2011-05-02T09:34:34Z</time>
      </trkpt>
      <trkpt lat="43.9175" lon="5.17632">
        <ele>290.94</ele>
        <time>2011-05-02T09:34:51Z</time>
      </trkpt>
      <trkpt lat="43.9175" lon="5.17632">
        <ele>290.46</ele>
        <time>2011-05-02T09:35:01Z</time>
      </trkpt>
      <trkpt lat="43.91753" lon="5.17632">
        <ele>290.94</ele>
        <time>2011-05-02T09:35:03Z</time>
      </trkpt>
      <trkpt lat="43.9177" lon="5.17631">
        <ele>291.42</ele>
        <time>2011-05-02T09:35:18Z</time>
      </trkpt>
      <trkpt lat="43.91771" lon="5.17631">
        <ele>291.42</ele>
        <time>2011-05-02T09:35:19Z</time>
      </trkpt>
      <trkpt lat="43.91775" lon="5.17627">
        <ele>292.38</ele>
        <time>2011-05-02T09:35:24Z</time>
      </trkpt>
      <trkpt lat="43.91778" lon="5.17602">
        <ele>292.86</ele>
        <time>2011-05-02T09:35:41Z</time>
      </trkpt>
      <trkpt lat="43.91776" lon="5.17592">
        <ele>293.82</ele>
        <time>2011-05-02T09:35:49Z</time>
      </trkpt>
      <trkpt lat="43.91777" lon="5.17574">
        <ele>294.3</ele>
        <time>2011-05-02T09:36:02Z</time>
      </trkpt>
      <trkpt lat="43.91777" lon="5.17566">
        <ele>294.78</ele>
        <time>2011-05-02T09:36:08Z</time>
      </trkpt>
      <trkpt lat="43.91778" lon="5.17551">
        <ele>295.26</ele>
        <time>2011-05-02T09:36:18Z</time>
      </trkpt>
      <trkpt lat="43.91779" lon="5.17544">
        <ele>295.26</ele>
        <time>2011-05-02T09:36:22Z</time>
      </trkpt>
      <trkpt lat="43.91782" lon="5.17535">
        <ele>295.26</ele>
        <time>2011-05-02T09:36:29Z</time>
      </trkpt>
      <trkpt lat="43.9179" lon="5.17522">
        <ele>297.18</ele>
        <time>2011-05-02T09:36:43Z</time>
      </trkpt>
      <trkpt lat="43.91791" lon="5.17519">
        <ele>297.18</ele>
        <time>2011-05-02T09:36:46Z</time>
      </trkpt>
      <trkpt lat="43.91797" lon="5.17512">
        <ele>298.15</ele>
        <time>2011-05-02T09:36:54Z</time>
      </trkpt>
      <trkpt lat="43.91805" lon="5.17508">
        <ele>298.63</ele>
        <time>2011-05-02T09:37:02Z</time>
      </trkpt>
      <trkpt lat="43.91811" lon="5.17504">
        <ele>298.63</ele>
        <time>2011-05-02T09:37:08Z</time>
      </trkpt>
      <trkpt lat="43.9182" lon="5.17488">
        <ele>299.11</ele>
        <time>2011-05-02T09:37:22Z</time>
      </trkpt>
      <trkpt lat="43.9182" lon="5.17482">
        <ele>300.07</ele>
        <time>2011-05-02T09:37:35Z</time>
      </trkpt>
      <trkpt lat="43.91815" lon="5.1748">
        <ele>300.07</ele>
        <time>2011-05-02T09:37:48Z</time>
      </trkpt>
      <trkpt lat="43.91809" lon="5.17475">
        <ele>300.55</ele>
        <time>2011-05-02T09:37:57Z</time>
      </trkpt>
      <trkpt lat="43.91803" lon="5.17466">
        <ele>301.03</ele>
        <time>2011-05-02T09:38:05Z</time>
      </trkpt>
      <trkpt lat="43.91801" lon="5.17462">
        <ele>301.51</ele>
        <time>2011-05-02T09:38:09Z</time>
      </trkpt>
      <trkpt lat="43.91797" lon="5.17445">
        <ele>302.95</ele>
        <time>2011-05-02T09:38:24Z</time>
      </trkpt>
      <trkpt lat="43.9179" lon="5.17426">
        <ele>304.88</ele>
        <time>2011-05-02T09:38:39Z</time>
      </trkpt>
      <trkpt lat="43.91786" lon="5.17409">
        <ele>306.32</ele>
        <time>2011-05-02T09:38:54Z</time>
      </trkpt>
      <trkpt lat="43.91787" lon="5.17392">
        <ele>306.8</ele>
        <time>2011-05-02T09:39:07Z</time>
      </trkpt>
      <trkpt lat="43.91788" lon="5.17385">
        <ele>306.8</ele>
        <time>2011-05-02T09:39:20Z</time>
      </trkpt>
      <trkpt lat="43.9179" lon="5.17372">
        <ele>307.76</ele>
        <time>2011-05-02T09:39:31Z</time>
      </trkpt>
      <trkpt lat="43.9179" lon="5.17371">
        <ele>308.24</ele>
        <time>2011-05-02T09:39:32Z</time>
      </trkpt>
      <trkpt lat="43.9179" lon="5.17361">
        <ele>309.2</ele>
        <time>2011-05-02T09:39:39Z</time>
      </trkpt>
      <trkpt lat="43.91792" lon="5.17345">
        <ele>310.64</ele>
        <time>2011-05-02T09:39:52Z</time>
      </trkpt>
      <trkpt lat="43.91791" lon="5.17335">
        <ele>310.64</ele>
        <time>2011-05-02T09:40:01Z</time>
      </trkpt>
      <trkpt lat="43.91793" lon="5.17317">
        <ele>312.09</ele>
        <time>2011-05-02T09:40:15Z</time>
      </trkpt>
      <trkpt lat="43.91794" lon="5.17307">
        <ele>313.05</ele>
        <time>2011-05-02T09:40:23Z</time>
      </trkpt>
      <trkpt lat="43.91795" lon="5.17292">
        <ele>314.01</ele>
        <time>2011-05-02T09:40:37Z</time>
      </trkpt>
      <trkpt lat="43.91795" lon="5.17289">
        <ele>314.01</ele>
        <time>2011-05-02T09:40:39Z</time>
      </trkpt>
      <trkpt lat="43.91793" lon="5.17278">
        <ele>314.97</ele>
        <time>2011-05-02T09:40:49Z</time>
      </trkpt>
      <trkpt lat="43.91793" lon="5.17275">
        <ele>314.97</ele>
        <time>2011-05-02T09:40:52Z</time>
      </trkpt>
      <trkpt lat="43.91791" lon="5.17256">
        <ele>316.89</ele>
        <time>2011-05-02T09:41:09Z</time>
      </trkpt>
      <trkpt lat="43.9179" lon="5.17254">
        <ele>316.89</ele>
        <time>2011-05-02T09:41:12Z</time>
      </trkpt>
      <trkpt lat="43.91787" lon="5.1724">
        <ele>317.85</ele>
        <time>2011-05-02T09:41:25Z</time>
      </trkpt>
      <trkpt lat="43.91786" lon="5.17238">
        <ele>318.33</ele>
        <time>2011-05-02T09:41:27Z</time>
      </trkpt>
      <trkpt lat="43.91786" lon="5.17235">
        <ele>318.81</ele>
        <time>2011-05-02T09:41:29Z</time>
      </trkpt>
      <trkpt lat="43.91779" lon="5.17226">
        <ele>320.26</ele>
        <time>2011-05-02T09:41:43Z</time>
      </trkpt>
      <trkpt lat="43.91776" lon="5.17227">
        <ele>321.22</ele>
        <time>2011-05-02T09:41:46Z</time>
      </trkpt>
      <trkpt lat="43.91774" lon="5.17243">
        <ele>321.7</ele>
        <time>2011-05-02T09:41:59Z</time>
      </trkpt>
      <trkpt lat="43.91773" lon="5.17247">
        <ele>322.18</ele>
        <time>2011-05-02T09:42:02Z</time>
      </trkpt>
      <trkpt lat="43.91774" lon="5.17264">
        <ele>323.62</ele>
        <time>2011-05-02T09:42:17Z</time>
      </trkpt>
      <trkpt lat="43.91773" lon="5.17279">
        <ele>324.58</ele>
        <time>2011-05-02T09:42:29Z</time>
      </trkpt>
      <trkpt lat="43.91769" lon="5.17296">
        <ele>325.06</ele>
        <time>2011-05-02T09:42:45Z</time>
      </trkpt>
      <trkpt lat="43.91765" lon="5.17315">
        <ele>326.02</ele>
        <time>2011-05-02T09:42:59Z</time>
      </trkpt>
      <trkpt lat="43.91764" lon="5.1732">
        <ele>326.02</ele>
        <time>2011-05-02T09:43:03Z</time>
      </trkpt>
      <trkpt lat="43.91761" lon="5.17329">
        <ele>327.47</ele>
        <time>2011-05-02T09:43:10Z</time>
      </trkpt>
      <trkpt lat="43.91753" lon="5.17344">
        <ele>328.43</ele>
        <time>2011-05-02T09:43:27Z</time>
      </trkpt>
      <trkpt lat="43.91747" lon="5.1736">
        <ele>329.87</ele>
        <time>2011-05-02T09:43:43Z</time>
      </trkpt>
      <trkpt lat="43.91742" lon="5.17364">
        <ele>330.83</ele>
        <time>2011-05-02T09:43:50Z</time>
      </trkpt>
      <trkpt lat="43.91738" lon="5.17385">
        <ele>331.79</ele>
        <time>2011-05-02T09:44:07Z</time>
      </trkpt>
      <trkpt lat="43.91736" lon="5.17396">
        <ele>332.75</ele>
        <time>2011-05-02T09:44:20Z</time>
      </trkpt>
      <trkpt lat="43.91735" lon="5.17399">
        <ele>333.23</ele>
        <time>2011-05-02T09:44:35Z</time>
      </trkpt>
      <trkpt lat="43.91736" lon="5.17395">
        <ele>332.75</ele>
        <time>2011-05-02T09:44:40Z</time>
      </trkpt>
      <trkpt lat="43.91738" lon="5.17392">
        <ele>331.79</ele>
        <time>2011-05-02T09:44:57Z</time>
      </trkpt>
      <trkpt lat="43.91737" lon="5.17395">
        <ele>332.75</ele>
        <time>2011-05-02T09:45:02Z</time>
      </trkpt>
      <trkpt lat="43.91734" lon="5.174">
        <ele>332.75</ele>
        <time>2011-05-02T09:45:17Z</time>
      </trkpt>
      <trkpt lat="43.91733" lon="5.17401">
        <ele>333.23</ele>
        <time>2011-05-02T09:45:18Z</time>
      </trkpt>
      <trkpt lat="43.91718" lon="5.17405">
        <ele>335.16</ele>
        <time>2011-05-02T09:45:35Z</time>
      </trkpt>
      <trkpt lat="43.91713" lon="5.17405">
        <ele>336.12</ele>
        <time>2011-05-02T09:45:40Z</time>
      </trkpt>
      <trkpt lat="43.91711" lon="5.17405">
        <ele>336.12</ele>
        <time>2011-05-02T09:45:42Z</time>
      </trkpt>
      <trkpt lat="43.91703" lon="5.17404">
        <ele>337.08</ele>
        <time>2011-05-02T09:45:54Z</time>
      </trkpt>
      <trkpt lat="43.9169" lon="5.17407">
        <ele>337.56</ele>
        <time>2011-05-02T09:46:08Z</time>
      </trkpt>
      <trkpt lat="43.91688" lon="5.17406">
        <ele>338.04</ele>
        <time>2011-05-02T09:46:10Z</time>
      </trkpt>
      <trkpt lat="43.91671" lon="5.174">
        <ele>338.52</ele>
        <time>2011-05-02T09:46:26Z</time>
      </trkpt>
      <trkpt lat="43.91658" lon="5.17392">
        <ele>340.92</ele>
        <time>2011-05-02T09:46:41Z</time>
      </trkpt>
      <trkpt lat="43.91644" lon="5.1739">
        <ele>341.89</ele>
        <time>2011-05-02T09:46:57Z</time>
      </trkpt>
      <trkpt lat="43.91631" lon="5.1739">
        <ele>342.85</ele>
        <time>2011-05-02T09:47:11Z</time>
      </trkpt>
      <trkpt lat="43.91616" lon="5.17392">
        <ele>344.77</ele>
        <time>2011-05-02T09:47:26Z</time>
      </trkpt>
      <trkpt lat="43.91614" lon="5.17391">
        <ele>344.29</ele>
        <time>2011-05-02T09:47:41Z</time>
      </trkpt>
      <trkpt lat="43.91613" lon="5.1739">
        <ele>344.77</ele>
        <time>2011-05-02T09:47:56Z</time>
      </trkpt>
      <trkpt lat="43.9161" lon="5.1739">
        <ele>344.29</ele>
        <time>2011-05-02T09:47:59Z</time>
      </trkpt>
      <trkpt lat="43.916" lon="5.17388">
        <ele>342.85</ele>
        <time>2011-05-02T09:48:10Z</time>
      </trkpt>
      <trkpt lat="43.91596" lon="5.17384">
        <ele>342.85</ele>
        <time>2011-05-02T09:48:14Z</time>
      </trkpt>
      <trkpt lat="43.91578" lon="5.17377">
        <ele>341.89</ele>
        <time>2011-05-02T09:48:30Z</time>
      </trkpt>
      <trkpt lat="43.91562" lon="5.17368">
        <ele>342.85</ele>
        <time>2011-05-02T09:48:46Z</time>
      </trkpt>
      <trkpt lat="43.91547" lon="5.17362">
        <ele>343.81</ele>
        <time>2011-05-02T09:49:01Z</time>
      </trkpt>
      <trkpt lat="43.9153" lon="5.17359">
        <ele>344.77</ele>
        <time>2011-05-02T09:49:17Z</time>
      </trkpt>
      <trkpt lat="43.91516" lon="5.1736">
        <ele>344.29</ele>
        <time>2011-05-02T09:49:32Z</time>
      </trkpt>
      <trkpt lat="43.91503" lon="5.17369">
        <ele>345.73</ele>
        <time>2011-05-02T09:49:47Z</time>
      </trkpt>
      <trkpt lat="43.91502" lon="5.17369">
        <ele>346.21</ele>
        <time>2011-05-02T09:49:48Z</time>
      </trkpt>
      <trkpt lat="43.91488" lon="5.1738">
        <ele>347.17</ele>
        <time>2011-05-02T09:50:04Z</time>
      </trkpt>
      <trkpt lat="43.91477" lon="5.17387">
        <ele>349.1</ele>
        <time>2011-05-02T09:50:18Z</time>
      </trkpt>
      <trkpt lat="43.91466" lon="5.1739">
        <ele>351.5</ele>
        <time>2011-05-02T09:50:33Z</time>
      </trkpt>
      <trkpt lat="43.91456" lon="5.1739">
        <ele>352.94</ele>
        <time>2011-05-02T09:50:47Z</time>
      </trkpt>
      <trkpt lat="43.91445" lon="5.1739">
        <ele>354.86</ele>
        <time>2011-05-02T09:51:01Z</time>
      </trkpt>
      <trkpt lat="43.91436" lon="5.17387">
        <ele>356.31</ele>
        <time>2011-05-02T09:51:12Z</time>
      </trkpt>
      <trkpt lat="43.91425" lon="5.17377">
        <ele>356.79</ele>
        <time>2011-05-02T09:51:25Z</time>
      </trkpt>
      <trkpt lat="43.91409" lon="5.17361">
        <ele>356.31</ele>
        <time>2011-05-02T09:51:42Z</time>
      </trkpt>
      <trkpt lat="43.91409" lon="5.1736">
        <ele>355.83</ele>
        <time>2011-05-02T09:51:43Z</time>
      </trkpt>
      <trkpt lat="43.91396" lon="5.17351">
        <ele>355.34</ele>
        <time>2011-05-02T09:51:56Z</time>
      </trkpt>
      <trkpt lat="43.91395" lon="5.17348">
        <ele>355.34</ele>
        <time>2011-05-02T09:51:58Z</time>
      </trkpt>
      <trkpt lat="43.9139" lon="5.17344">
        <ele>356.31</ele>
        <time>2011-05-02T09:52:03Z</time>
      </trkpt>
      <trkpt lat="43.91377" lon="5.17332">
        <ele>356.79</ele>
        <time>2011-05-02T09:52:18Z</time>
      </trkpt>
      <trkpt lat="43.9137" lon="5.17327">
        <ele>356.79</ele>
        <time>2011-05-02T09:52:25Z</time>
      </trkpt>
      <trkpt lat="43.91353" lon="5.17326">
        <ele>355.34</ele>
        <time>2011-05-02T09:52:41Z</time>
      </trkpt>
      <trkpt lat="43.91348" lon="5.17327">
        <ele>354.86</ele>
        <time>2011-05-02T09:52:46Z</time>
      </trkpt>
      <trkpt lat="43.91339" lon="5.17326">
        <ele>354.38</ele>
        <time>2011-05-02T09:52:54Z</time>
      </trkpt>
      <trkpt lat="43.91335" lon="5.17326">
        <ele>354.38</ele>
        <time>2011-05-02T09:52:58Z</time>
      </trkpt>
      <trkpt lat="43.91324" lon="5.17326">
        <ele>353.9</ele>
        <time>2011-05-02T09:53:13Z</time>
      </trkpt>
      <trkpt lat="43.91321" lon="5.17325">
        <ele>353.42</ele>
        <time>2011-05-02T09:53:16Z</time>
      </trkpt>
      <trkpt lat="43.91309" lon="5.17327">
        <ele>352.46</ele>
        <time>2011-05-02T09:53:26Z</time>
      </trkpt>
      <trkpt lat="43.91305" lon="5.1733">
        <ele>352.46</ele>
        <time>2011-05-02T09:53:32Z</time>
      </trkpt>
      <trkpt lat="43.91289" lon="5.17326">
        <ele>351.02</ele>
        <time>2011-05-02T09:53:47Z</time>
      </trkpt>
      <trkpt lat="43.91286" lon="5.17321">
        <ele>350.54</ele>
        <time>2011-05-02T09:53:52Z</time>
      </trkpt>
      <trkpt lat="43.91283" lon="5.17311">
        <ele>350.54</ele>
        <time>2011-05-02T09:54:00Z</time>
      </trkpt>
      <trkpt lat="43.91273" lon="5.17291">
        <ele>350.06</ele>
        <time>2011-05-02T09:54:17Z</time>
      </trkpt>
      <trkpt lat="43.91257" lon="5.17281">
        <ele>348.62</ele>
        <time>2011-05-02T09:54:32Z</time>
      </trkpt>
      <trkpt lat="43.91257" lon="5.17279">
        <ele>349.1</ele>
        <time>2011-05-02T09:54:33Z</time>
      </trkpt>
      <trkpt lat="43.91258" lon="5.17276">
        <ele>349.1</ele>
        <time>2011-05-02T09:54:45Z</time>
      </trkpt>
      <trkpt lat="43.91258" lon="5.17276">
        <ele>348.62</ele>
        <time>2011-05-02T09:55:17Z</time>
      </trkpt>
      <trkpt lat="43.91257" lon="5.17276">
        <ele>348.13</ele>
        <time>2011-05-02T09:55:48Z</time>
      </trkpt>
      <trkpt lat="43.91257" lon="5.17276">
        <ele>348.62</ele>
        <time>2011-05-02T09:56:09Z</time>
      </trkpt>
      <trkpt lat="43.91257" lon="5.17276">
        <ele>348.62</ele>
        <time>2011-05-02T09:56:29Z</time>
      </trkpt>
      <trkpt lat="43.91257" lon="5.17276">
        <ele>348.62</ele>
        <time>2011-05-02T09:56:34Z</time>
      </trkpt>
      <trkpt lat="43.91258" lon="5.17273">
        <ele>348.13</ele>
        <time>2011-05-02T09:56:36Z</time>
      </trkpt>
      <trkpt lat="43.91258" lon="5.17242">
        <ele>348.13</ele>
        <time>2011-05-02T09:56:54Z</time>
      </trkpt>
      <trkpt lat="43.91258" lon="5.1722">
        <ele>348.13</ele>
        <time>2011-05-02T09:57:07Z</time>
      </trkpt>
      <trkpt lat="43.91261" lon="5.17194">
        <ele>348.62</ele>
        <time>2011-05-02T09:57:23Z</time>
      </trkpt>
      <trkpt lat="43.91262" lon="5.17186">
        <ele>348.62</ele>
        <time>2011-05-02T09:57:28Z</time>
      </trkpt>
      <trkpt lat="43.91262" lon="5.17183">
        <ele>348.62</ele>
        <time>2011-05-02T09:57:30Z</time>
      </trkpt>
      <trkpt lat="43.91266" lon="5.17155">
        <ele>348.62</ele>
        <time>2011-05-02T09:57:47Z</time>
      </trkpt>
      <trkpt lat="43.91268" lon="5.17132">
        <ele>349.1</ele>
        <time>2011-05-02T09:58:01Z</time>
      </trkpt>
      <trkpt lat="43.9127" lon="5.17105">
        <ele>348.62</ele>
        <time>2011-05-02T09:58:16Z</time>
      </trkpt>
      <trkpt lat="43.9127" lon="5.17085">
        <ele>348.62</ele>
        <time>2011-05-02T09:58:28Z</time>
      </trkpt>
      <trkpt lat="43.9127" lon="5.17059">
        <ele>348.13</ele>
        <time>2011-05-02T09:58:43Z</time>
      </trkpt>
      <trkpt lat="43.9127" lon="5.17043">
        <ele>348.62</ele>
        <time>2011-05-02T09:58:53Z</time>
      </trkpt>
      <trkpt lat="43.9127" lon="5.17032">
        <ele>348.62</ele>
        <time>2011-05-02T09:58:59Z</time>
      </trkpt>
      <trkpt lat="43.9127" lon="5.17005">
        <ele>348.62</ele>
        <time>2011-05-02T09:59:15Z</time>
      </trkpt>
      <trkpt lat="43.91271" lon="5.16977">
        <ele>348.62</ele>
        <time>2011-05-02T09:59:31Z</time>
      </trkpt>
      <trkpt lat="43.91271" lon="5.16966">
        <ele>348.13</ele>
        <time>2011-05-02T09:59:38Z</time>
      </trkpt>
      <trkpt lat="43.91266" lon="5.1696">
        <ele>347.17</ele>
        <time>2011-05-02T09:59:53Z</time>
      </trkpt>
      <trkpt lat="43.91267" lon="5.16958">
        <ele>347.65</ele>
        <time>2011-05-02T09:59:56Z</time>
      </trkpt>
      <trkpt lat="43.91279" lon="5.16939">
        <ele>348.62</ele>
        <time>2011-05-02T10:00:12Z</time>
      </trkpt>
      <trkpt lat="43.91288" lon="5.16922">
        <ele>350.54</ele>
        <time>2011-05-02T10:00:28Z</time>
      </trkpt>
      <trkpt lat="43.91289" lon="5.16921">
        <ele>351.02</ele>
        <time>2011-05-02T10:00:29Z</time>
      </trkpt>
      <trkpt lat="43.91298" lon="5.16911">
        <ele>352.46</ele>
        <time>2011-05-02T10:00:40Z</time>
      </trkpt>
      <trkpt lat="43.9131" lon="5.16912">
        <ele>353.9</ele>
        <time>2011-05-02T10:00:52Z</time>
      </trkpt>
      <trkpt lat="43.91324" lon="5.1691">
        <ele>355.83</ele>
        <time>2011-05-02T10:01:08Z</time>
      </trkpt>
      <trkpt lat="43.91335" lon="5.16916">
        <ele>357.75</ele>
        <time>2011-05-02T10:01:22Z</time>
      </trkpt>
      <trkpt lat="43.91349" lon="5.16921">
        <ele>359.19</ele>
        <time>2011-05-02T10:01:38Z</time>
      </trkpt>
      <trkpt lat="43.91355" lon="5.16919">
        <ele>360.15</ele>
        <time>2011-05-02T10:01:45Z</time>
      </trkpt>
      <trkpt lat="43.91367" lon="5.16907">
        <ele>362.07</ele>
        <time>2011-05-02T10:02:02Z</time>
      </trkpt>
      <trkpt lat="43.91378" lon="5.169">
        <ele>363.52</ele>
        <time>2011-05-02T10:02:16Z</time>
      </trkpt>
      <trkpt lat="43.91379" lon="5.16898">
        <ele>363.52</ele>
        <time>2011-05-02T10:02:32Z</time>
      </trkpt>
      <trkpt lat="43.91379" lon="5.16899">
        <ele>363.52</ele>
        <time>2011-05-02T10:02:48Z</time>
      </trkpt>
      <trkpt lat="43.91379" lon="5.16899">
        <ele>363.52</ele>
        <time>2011-05-02T10:03:21Z</time>
      </trkpt>
      <trkpt lat="43.91379" lon="5.16899">
        <ele>363.52</ele>
        <time>2011-05-02T10:03:57Z</time>
      </trkpt>
      <trkpt lat="43.91379" lon="5.16899">
        <ele>363.04</ele>
        <time>2011-05-02T10:04:17Z</time>
      </trkpt>
      <trkpt lat="43.91379" lon="5.16899">
        <ele>363.52</ele>
        <time>2011-05-02T10:04:52Z</time>
      </trkpt>
      <trkpt lat="43.91379" lon="5.16899">
        <ele>363.04</ele>
        <time>2011-05-02T10:05:11Z</time>
      </trkpt>
      <trkpt lat="43.9138" lon="5.16899">
        <ele>363.04</ele>
        <time>2011-05-02T10:05:36Z</time>
      </trkpt>
      <trkpt lat="43.9138" lon="5.16899">
        <ele>363.52</ele>
        <time>2011-05-02T10:06:07Z</time>
      </trkpt>
      <trkpt lat="43.9138" lon="5.16899">
        <ele>363.04</ele>
        <time>2011-05-02T10:06:35Z</time>
      </trkpt>
      <trkpt lat="43.91379" lon="5.16899">
        <ele>363.04</ele>
        <time>2011-05-02T10:07:09Z</time>
      </trkpt>
      <trkpt lat="43.91379" lon="5.16899">
        <ele>363.04</ele>
        <time>2011-05-02T10:07:33Z</time>
      </trkpt>
      <trkpt lat="43.9138" lon="5.16899">
        <ele>363.52</ele>
        <time>2011-05-02T10:08:03Z</time>
      </trkpt>
      <trkpt lat="43.9138" lon="5.16899">
        <ele>363.52</ele>
        <time>2011-05-02T10:08:34Z</time>
      </trkpt>
      <trkpt lat="43.91379" lon="5.16899">
        <ele>362.07</ele>
        <time>2011-05-02T10:09:02Z</time>
      </trkpt>
      <trkpt lat="43.91379" lon="5.16898">
        <ele>363.04</ele>
        <time>2011-05-02T10:09:34Z</time>
      </trkpt>
      <trkpt lat="43.9138" lon="5.16901">
        <ele>364</ele>
        <time>2011-05-02T10:09:47Z</time>
      </trkpt>
      <trkpt lat="43.9138" lon="5.169">
        <ele>363.52</ele>
        <time>2011-05-02T10:09:48Z</time>
      </trkpt>
      <trkpt lat="43.91381" lon="5.16897">
        <ele>363.52</ele>
        <time>2011-05-02T10:09:50Z</time>
      </trkpt>
      <trkpt lat="43.91396" lon="5.16892">
        <ele>364.48</ele>
        <time>2011-05-02T10:10:06Z</time>
      </trkpt>
      <trkpt lat="43.9141" lon="5.16891">
        <ele>365.92</ele>
        <time>2011-05-02T10:10:21Z</time>
      </trkpt>
      <trkpt lat="43.91412" lon="5.16905">
        <ele>366.4</ele>
        <time>2011-05-02T10:10:30Z</time>
      </trkpt>
      <trkpt lat="43.91418" lon="5.16906">
        <ele>366.88</ele>
        <time>2011-05-02T10:10:44Z</time>
      </trkpt>
      <trkpt lat="43.91422" lon="5.16905">
        <ele>367.84</ele>
        <time>2011-05-02T10:10:48Z</time>
      </trkpt>
      <trkpt lat="43.91437" lon="5.16904">
        <ele>369.76</ele>
        <time>2011-05-02T10:11:05Z</time>
      </trkpt>
      <trkpt lat="43.91441" lon="5.16907">
        <ele>370.24</ele>
        <time>2011-05-02T10:11:10Z</time>
      </trkpt>
      <trkpt lat="43.91456" lon="5.16916">
        <ele>371.69</ele>
        <time>2011-05-02T10:11:26Z</time>
      </trkpt>
      <trkpt lat="43.91466" lon="5.16916">
        <ele>373.13</ele>
        <time>2011-05-02T10:11:39Z</time>
      </trkpt>
      <trkpt lat="43.91478" lon="5.16919">
        <ele>375.05</ele>
        <time>2011-05-02T10:11:55Z</time>
      </trkpt>
      <trkpt lat="43.9148" lon="5.16921">
        <ele>376.01</ele>
        <time>2011-05-02T10:12:00Z</time>
      </trkpt>
      <trkpt lat="43.91491" lon="5.16931">
        <ele>376.97</ele>
        <time>2011-05-02T10:12:15Z</time>
      </trkpt>
      <trkpt lat="43.91495" lon="5.16934">
        <ele>377.45</ele>
        <time>2011-05-02T10:12:21Z</time>
      </trkpt>
      <trkpt lat="43.91507" lon="5.16932">
        <ele>378.9</ele>
        <time>2011-05-02T10:12:36Z</time>
      </trkpt>
      <trkpt lat="43.9151" lon="5.16933">
        <ele>379.38</ele>
        <time>2011-05-02T10:12:39Z</time>
      </trkpt>
      <trkpt lat="43.91524" lon="5.16927">
        <ele>380.34</ele>
        <time>2011-05-02T10:12:53Z</time>
      </trkpt>
      <trkpt lat="43.91536" lon="5.16916">
        <ele>379.86</ele>
        <time>2011-05-02T10:13:08Z</time>
      </trkpt>
      <trkpt lat="43.9154" lon="5.16916">
        <ele>379.86</ele>
        <time>2011-05-02T10:13:12Z</time>
      </trkpt>
      <trkpt lat="43.91545" lon="5.16921">
        <ele>380.34</ele>
        <time>2011-05-02T10:13:18Z</time>
      </trkpt>
      <trkpt lat="43.91549" lon="5.16931">
        <ele>380.82</ele>
        <time>2011-05-02T10:13:27Z</time>
      </trkpt>
      <trkpt lat="43.9155" lon="5.1694">
        <ele>382.74</ele>
        <time>2011-05-02T10:13:41Z</time>
      </trkpt>
      <trkpt lat="43.91551" lon="5.16942">
        <ele>382.74</ele>
        <time>2011-05-02T10:14:01Z</time>
      </trkpt>
      <trkpt lat="43.91551" lon="5.16946">
        <ele>382.26</ele>
        <time>2011-05-02T10:14:04Z</time>
      </trkpt>
      <trkpt lat="43.9155" lon="5.16954">
        <ele>383.22</ele>
        <time>2011-05-02T10:14:10Z</time>
      </trkpt>
      <trkpt lat="43.91552" lon="5.16955">
        <ele>383.22</ele>
        <time>2011-05-02T10:14:12Z</time>
      </trkpt>
      <trkpt lat="43.91563" lon="5.16966">
        <ele>384.18</ele>
        <time>2011-05-02T10:14:25Z</time>
      </trkpt>
      <trkpt lat="43.91567" lon="5.16968">
        <ele>384.66</ele>
        <time>2011-05-02T10:14:28Z</time>
      </trkpt>
      <trkpt lat="43.91575" lon="5.16973">
        <ele>384.66</ele>
        <time>2011-05-02T10:14:36Z</time>
      </trkpt>
      <trkpt lat="43.91577" lon="5.16976">
        <ele>385.15</ele>
        <time>2011-05-02T10:14:38Z</time>
      </trkpt>
      <trkpt lat="43.91589" lon="5.16988">
        <ele>385.63</ele>
        <time>2011-05-02T10:14:52Z</time>
      </trkpt>
      <trkpt lat="43.91592" lon="5.16993">
        <ele>385.63</ele>
        <time>2011-05-02T10:14:57Z</time>
      </trkpt>
      <trkpt lat="43.916" lon="5.17006">
        <ele>387.07</ele>
        <time>2011-05-02T10:15:10Z</time>
      </trkpt>
      <trkpt lat="43.9161" lon="5.17026">
        <ele>388.03</ele>
        <time>2011-05-02T10:15:25Z</time>
      </trkpt>
      <trkpt lat="43.91612" lon="5.1703">
        <ele>388.03</ele>
        <time>2011-05-02T10:15:28Z</time>
      </trkpt>
      <trkpt lat="43.91616" lon="5.17037">
        <ele>388.51</ele>
        <time>2011-05-02T10:15:34Z</time>
      </trkpt>
      <trkpt lat="43.91632" lon="5.17047">
        <ele>388.99</ele>
        <time>2011-05-02T10:15:49Z</time>
      </trkpt>
      <trkpt lat="43.91633" lon="5.17051">
        <ele>389.47</ele>
        <time>2011-05-02T10:16:04Z</time>
      </trkpt>
      <trkpt lat="43.91637" lon="5.17053">
        <ele>389.47</ele>
        <time>2011-05-02T10:16:16Z</time>
      </trkpt>
      <trkpt lat="43.91639" lon="5.17052">
        <ele>389.47</ele>
        <time>2011-05-02T10:16:18Z</time>
      </trkpt>
      <trkpt lat="43.91642" lon="5.17051">
        <ele>389.95</ele>
        <time>2011-05-02T10:16:21Z</time>
      </trkpt>
      <trkpt lat="43.91647" lon="5.17046">
        <ele>390.43</ele>
        <time>2011-05-02T10:16:28Z</time>
      </trkpt>
      <trkpt lat="43.9166" lon="5.17046">
        <ele>391.87</ele>
        <time>2011-05-02T10:16:42Z</time>
      </trkpt>
      <trkpt lat="43.91671" lon="5.17045">
        <ele>393.32</ele>
        <time>2011-05-02T10:16:54Z</time>
      </trkpt>
      <trkpt lat="43.91674" lon="5.17039">
        <ele>394.28</ele>
        <time>2011-05-02T10:16:59Z</time>
      </trkpt>
      <trkpt lat="43.91679" lon="5.17037">
        <ele>394.28</ele>
        <time>2011-05-02T10:17:04Z</time>
      </trkpt>
      <trkpt lat="43.91688" lon="5.17026">
        <ele>396.68</ele>
        <time>2011-05-02T10:17:19Z</time>
      </trkpt>
      <trkpt lat="43.917" lon="5.17016">
        <ele>398.6</ele>
        <time>2011-05-02T10:17:35Z</time>
      </trkpt>
      <trkpt lat="43.9171" lon="5.17009">
        <ele>399.57</ele>
        <time>2011-05-02T10:17:49Z</time>
      </trkpt>
      <trkpt lat="43.91721" lon="5.16998">
        <ele>401.97</ele>
        <time>2011-05-02T10:18:04Z</time>
      </trkpt>
      <trkpt lat="43.91734" lon="5.16992">
        <ele>403.41</ele>
        <time>2011-05-02T10:18:20Z</time>
      </trkpt>
      <trkpt lat="43.91745" lon="5.16983">
        <ele>404.85</ele>
        <time>2011-05-02T10:18:35Z</time>
      </trkpt>
      <trkpt lat="43.91752" lon="5.16974">
        <ele>406.29</ele>
        <time>2011-05-02T10:18:47Z</time>
      </trkpt>
      <trkpt lat="43.91763" lon="5.16967">
        <ele>407.74</ele>
        <time>2011-05-02T10:19:02Z</time>
      </trkpt>
      <trkpt lat="43.91769" lon="5.16961">
        <ele>408.22</ele>
        <time>2011-05-02T10:19:16Z</time>
      </trkpt>
      <trkpt lat="43.91773" lon="5.16958">
        <ele>409.66</ele>
        <time>2011-05-02T10:19:24Z</time>
      </trkpt>
      <trkpt lat="43.91778" lon="5.16954">
        <ele>409.66</ele>
        <time>2011-05-02T10:19:31Z</time>
      </trkpt>
      <trkpt lat="43.91781" lon="5.16951">
        <ele>410.14</ele>
        <time>2011-05-02T10:19:36Z</time>
      </trkpt>
      <trkpt lat="43.91786" lon="5.16944">
        <ele>411.58</ele>
        <time>2011-05-02T10:19:44Z</time>
      </trkpt>
      <trkpt lat="43.91798" lon="5.1694">
        <ele>413.5</ele>
        <time>2011-05-02T10:20:00Z</time>
      </trkpt>
      <trkpt lat="43.9181" lon="5.16932">
        <ele>414.47</ele>
        <time>2011-05-02T10:20:15Z</time>
      </trkpt>
      <trkpt lat="43.91813" lon="5.16931">
        <ele>415.91</ele>
        <time>2011-05-02T10:20:19Z</time>
      </trkpt>
      <trkpt lat="43.91826" lon="5.16932">
        <ele>417.35</ele>
        <time>2011-05-02T10:20:35Z</time>
      </trkpt>
      <trkpt lat="43.91839" lon="5.16931">
        <ele>418.79</ele>
        <time>2011-05-02T10:20:50Z</time>
      </trkpt>
      <trkpt lat="43.91851" lon="5.16928">
        <ele>420.71</ele>
        <time>2011-05-02T10:21:05Z</time>
      </trkpt>
      <trkpt lat="43.91859" lon="5.16921">
        <ele>421.68</ele>
        <time>2011-05-02T10:21:17Z</time>
      </trkpt>
      <trkpt lat="43.9187" lon="5.16919">
        <ele>423.6</ele>
        <time>2011-05-02T10:21:32Z</time>
      </trkpt>
      <trkpt lat="43.9188" lon="5.16917">
        <ele>424.56</ele>
        <time>2011-05-02T10:21:45Z</time>
      </trkpt>
      <trkpt lat="43.9189" lon="5.16911">
        <ele>426.48</ele>
        <time>2011-05-02T10:21:59Z</time>
      </trkpt>
      <trkpt lat="43.91901" lon="5.16903">
        <ele>427.92</ele>
        <time>2011-05-02T10:22:15Z</time>
      </trkpt>
      <trkpt lat="43.91903" lon="5.16902">
        <ele>427.92</ele>
        <time>2011-05-02T10:22:18Z</time>
      </trkpt>
      <trkpt lat="43.91913" lon="5.16893">
        <ele>429.37</ele>
        <time>2011-05-02T10:22:34Z</time>
      </trkpt>
      <trkpt lat="43.9192" lon="5.16883">
        <ele>431.29</ele>
        <time>2011-05-02T10:22:48Z</time>
      </trkpt>
      <trkpt lat="43.91928" lon="5.16872">
        <ele>432.73</ele>
        <time>2011-05-02T10:23:01Z</time>
      </trkpt>
      <trkpt lat="43.91933" lon="5.1686">
        <ele>433.69</ele>
        <time>2011-05-02T10:23:15Z</time>
      </trkpt>
      <trkpt lat="43.91933" lon="5.1686">
        <ele>433.21</ele>
        <time>2011-05-02T10:23:37Z</time>
      </trkpt>
      <trkpt lat="43.91933" lon="5.1686">
        <ele>433.69</ele>
        <time>2011-05-02T10:23:51Z</time>
      </trkpt>
      <trkpt lat="43.91933" lon="5.1686">
        <ele>432.73</ele>
        <time>2011-05-02T10:24:12Z</time>
      </trkpt>
      <trkpt lat="43.91933" lon="5.1686">
        <ele>432.25</ele>
        <time>2011-05-02T10:24:44Z</time>
      </trkpt>
      <trkpt lat="43.91933" lon="5.1686">
        <ele>433.21</ele>
        <time>2011-05-02T10:25:15Z</time>
      </trkpt>
      <trkpt lat="43.91933" lon="5.1686">
        <ele>433.21</ele>
        <time>2011-05-02T10:25:46Z</time>
      </trkpt>
      <trkpt lat="43.91933" lon="5.1686">
        <ele>432.73</ele>
        <time>2011-05-02T10:26:18Z</time>
      </trkpt>
      <trkpt lat="43.91933" lon="5.16859">
        <ele>433.21</ele>
        <time>2011-05-02T10:26:46Z</time>
      </trkpt>
      <trkpt lat="43.91933" lon="5.16859">
        <ele>433.21</ele>
        <time>2011-05-02T10:27:16Z</time>
      </trkpt>
      <trkpt lat="43.91933" lon="5.16859">
        <ele>433.21</ele>
        <time>2011-05-02T10:27:36Z</time>
      </trkpt>
      <trkpt lat="43.91933" lon="5.16859">
        <ele>433.69</ele>
        <time>2011-05-02T10:27:52Z</time>
      </trkpt>
      <trkpt lat="43.91933" lon="5.16858">
        <ele>433.69</ele>
        <time>2011-05-02T10:28:11Z</time>
      </trkpt>
      <trkpt lat="43.91933" lon="5.16858">
        <ele>434.17</ele>
        <time>2011-05-02T10:28:45Z</time>
      </trkpt>
      <trkpt lat="43.91933" lon="5.16858">
        <ele>433.69</ele>
        <time>2011-05-02T10:29:17Z</time>
      </trkpt>
      <trkpt lat="43.91933" lon="5.16858">
        <ele>433.69</ele>
        <time>2011-05-02T10:29:46Z</time>
      </trkpt>
      <trkpt lat="43.91933" lon="5.16858">
        <ele>429.37</ele>
        <time>2011-05-02T10:30:10Z</time>
      </trkpt>
      <trkpt lat="43.91933" lon="5.16858">
        <ele>433.69</ele>
        <time>2011-05-02T10:30:11Z</time>
      </trkpt>
      <trkpt lat="43.91933" lon="5.16859">
        <ele>432.73</ele>
        <time>2011-05-02T10:30:40Z</time>
      </trkpt>
      <trkpt lat="43.91933" lon="5.16859">
        <ele>432.73</ele>
        <time>2011-05-02T10:31:09Z</time>
      </trkpt>
      <trkpt lat="43.91933" lon="5.16859">
        <ele>433.21</ele>
        <time>2011-05-02T10:31:50Z</time>
      </trkpt>
      <trkpt lat="43.91934" lon="5.1686">
        <ele>432.73</ele>
        <time>2011-05-02T10:32:26Z</time>
      </trkpt>
      <trkpt lat="43.91934" lon="5.16859">
        <ele>433.21</ele>
        <time>2011-05-02T10:32:51Z</time>
      </trkpt>
      <trkpt lat="43.91934" lon="5.16859">
        <ele>434.17</ele>
        <time>2011-05-02T10:33:10Z</time>
      </trkpt>
      <trkpt lat="43.91934" lon="5.16859">
        <ele>434.17</ele>
        <time>2011-05-02T10:33:28Z</time>
      </trkpt>
      <trkpt lat="43.91934" lon="5.16857">
        <ele>433.69</ele>
        <time>2011-05-02T10:33:40Z</time>
      </trkpt>
      <trkpt lat="43.91932" lon="5.16855">
        <ele>433.69</ele>
        <time>2011-05-02T10:33:45Z</time>
      </trkpt>
      <trkpt lat="43.91925" lon="5.16855">
        <ele>432.25</ele>
        <time>2011-05-02T10:33:51Z</time>
      </trkpt>
      <trkpt lat="43.91913" lon="5.16857">
        <ele>430.81</ele>
        <time>2011-05-02T10:34:03Z</time>
      </trkpt>
      <trkpt lat="43.91903" lon="5.16858">
        <ele>429.37</ele>
        <time>2011-05-02T10:34:13Z</time>
      </trkpt>
      <trkpt lat="43.919" lon="5.16855">
        <ele>428.4</ele>
        <time>2011-05-02T10:34:17Z</time>
      </trkpt>
      <trkpt lat="43.91888" lon="5.16851">
        <ele>426</ele>
        <time>2011-05-02T10:34:29Z</time>
      </trkpt>
      <trkpt lat="43.91887" lon="5.1685">
        <ele>425.52</ele>
        <time>2011-05-02T10:34:31Z</time>
      </trkpt>
      <trkpt lat="43.91873" lon="5.16847">
        <ele>423.12</ele>
        <time>2011-05-02T10:34:44Z</time>
      </trkpt>
      <trkpt lat="43.91859" lon="5.16839">
        <ele>419.75</ele>
        <time>2011-05-02T10:35:00Z</time>
      </trkpt>
      <trkpt lat="43.91846" lon="5.16829">
        <ele>416.87</ele>
        <time>2011-05-02T10:35:15Z</time>
      </trkpt>
      <trkpt lat="43.91838" lon="5.16824">
        <ele>414.95</ele>
        <time>2011-05-02T10:35:23Z</time>
      </trkpt>
      <trkpt lat="43.91832" lon="5.16824">
        <ele>413.98</ele>
        <time>2011-05-02T10:35:29Z</time>
      </trkpt>
      <trkpt lat="43.91829" lon="5.16823">
        <ele>413.98</ele>
        <time>2011-05-02T10:35:32Z</time>
      </trkpt>
      <trkpt lat="43.9182" lon="5.16821">
        <ele>412.54</ele>
        <time>2011-05-02T10:35:40Z</time>
      </trkpt>
      <trkpt lat="43.91804" lon="5.16813">
        <ele>409.66</ele>
        <time>2011-05-02T10:35:57Z</time>
      </trkpt>
      <trkpt lat="43.91787" lon="5.16807">
        <ele>407.26</ele>
        <time>2011-05-02T10:36:12Z</time>
      </trkpt>
      <trkpt lat="43.91771" lon="5.16798">
        <ele>404.37</ele>
        <time>2011-05-02T10:36:29Z</time>
      </trkpt>
      <trkpt lat="43.91766" lon="5.16797">
        <ele>403.41</ele>
        <time>2011-05-02T10:36:35Z</time>
      </trkpt>
      <trkpt lat="43.9175" lon="5.16791">
        <ele>401.49</ele>
        <time>2011-05-02T10:36:50Z</time>
      </trkpt>
      <trkpt lat="43.91735" lon="5.16787">
        <ele>399.08</ele>
        <time>2011-05-02T10:37:03Z</time>
      </trkpt>
      <trkpt lat="43.9172" lon="5.16784">
        <ele>396.2</ele>
        <time>2011-05-02T10:37:17Z</time>
      </trkpt>
      <trkpt lat="43.917" lon="5.16774">
        <ele>394.28</ele>
        <time>2011-05-02T10:37:34Z</time>
      </trkpt>
      <trkpt lat="43.91692" lon="5.16768">
        <ele>392.36</ele>
        <time>2011-05-02T10:37:41Z</time>
      </trkpt>
      <trkpt lat="43.91686" lon="5.16761">
        <ele>392.36</ele>
        <time>2011-05-02T10:37:48Z</time>
      </trkpt>
      <trkpt lat="43.91672" lon="5.16743">
        <ele>391.39</ele>
        <time>2011-05-02T10:38:03Z</time>
      </trkpt>
      <trkpt lat="43.91663" lon="5.16727">
        <ele>390.43</ele>
        <time>2011-05-02T10:38:16Z</time>
      </trkpt>
      <trkpt lat="43.91652" lon="5.16707">
        <ele>388.03</ele>
        <time>2011-05-02T10:38:33Z</time>
      </trkpt>
      <trkpt lat="43.9165" lon="5.16687">
        <ele>387.07</ele>
        <time>2011-05-02T10:38:45Z</time>
      </trkpt>
      <trkpt lat="43.91652" lon="5.16664">
        <ele>385.63</ele>
        <time>2011-05-02T10:39:00Z</time>
      </trkpt>
      <trkpt lat="43.91651" lon="5.16642">
        <ele>384.18</ele>
        <time>2011-05-02T10:39:14Z</time>
      </trkpt>
      <trkpt lat="43.9165" lon="5.16615">
        <ele>381.78</ele>
        <time>2011-05-02T10:39:30Z</time>
      </trkpt>
      <trkpt lat="43.9165" lon="5.16598">
        <ele>381.3</ele>
        <time>2011-05-02T10:39:41Z</time>
      </trkpt>
      <trkpt lat="43.91649" lon="5.16596">
        <ele>380.34</ele>
        <time>2011-05-02T10:39:43Z</time>
      </trkpt>
      <trkpt lat="43.91651" lon="5.1658">
        <ele>379.86</ele>
        <time>2011-05-02T10:39:52Z</time>
      </trkpt>
      <trkpt lat="43.9165" lon="5.16572">
        <ele>378.9</ele>
        <time>2011-05-02T10:39:57Z</time>
      </trkpt>
      <trkpt lat="43.91649" lon="5.16564">
        <ele>377.94</ele>
        <time>2011-05-02T10:40:02Z</time>
      </trkpt>
      <trkpt lat="43.91647" lon="5.1655">
        <ele>376.97</ele>
        <time>2011-05-02T10:40:11Z</time>
      </trkpt>
      <trkpt lat="43.91655" lon="5.16538">
        <ele>377.94</ele>
        <time>2011-05-02T10:40:27Z</time>
      </trkpt>
      <trkpt lat="43.91657" lon="5.16538">
        <ele>377.94</ele>
        <time>2011-05-02T10:40:49Z</time>
      </trkpt>
      <trkpt lat="43.91657" lon="5.16538">
        <ele>376.97</ele>
        <time>2011-05-02T10:41:06Z</time>
      </trkpt>
      <trkpt lat="43.91658" lon="5.16538">
        <ele>376.97</ele>
        <time>2011-05-02T10:41:23Z</time>
      </trkpt>
      <trkpt lat="43.91658" lon="5.16538">
        <ele>377.45</ele>
        <time>2011-05-02T10:41:53Z</time>
      </trkpt>
      <trkpt lat="43.91658" lon="5.16538">
        <ele>376.97</ele>
        <time>2011-05-02T10:42:26Z</time>
      </trkpt>
      <trkpt lat="43.91658" lon="5.16538">
        <ele>376.97</ele>
        <time>2011-05-02T10:43:06Z</time>
      </trkpt>
      <trkpt lat="43.91658" lon="5.16538">
        <ele>376.97</ele>
        <time>2011-05-02T10:43:48Z</time>
      </trkpt>
      <trkpt lat="43.91658" lon="5.16538">
        <ele>376.97</ele>
        <time>2011-05-02T10:44:20Z</time>
      </trkpt>
      <trkpt lat="43.91658" lon="5.16537">
        <ele>377.45</ele>
        <time>2011-05-02T10:45:02Z</time>
      </trkpt>
      <trkpt lat="43.91658" lon="5.16538">
        <ele>376.49</ele>
        <time>2011-05-02T10:45:38Z</time>
      </trkpt>
      <trkpt lat="43.91658" lon="5.16538">
        <ele>376.49</ele>
        <time>2011-05-02T10:46:15Z</time>
      </trkpt>
      <trkpt lat="43.91657" lon="5.16538">
        <ele>376.49</ele>
        <time>2011-05-02T10:46:47Z</time>
      </trkpt>
      <trkpt lat="43.91656" lon="5.16539">
        <ele>376.97</ele>
        <time>2011-05-02T10:47:07Z</time>
      </trkpt>
      <trkpt lat="43.91656" lon="5.16539">
        <ele>376.97</ele>
        <time>2011-05-02T10:47:36Z</time>
      </trkpt>
      <trkpt lat="43.91658" lon="5.16539">
        <ele>376.97</ele>
        <time>2011-05-02T10:47:57Z</time>
      </trkpt>
      <trkpt lat="43.91658" lon="5.16538">
        <ele>376.01</ele>
        <time>2011-05-02T10:48:09Z</time>
      </trkpt>
      <trkpt lat="43.91658" lon="5.16538">
        <ele>376.01</ele>
        <time>2011-05-02T10:48:42Z</time>
      </trkpt>
      <trkpt lat="43.91658" lon="5.16538">
        <ele>375.53</ele>
        <time>2011-05-02T10:49:19Z</time>
      </trkpt>
      <trkpt lat="43.91659" lon="5.16538">
        <ele>376.01</ele>
        <time>2011-05-02T10:49:55Z</time>
      </trkpt>
      <trkpt lat="43.91659" lon="5.16538">
        <ele>376.01</ele>
        <time>2011-05-02T10:50:24Z</time>
      </trkpt>
      <trkpt lat="43.9166" lon="5.16538">
        <ele>375.05</ele>
        <time>2011-05-02T10:50:52Z</time>
      </trkpt>
      <trkpt lat="43.91659" lon="5.16538">
        <ele>375.53</ele>
        <time>2011-05-02T10:51:26Z</time>
      </trkpt>
      <trkpt lat="43.91659" lon="5.16538">
        <ele>375.53</ele>
        <time>2011-05-02T10:51:56Z</time>
      </trkpt>
      <trkpt lat="43.91659" lon="5.16538">
        <ele>375.53</ele>
        <time>2011-05-02T10:52:29Z</time>
      </trkpt>
      <trkpt lat="43.91658" lon="5.16537">
        <ele>375.05</ele>
        <time>2011-05-02T10:53:10Z</time>
      </trkpt>
      <trkpt lat="43.91658" lon="5.16538">
        <ele>375.53</ele>
        <time>2011-05-02T10:53:49Z</time>
      </trkpt>
      <trkpt lat="43.91658" lon="5.16538">
        <ele>375.05</ele>
        <time>2011-05-02T10:54:21Z</time>
      </trkpt>
      <trkpt lat="43.91658" lon="5.16538">
        <ele>374.57</ele>
        <time>2011-05-02T10:54:58Z</time>
      </trkpt>
      <trkpt lat="43.91658" lon="5.16539">
        <ele>375.05</ele>
        <time>2011-05-02T10:55:32Z</time>
      </trkpt>
      <trkpt lat="43.91658" lon="5.16538">
        <ele>375.05</ele>
        <time>2011-05-02T10:56:08Z</time>
      </trkpt>
      <trkpt lat="43.91658" lon="5.16538">
        <ele>375.05</ele>
        <time>2011-05-02T10:56:44Z</time>
      </trkpt>
      <trkpt lat="43.91658" lon="5.16539">
        <ele>375.05</ele>
        <time>2011-05-02T10:57:23Z</time>
      </trkpt>
      <trkpt lat="43.91658" lon="5.16539">
        <ele>374.57</ele>
        <time>2011-05-02T10:57:58Z</time>
      </trkpt>
      <trkpt lat="43.91658" lon="5.16539">
        <ele>374.09</ele>
        <time>2011-05-02T10:58:34Z</time>
      </trkpt>
      <trkpt lat="43.91658" lon="5.1654">
        <ele>373.13</ele>
        <time>2011-05-02T10:59:15Z</time>
      </trkpt>
      <trkpt lat="43.91658" lon="5.16539">
        <ele>373.61</ele>
        <time>2011-05-02T10:59:51Z</time>
      </trkpt>
      <trkpt lat="43.91658" lon="5.16539">
        <ele>373.61</ele>
        <time>2011-05-02T11:00:23Z</time>
      </trkpt>
      <trkpt lat="43.91658" lon="5.16538">
        <ele>373.61</ele>
        <time>2011-05-02T11:00:54Z</time>
      </trkpt>
      <trkpt lat="43.91658" lon="5.16539">
        <ele>374.09</ele>
        <time>2011-05-02T11:01:27Z</time>
      </trkpt>
      <trkpt lat="43.91658" lon="5.16539">
        <ele>373.61</ele>
        <time>2011-05-02T11:01:49Z</time>
      </trkpt>
      <trkpt lat="43.91658" lon="5.16539">
        <ele>373.13</ele>
        <time>2011-05-02T11:02:21Z</time>
      </trkpt>
      <trkpt lat="43.91658" lon="5.16539">
        <ele>373.13</ele>
        <time>2011-05-02T11:02:58Z</time>
      </trkpt>
      <trkpt lat="43.91659" lon="5.16538">
        <ele>374.09</ele>
        <time>2011-05-02T11:03:14Z</time>
      </trkpt>
      <trkpt lat="43.91658" lon="5.16538">
        <ele>374.09</ele>
        <time>2011-05-02T11:03:30Z</time>
      </trkpt>
      <trkpt lat="43.91658" lon="5.16538">
        <ele>373.61</ele>
        <time>2011-05-02T11:03:53Z</time>
      </trkpt>
      <trkpt lat="43.91664" lon="5.16536">
        <ele>375.05</ele>
        <time>2011-05-02T11:04:09Z</time>
      </trkpt>
      <trkpt lat="43.91676" lon="5.16532">
        <ele>376.97</ele>
        <time>2011-05-02T11:04:24Z</time>
      </trkpt>
      <trkpt lat="43.91687" lon="5.16531">
        <ele>378.42</ele>
        <time>2011-05-02T11:04:37Z</time>
      </trkpt>
      <trkpt lat="43.91695" lon="5.16522">
        <ele>380.34</ele>
        <time>2011-05-02T11:04:51Z</time>
      </trkpt>
      <trkpt lat="43.91698" lon="5.16516">
        <ele>381.3</ele>
        <time>2011-05-02T11:05:06Z</time>
      </trkpt>
      <trkpt lat="43.91696" lon="5.16516">
        <ele>380.82</ele>
        <time>2011-05-02T11:05:21Z</time>
      </trkpt>
      <trkpt lat="43.917" lon="5.16514">
        <ele>381.78</ele>
        <time>2011-05-02T11:05:40Z</time>
      </trkpt>
      <trkpt lat="43.91708" lon="5.16508">
        <ele>383.7</ele>
        <time>2011-05-02T11:05:53Z</time>
      </trkpt>
      <trkpt lat="43.91711" lon="5.16504">
        <ele>384.18</ele>
        <time>2011-05-02T11:06:07Z</time>
      </trkpt>
      <trkpt lat="43.91716" lon="5.16507">
        <ele>384.66</ele>
        <time>2011-05-02T11:06:26Z</time>
      </trkpt>
      <trkpt lat="43.91716" lon="5.16507">
        <ele>384.66</ele>
        <time>2011-05-02T11:06:45Z</time>
      </trkpt>
      <trkpt lat="43.91716" lon="5.16507">
        <ele>384.18</ele>
        <time>2011-05-02T11:07:05Z</time>
      </trkpt>
      <trkpt lat="43.91716" lon="5.16507">
        <ele>384.18</ele>
        <time>2011-05-02T11:07:22Z</time>
      </trkpt>
      <trkpt lat="43.91716" lon="5.16507">
        <ele>383.7</ele>
        <time>2011-05-02T11:07:49Z</time>
      </trkpt>
      <trkpt lat="43.91716" lon="5.16507">
        <ele>384.18</ele>
        <time>2011-05-02T11:08:24Z</time>
      </trkpt>
      <trkpt lat="43.91716" lon="5.16507">
        <ele>383.22</ele>
        <time>2011-05-02T11:08:59Z</time>
      </trkpt>
      <trkpt lat="43.91716" lon="5.16507">
        <ele>383.7</ele>
        <time>2011-05-02T11:09:34Z</time>
      </trkpt>
      <trkpt lat="43.91716" lon="5.16506">
        <ele>384.18</ele>
        <time>2011-05-02T11:10:10Z</time>
      </trkpt>
      <trkpt lat="43.91716" lon="5.16506">
        <ele>383.7</ele>
        <time>2011-05-02T11:10:46Z</time>
      </trkpt>
      <trkpt lat="43.91716" lon="5.16506">
        <ele>383.7</ele>
        <time>2011-05-02T11:11:20Z</time>
      </trkpt>
      <trkpt lat="43.91716" lon="5.16506">
        <ele>383.7</ele>
        <time>2011-05-02T11:11:50Z</time>
      </trkpt>
      <trkpt lat="43.91716" lon="5.16506">
        <ele>383.7</ele>
        <time>2011-05-02T11:12:20Z</time>
      </trkpt>
      <trkpt lat="43.91717" lon="5.16506">
        <ele>384.18</ele>
        <time>2011-05-02T11:12:47Z</time>
      </trkpt>
      <trkpt lat="43.91718" lon="5.16506">
        <ele>384.18</ele>
        <time>2011-05-02T11:13:03Z</time>
      </trkpt>
      <trkpt lat="43.91715" lon="5.16505">
        <ele>384.66</ele>
        <time>2011-05-02T11:13:22Z</time>
      </trkpt>
      <trkpt lat="43.91719" lon="5.165">
        <ele>385.15</ele>
        <time>2011-05-02T11:13:34Z</time>
      </trkpt>
      <trkpt lat="43.91733" lon="5.16495">
        <ele>388.03</ele>
        <time>2011-05-02T11:13:52Z</time>
      </trkpt>
      <trkpt lat="43.91745" lon="5.16494">
        <ele>390.43</ele>
        <time>2011-05-02T11:14:07Z</time>
      </trkpt>
      <trkpt lat="43.91756" lon="5.16496">
        <ele>392.36</ele>
        <time>2011-05-02T11:14:22Z</time>
      </trkpt>
      <trkpt lat="43.91765" lon="5.16498">
        <ele>393.8</ele>
        <time>2011-05-02T11:14:37Z</time>
      </trkpt>
      <trkpt lat="43.91775" lon="5.16501">
        <ele>395.72</ele>
        <time>2011-05-02T11:14:52Z</time>
      </trkpt>
      <trkpt lat="43.91786" lon="5.165">
        <ele>398.6</ele>
        <time>2011-05-02T11:15:09Z</time>
      </trkpt>
      <trkpt lat="43.9179" lon="5.16498">
        <ele>399.08</ele>
        <time>2011-05-02T11:15:14Z</time>
      </trkpt>
      <trkpt lat="43.91804" lon="5.16491">
        <ele>401.49</ele>
        <time>2011-05-02T11:15:32Z</time>
      </trkpt>
      <trkpt lat="43.91818" lon="5.16492">
        <ele>403.89</ele>
        <time>2011-05-02T11:15:49Z</time>
      </trkpt>
      <trkpt lat="43.91829" lon="5.16489">
        <ele>404.37</ele>
        <time>2011-05-02T11:16:02Z</time>
      </trkpt>
      <trkpt lat="43.91843" lon="5.16494">
        <ele>406.29</ele>
        <time>2011-05-02T11:16:19Z</time>
      </trkpt>
      <trkpt lat="43.91855" lon="5.16497">
        <ele>406.77</ele>
        <time>2011-05-02T11:16:31Z</time>
      </trkpt>
      <trkpt lat="43.91858" lon="5.16499">
        <ele>406.77</ele>
        <time>2011-05-02T11:16:34Z</time>
      </trkpt>
      <trkpt lat="43.91872" lon="5.16503">
        <ele>404.37</ele>
        <time>2011-05-02T11:16:50Z</time>
      </trkpt>
      <trkpt lat="43.91882" lon="5.16503">
        <ele>401.49</ele>
        <time>2011-05-02T11:17:04Z</time>
      </trkpt>
      <trkpt lat="43.91886" lon="5.16502">
        <ele>400.53</ele>
        <time>2011-05-02T11:17:16Z</time>
      </trkpt>
      <trkpt lat="43.91893" lon="5.165">
        <ele>398.12</ele>
        <time>2011-05-02T11:17:30Z</time>
      </trkpt>
      <trkpt lat="43.91898" lon="5.16501">
        <ele>395.72</ele>
        <time>2011-05-02T11:17:42Z</time>
      </trkpt>
      <trkpt lat="43.91905" lon="5.16501">
        <ele>393.32</ele>
        <time>2011-05-02T11:17:55Z</time>
      </trkpt>
      <trkpt lat="43.91911" lon="5.16502">
        <ele>390.91</ele>
        <time>2011-05-02T11:18:09Z</time>
      </trkpt>
      <trkpt lat="43.91916" lon="5.16503">
        <ele>388.99</ele>
        <time>2011-05-02T11:18:23Z</time>
      </trkpt>
      <trkpt lat="43.91919" lon="5.16502">
        <ele>388.03</ele>
        <time>2011-05-02T11:18:30Z</time>
      </trkpt>
      <trkpt lat="43.91922" lon="5.165">
        <ele>386.11</ele>
        <time>2011-05-02T11:18:40Z</time>
      </trkpt>
      <trkpt lat="43.91925" lon="5.16499">
        <ele>385.63</ele>
        <time>2011-05-02T11:18:43Z</time>
      </trkpt>
      <trkpt lat="43.91929" lon="5.16498">
        <ele>385.15</ele>
        <time>2011-05-02T11:18:48Z</time>
      </trkpt>
      <trkpt lat="43.9194" lon="5.16493">
        <ele>382.74</ele>
        <time>2011-05-02T11:19:03Z</time>
      </trkpt>
      <trkpt lat="43.9195" lon="5.16488">
        <ele>380.34</ele>
        <time>2011-05-02T11:19:15Z</time>
      </trkpt>
      <trkpt lat="43.91958" lon="5.16488">
        <ele>378.9</ele>
        <time>2011-05-02T11:19:28Z</time>
      </trkpt>
      <trkpt lat="43.91962" lon="5.16483">
        <ele>377.94</ele>
        <time>2011-05-02T11:19:47Z</time>
      </trkpt>
      <trkpt lat="43.91967" lon="5.16476">
        <ele>374.57</ele>
        <time>2011-05-02T11:20:00Z</time>
      </trkpt>
      <trkpt lat="43.91977" lon="5.1647">
        <ele>372.17</ele>
        <time>2011-05-02T11:20:14Z</time>
      </trkpt>
      <trkpt lat="43.91987" lon="5.16466">
        <ele>373.13</ele>
        <time>2011-05-02T11:20:28Z</time>
      </trkpt>
      <trkpt lat="43.91994" lon="5.16461">
        <ele>373.61</ele>
        <time>2011-05-02T11:20:43Z</time>
      </trkpt>
      <trkpt lat="43.91996" lon="5.16461">
        <ele>373.61</ele>
        <time>2011-05-02T11:21:02Z</time>
      </trkpt>
      <trkpt lat="43.92016" lon="5.16463">
        <ele>375.05</ele>
        <time>2011-05-02T11:21:18Z</time>
      </trkpt>
      <trkpt lat="43.92028" lon="5.16468">
        <ele>375.53</ele>
        <time>2011-05-02T11:21:29Z</time>
      </trkpt>
      <trkpt lat="43.92044" lon="5.16464">
        <ele>376.49</ele>
        <time>2011-05-02T11:21:42Z</time>
      </trkpt>
      <trkpt lat="43.92057" lon="5.16454">
        <ele>377.45</ele>
        <time>2011-05-02T11:21:57Z</time>
      </trkpt>
      <trkpt lat="43.92068" lon="5.16444">
        <ele>378.42</ele>
        <time>2011-05-02T11:22:11Z</time>
      </trkpt>
      <trkpt lat="43.92068" lon="5.16444">
        <ele>378.42</ele>
        <time>2011-05-02T11:22:12Z</time>
      </trkpt>
      <trkpt lat="43.92078" lon="5.16426">
        <ele>379.38</ele>
        <time>2011-05-02T11:22:25Z</time>
      </trkpt>
      <trkpt lat="43.92093" lon="5.16416">
        <ele>380.34</ele>
        <time>2011-05-02T11:22:38Z</time>
      </trkpt>
      <trkpt lat="43.92106" lon="5.16413">
        <ele>381.78</ele>
        <time>2011-05-02T11:22:52Z</time>
      </trkpt>
      <trkpt lat="43.9212" lon="5.16416">
        <ele>383.22</ele>
        <time>2011-05-02T11:23:08Z</time>
      </trkpt>
      <trkpt lat="43.92133" lon="5.16423">
        <ele>384.18</ele>
        <time>2011-05-02T11:23:22Z</time>
      </trkpt>
      <trkpt lat="43.92146" lon="5.16432">
        <ele>385.63</ele>
        <time>2011-05-02T11:23:37Z</time>
      </trkpt>
      <trkpt lat="43.92151" lon="5.16433">
        <ele>386.11</ele>
        <time>2011-05-02T11:23:42Z</time>
      </trkpt>
      <trkpt lat="43.92168" lon="5.16433">
        <ele>387.07</ele>
        <time>2011-05-02T11:23:56Z</time>
      </trkpt>
      <trkpt lat="43.92181" lon="5.16432">
        <ele>388.03</ele>
        <time>2011-05-02T11:24:09Z</time>
      </trkpt>
      <trkpt lat="43.92197" lon="5.16423">
        <ele>388.99</ele>
        <time>2011-05-02T11:24:24Z</time>
      </trkpt>
      <trkpt lat="43.92205" lon="5.16418">
        <ele>389.95</ele>
        <time>2011-05-02T11:24:38Z</time>
      </trkpt>
      <trkpt lat="43.92213" lon="5.1641">
        <ele>390.43</ele>
        <time>2011-05-02T11:24:46Z</time>
      </trkpt>
      <trkpt lat="43.92217" lon="5.16408">
        <ele>390.43</ele>
        <time>2011-05-02T11:25:03Z</time>
      </trkpt>
      <trkpt lat="43.92226" lon="5.16402">
        <ele>391.87</ele>
        <time>2011-05-02T11:25:18Z</time>
      </trkpt>
      <trkpt lat="43.92227" lon="5.16402">
        <ele>391.87</ele>
        <time>2011-05-02T11:25:19Z</time>
      </trkpt>
      <trkpt lat="43.92238" lon="5.16393">
        <ele>392.36</ele>
        <time>2011-05-02T11:25:30Z</time>
      </trkpt>
      <trkpt lat="43.9224" lon="5.16391">
        <ele>392.36</ele>
        <time>2011-05-02T11:25:51Z</time>
      </trkpt>
      <trkpt lat="43.92242" lon="5.16388">
        <ele>392.84</ele>
        <time>2011-05-02T11:26:07Z</time>
      </trkpt>
      <trkpt lat="43.92248" lon="5.16385">
        <ele>393.32</ele>
        <time>2011-05-02T11:26:13Z</time>
      </trkpt>
      <trkpt lat="43.92267" lon="5.1638">
        <ele>394.28</ele>
        <time>2011-05-02T11:26:29Z</time>
      </trkpt>
      <trkpt lat="43.92283" lon="5.16376">
        <ele>395.24</ele>
        <time>2011-05-02T11:26:45Z</time>
      </trkpt>
      <trkpt lat="43.92287" lon="5.16375">
        <ele>395.24</ele>
        <time>2011-05-02T11:26:49Z</time>
      </trkpt>
      <trkpt lat="43.92302" lon="5.16378">
        <ele>396.68</ele>
        <time>2011-05-02T11:27:04Z</time>
      </trkpt>
      <trkpt lat="43.92317" lon="5.16381">
        <ele>398.12</ele>
        <time>2011-05-02T11:27:19Z</time>
      </trkpt>
      <trkpt lat="43.92323" lon="5.16382">
        <ele>398.12</ele>
        <time>2011-05-02T11:27:26Z</time>
      </trkpt>
      <trkpt lat="43.92339" lon="5.16371">
        <ele>400.05</ele>
        <time>2011-05-02T11:27:42Z</time>
      </trkpt>
      <trkpt lat="43.9234" lon="5.1637">
        <ele>400.05</ele>
        <time>2011-05-02T11:27:43Z</time>
      </trkpt>
      <trkpt lat="43.92349" lon="5.16358">
        <ele>401.01</ele>
        <time>2011-05-02T11:27:57Z</time>
      </trkpt>
      <trkpt lat="43.9236" lon="5.1634">
        <ele>401.49</ele>
        <time>2011-05-02T11:28:11Z</time>
      </trkpt>
      <trkpt lat="43.92362" lon="5.16337">
        <ele>401.97</ele>
        <time>2011-05-02T11:28:14Z</time>
      </trkpt>
      <trkpt lat="43.92375" lon="5.16329">
        <ele>403.41</ele>
        <time>2011-05-02T11:28:27Z</time>
      </trkpt>
      <trkpt lat="43.92391" lon="5.16332">
        <ele>404.37</ele>
        <time>2011-05-02T11:28:43Z</time>
      </trkpt>
      <trkpt lat="43.92408" lon="5.16331">
        <ele>405.81</ele>
        <time>2011-05-02T11:28:59Z</time>
      </trkpt>
      <trkpt lat="43.9242" lon="5.1633">
        <ele>406.29</ele>
        <time>2011-05-02T11:29:12Z</time>
      </trkpt>
      <trkpt lat="43.92436" lon="5.16324">
        <ele>407.74</ele>
        <time>2011-05-02T11:29:28Z</time>
      </trkpt>
      <trkpt lat="43.92453" lon="5.16316">
        <ele>409.18</ele>
        <time>2011-05-02T11:29:44Z</time>
      </trkpt>
      <trkpt lat="43.92465" lon="5.16311">
        <ele>409.18</ele>
        <time>2011-05-02T11:29:57Z</time>
      </trkpt>
      <trkpt lat="43.92483" lon="5.16308">
        <ele>410.14</ele>
        <time>2011-05-02T11:30:13Z</time>
      </trkpt>
      <trkpt lat="43.92498" lon="5.16308">
        <ele>411.1</ele>
        <time>2011-05-02T11:30:27Z</time>
      </trkpt>
      <trkpt lat="43.92513" lon="5.16309">
        <ele>411.58</ele>
        <time>2011-05-02T11:30:42Z</time>
      </trkpt>
      <trkpt lat="43.92527" lon="5.16311">
        <ele>413.02</ele>
        <time>2011-05-02T11:30:57Z</time>
      </trkpt>
      <trkpt lat="43.92539" lon="5.16318">
        <ele>413.98</ele>
        <time>2011-05-02T11:31:12Z</time>
      </trkpt>
      <trkpt lat="43.92553" lon="5.1633">
        <ele>415.43</ele>
        <time>2011-05-02T11:31:27Z</time>
      </trkpt>
      <trkpt lat="43.92566" lon="5.16332">
        <ele>416.87</ele>
        <time>2011-05-02T11:31:43Z</time>
      </trkpt>
      <trkpt lat="43.92579" lon="5.16331">
        <ele>417.35</ele>
        <time>2011-05-02T11:32:00Z</time>
      </trkpt>
      <trkpt lat="43.92582" lon="5.16331">
        <ele>417.35</ele>
        <time>2011-05-02T11:32:03Z</time>
      </trkpt>
      <trkpt lat="43.926" lon="5.16336">
        <ele>418.79</ele>
        <time>2011-05-02T11:32:19Z</time>
      </trkpt>
      <trkpt lat="43.92615" lon="5.16334">
        <ele>419.75</ele>
        <time>2011-05-02T11:32:33Z</time>
      </trkpt>
      <trkpt lat="43.92624" lon="5.16321">
        <ele>421.19</ele>
        <time>2011-05-02T11:32:48Z</time>
      </trkpt>
      <trkpt lat="43.92629" lon="5.16305">
        <ele>421.68</ele>
        <time>2011-05-02T11:33:01Z</time>
      </trkpt>
      <trkpt lat="43.92632" lon="5.16291">
        <ele>423.12</ele>
        <time>2011-05-02T11:33:15Z</time>
      </trkpt>
      <trkpt lat="43.92642" lon="5.16281">
        <ele>424.08</ele>
        <time>2011-05-02T11:33:28Z</time>
      </trkpt>
      <trkpt lat="43.92655" lon="5.16274">
        <ele>425.04</ele>
        <time>2011-05-02T11:33:41Z</time>
      </trkpt>
      <trkpt lat="43.92666" lon="5.1627">
        <ele>426</ele>
        <time>2011-05-02T11:33:55Z</time>
      </trkpt>
      <trkpt lat="43.92666" lon="5.1627">
        <ele>426.48</ele>
        <time>2011-05-02T11:34:22Z</time>
      </trkpt>
      <trkpt lat="43.92666" lon="5.1627">
        <ele>426.48</ele>
        <time>2011-05-02T11:34:51Z</time>
      </trkpt>
      <trkpt lat="43.92672" lon="5.16269">
        <ele>426.96</ele>
        <time>2011-05-02T11:35:14Z</time>
      </trkpt>
      <trkpt lat="43.92677" lon="5.16267">
        <ele>426.96</ele>
        <time>2011-05-02T11:35:29Z</time>
      </trkpt>
      <trkpt lat="43.92689" lon="5.16268">
        <ele>427.92</ele>
        <time>2011-05-02T11:35:44Z</time>
      </trkpt>
      <trkpt lat="43.92704" lon="5.16266">
        <ele>428.89</ele>
        <time>2011-05-02T11:35:57Z</time>
      </trkpt>
      <trkpt lat="43.92723" lon="5.16263">
        <ele>429.85</ele>
        <time>2011-05-02T11:36:14Z</time>
      </trkpt>
      <trkpt lat="43.92738" lon="5.16261">
        <ele>430.81</ele>
        <time>2011-05-02T11:36:29Z</time>
      </trkpt>
      <trkpt lat="43.92751" lon="5.16258">
        <ele>431.77</ele>
        <time>2011-05-02T11:36:41Z</time>
      </trkpt>
      <trkpt lat="43.92762" lon="5.16255">
        <ele>432.73</ele>
        <time>2011-05-02T11:36:54Z</time>
      </trkpt>
      <trkpt lat="43.9278" lon="5.16254">
        <ele>433.69</ele>
        <time>2011-05-02T11:37:10Z</time>
      </trkpt>
      <trkpt lat="43.92796" lon="5.16249">
        <ele>435.13</ele>
        <time>2011-05-02T11:37:26Z</time>
      </trkpt>
      <trkpt lat="43.928" lon="5.16247">
        <ele>435.13</ele>
        <time>2011-05-02T11:37:30Z</time>
      </trkpt>
      <trkpt lat="43.92818" lon="5.16238">
        <ele>436.1</ele>
        <time>2011-05-02T11:37:47Z</time>
      </trkpt>
      <trkpt lat="43.92833" lon="5.16235">
        <ele>437.06</ele>
        <time>2011-05-02T11:38:01Z</time>
      </trkpt>
      <trkpt lat="43.92835" lon="5.16235">
        <ele>437.54</ele>
        <time>2011-05-02T11:38:02Z</time>
      </trkpt>
      <trkpt lat="43.92849" lon="5.16224">
        <ele>438.5</ele>
        <time>2011-05-02T11:38:17Z</time>
      </trkpt>
      <trkpt lat="43.92861" lon="5.16218">
        <ele>439.46</ele>
        <time>2011-05-02T11:38:31Z</time>
      </trkpt>
      <trkpt lat="43.92873" lon="5.16213">
        <ele>439.94</ele>
        <time>2011-05-02T11:38:43Z</time>
      </trkpt>
      <trkpt lat="43.92888" lon="5.16209">
        <ele>440.9</ele>
        <time>2011-05-02T11:38:59Z</time>
      </trkpt>
      <trkpt lat="43.92903" lon="5.16205">
        <ele>442.34</ele>
        <time>2011-05-02T11:39:14Z</time>
      </trkpt>
      <trkpt lat="43.92907" lon="5.16204">
        <ele>442.82</ele>
        <time>2011-05-02T11:39:18Z</time>
      </trkpt>
      <trkpt lat="43.92921" lon="5.16199">
        <ele>443.31</ele>
        <time>2011-05-02T11:39:34Z</time>
      </trkpt>
      <trkpt lat="43.92925" lon="5.16195">
        <ele>444.27</ele>
        <time>2011-05-02T11:39:50Z</time>
      </trkpt>
      <trkpt lat="43.92931" lon="5.16192">
        <ele>445.23</ele>
        <time>2011-05-02T11:40:06Z</time>
      </trkpt>
      <trkpt lat="43.92943" lon="5.16184">
        <ele>445.71</ele>
        <time>2011-05-02T11:40:18Z</time>
      </trkpt>
      <trkpt lat="43.92954" lon="5.16176">
        <ele>446.67</ele>
        <time>2011-05-02T11:40:31Z</time>
      </trkpt>
      <trkpt lat="43.92955" lon="5.16175">
        <ele>446.67</ele>
        <time>2011-05-02T11:40:32Z</time>
      </trkpt>
      <trkpt lat="43.92971" lon="5.16174">
        <ele>447.63</ele>
        <time>2011-05-02T11:40:48Z</time>
      </trkpt>
      <trkpt lat="43.92977" lon="5.16171">
        <ele>448.11</ele>
        <time>2011-05-02T11:40:53Z</time>
      </trkpt>
      <trkpt lat="43.92985" lon="5.16167">
        <ele>448.59</ele>
        <time>2011-05-02T11:41:03Z</time>
      </trkpt>
      <trkpt lat="43.93" lon="5.16163">
        <ele>449.55</ele>
        <time>2011-05-02T11:41:18Z</time>
      </trkpt>
      <trkpt lat="43.93009" lon="5.16162">
        <ele>450.03</ele>
        <time>2011-05-02T11:41:26Z</time>
      </trkpt>
      <trkpt lat="43.93025" lon="5.16158">
        <ele>451</ele>
        <time>2011-05-02T11:41:41Z</time>
      </trkpt>
      <trkpt lat="43.93035" lon="5.16156">
        <ele>451.96</ele>
        <time>2011-05-02T11:41:51Z</time>
      </trkpt>
      <trkpt lat="43.93048" lon="5.16153">
        <ele>452.92</ele>
        <time>2011-05-02T11:42:05Z</time>
      </trkpt>
      <trkpt lat="43.93063" lon="5.16149">
        <ele>453.88</ele>
        <time>2011-05-02T11:42:20Z</time>
      </trkpt>
      <trkpt lat="43.93073" lon="5.16146">
        <ele>454.36</ele>
        <time>2011-05-02T11:42:37Z</time>
      </trkpt>
      <trkpt lat="43.93088" lon="5.16141">
        <ele>456.28</ele>
        <time>2011-05-02T11:42:53Z</time>
      </trkpt>
      <trkpt lat="43.93101" lon="5.16133">
        <ele>457.24</ele>
        <time>2011-05-02T11:43:05Z</time>
      </trkpt>
      <trkpt lat="43.93103" lon="5.16131">
        <ele>457.24</ele>
        <time>2011-05-02T11:43:08Z</time>
      </trkpt>
      <trkpt lat="43.93107" lon="5.16127">
        <ele>457.72</ele>
        <time>2011-05-02T11:43:12Z</time>
      </trkpt>
      <trkpt lat="43.93108" lon="5.16126">
        <ele>457.72</ele>
        <time>2011-05-02T11:43:14Z</time>
      </trkpt>
      <trkpt lat="43.93118" lon="5.16114">
        <ele>459.17</ele>
        <time>2011-05-02T11:43:29Z</time>
      </trkpt>
      <trkpt lat="43.93128" lon="5.16106">
        <ele>459.65</ele>
        <time>2011-05-02T11:43:43Z</time>
      </trkpt>
      <trkpt lat="43.93136" lon="5.16102">
        <ele>460.61</ele>
        <time>2011-05-02T11:43:51Z</time>
      </trkpt>
      <trkpt lat="43.93151" lon="5.16097">
        <ele>462.05</ele>
        <time>2011-05-02T11:44:05Z</time>
      </trkpt>
      <trkpt lat="43.93162" lon="5.16091">
        <ele>463.01</ele>
        <time>2011-05-02T11:44:17Z</time>
      </trkpt>
      <trkpt lat="43.93175" lon="5.16088">
        <ele>464.93</ele>
        <time>2011-05-02T11:44:32Z</time>
      </trkpt>
      <trkpt lat="43.93189" lon="5.16083">
        <ele>465.9</ele>
        <time>2011-05-02T11:44:48Z</time>
      </trkpt>
      <trkpt lat="43.93205" lon="5.16077">
        <ele>466.86</ele>
        <time>2011-05-02T11:45:05Z</time>
      </trkpt>
      <trkpt lat="43.93217" lon="5.16073">
        <ele>467.82</ele>
        <time>2011-05-02T11:45:17Z</time>
      </trkpt>
      <trkpt lat="43.93231" lon="5.16067">
        <ele>469.26</ele>
        <time>2011-05-02T11:45:31Z</time>
      </trkpt>
      <trkpt lat="43.93243" lon="5.16061">
        <ele>470.22</ele>
        <time>2011-05-02T11:45:45Z</time>
      </trkpt>
      <trkpt lat="43.93255" lon="5.16055">
        <ele>471.66</ele>
        <time>2011-05-02T11:45:58Z</time>
      </trkpt>
      <trkpt lat="43.93265" lon="5.16051">
        <ele>472.63</ele>
        <time>2011-05-02T11:46:12Z</time>
      </trkpt>
      <trkpt lat="43.93278" lon="5.16044">
        <ele>474.07</ele>
        <time>2011-05-02T11:46:28Z</time>
      </trkpt>
      <trkpt lat="43.93289" lon="5.16037">
        <ele>474.55</ele>
        <time>2011-05-02T11:46:41Z</time>
      </trkpt>
      <trkpt lat="43.93299" lon="5.16029">
        <ele>475.51</ele>
        <time>2011-05-02T11:46:54Z</time>
      </trkpt>
      <trkpt lat="43.9331" lon="5.16018">
        <ele>476.95</ele>
        <time>2011-05-02T11:47:09Z</time>
      </trkpt>
      <trkpt lat="43.93312" lon="5.16016">
        <ele>476.95</ele>
        <time>2011-05-02T11:47:11Z</time>
      </trkpt>
      <trkpt lat="43.93321" lon="5.16007">
        <ele>477.91</ele>
        <time>2011-05-02T11:47:24Z</time>
      </trkpt>
      <trkpt lat="43.93332" lon="5.15999">
        <ele>479.35</ele>
        <time>2011-05-02T11:47:39Z</time>
      </trkpt>
      <trkpt lat="43.93339" lon="5.15991">
        <ele>480.32</ele>
        <time>2011-05-02T11:47:52Z</time>
      </trkpt>
      <trkpt lat="43.93352" lon="5.15982">
        <ele>480.8</ele>
        <time>2011-05-02T11:48:07Z</time>
      </trkpt>
      <trkpt lat="43.93363" lon="5.15977">
        <ele>482.24</ele>
        <time>2011-05-02T11:48:20Z</time>
      </trkpt>
      <trkpt lat="43.93366" lon="5.15975">
        <ele>482.24</ele>
        <time>2011-05-02T11:48:23Z</time>
      </trkpt>
      <trkpt lat="43.93377" lon="5.15966">
        <ele>483.68</ele>
        <time>2011-05-02T11:48:39Z</time>
      </trkpt>
      <trkpt lat="43.93387" lon="5.15959">
        <ele>484.64</ele>
        <time>2011-05-02T11:48:52Z</time>
      </trkpt>
      <trkpt lat="43.93396" lon="5.1595">
        <ele>485.6</ele>
        <time>2011-05-02T11:49:05Z</time>
      </trkpt>
      <trkpt lat="43.93405" lon="5.15941">
        <ele>487.05</ele>
        <time>2011-05-02T11:49:18Z</time>
      </trkpt>
      <trkpt lat="43.93414" lon="5.15931">
        <ele>488.01</ele>
        <time>2011-05-02T11:49:31Z</time>
      </trkpt>
      <trkpt lat="43.93424" lon="5.15923">
        <ele>488.97</ele>
        <time>2011-05-02T11:49:45Z</time>
      </trkpt>
      <trkpt lat="43.93435" lon="5.15919">
        <ele>489.93</ele>
        <time>2011-05-02T11:49:59Z</time>
      </trkpt>
      <trkpt lat="43.93435" lon="5.15919">
        <ele>489.93</ele>
        <time>2011-05-02T11:50:27Z</time>
      </trkpt>
      <trkpt lat="43.93445" lon="5.15917">
        <ele>491.37</ele>
        <time>2011-05-02T11:50:41Z</time>
      </trkpt>
      <trkpt lat="43.93456" lon="5.15912">
        <ele>492.33</ele>
        <time>2011-05-02T11:50:55Z</time>
      </trkpt>
      <trkpt lat="43.93467" lon="5.15906">
        <ele>492.81</ele>
        <time>2011-05-02T11:51:08Z</time>
      </trkpt>
      <trkpt lat="43.93473" lon="5.15903">
        <ele>494.26</ele>
        <time>2011-05-02T11:51:15Z</time>
      </trkpt>
      <trkpt lat="43.93481" lon="5.15891">
        <ele>495.22</ele>
        <time>2011-05-02T11:51:29Z</time>
      </trkpt>
      <trkpt lat="43.93489" lon="5.15881">
        <ele>496.66</ele>
        <time>2011-05-02T11:51:42Z</time>
      </trkpt>
      <trkpt lat="43.935" lon="5.1588">
        <ele>498.1</ele>
        <time>2011-05-02T11:51:56Z</time>
      </trkpt>
      <trkpt lat="43.9351" lon="5.15877">
        <ele>499.06</ele>
        <time>2011-05-02T11:52:11Z</time>
      </trkpt>
      <trkpt lat="43.9352" lon="5.15875">
        <ele>500.02</ele>
        <time>2011-05-02T11:52:23Z</time>
      </trkpt>
      <trkpt lat="43.93532" lon="5.15876">
        <ele>501.46</ele>
        <time>2011-05-02T11:52:38Z</time>
      </trkpt>
      <trkpt lat="43.93543" lon="5.15873">
        <ele>503.39</ele>
        <time>2011-05-02T11:52:52Z</time>
      </trkpt>
      <trkpt lat="43.93554" lon="5.1587">
        <ele>504.83</ele>
        <time>2011-05-02T11:53:07Z</time>
      </trkpt>
      <trkpt lat="43.93565" lon="5.15866">
        <ele>505.79</ele>
        <time>2011-05-02T11:53:20Z</time>
      </trkpt>
      <trkpt lat="43.93573" lon="5.15855">
        <ele>507.71</ele>
        <time>2011-05-02T11:53:35Z</time>
      </trkpt>
      <trkpt lat="43.93574" lon="5.15853">
        <ele>507.71</ele>
        <time>2011-05-02T11:53:37Z</time>
      </trkpt>
      <trkpt lat="43.93582" lon="5.15839">
        <ele>509.64</ele>
        <time>2011-05-02T11:53:54Z</time>
      </trkpt>
      <trkpt lat="43.9359" lon="5.1583">
        <ele>510.6</ele>
        <time>2011-05-02T11:54:08Z</time>
      </trkpt>
      <trkpt lat="43.93599" lon="5.15819">
        <ele>512.52</ele>
        <time>2011-05-02T11:54:22Z</time>
      </trkpt>
      <trkpt lat="43.9361" lon="5.15813">
        <ele>514.44</ele>
        <time>2011-05-02T11:54:36Z</time>
      </trkpt>
      <trkpt lat="43.9362" lon="5.15809">
        <ele>515.4</ele>
        <time>2011-05-02T11:54:49Z</time>
      </trkpt>
      <trkpt lat="43.93623" lon="5.15807">
        <ele>515.88</ele>
        <time>2011-05-02T11:54:53Z</time>
      </trkpt>
      <trkpt lat="43.93633" lon="5.15802">
        <ele>517.33</ele>
        <time>2011-05-02T11:55:07Z</time>
      </trkpt>
      <trkpt lat="43.93636" lon="5.15801">
        <ele>517.81</ele>
        <time>2011-05-02T11:55:11Z</time>
      </trkpt>
      <trkpt lat="43.93638" lon="5.15799">
        <ele>518.29</ele>
        <time>2011-05-02T11:55:30Z</time>
      </trkpt>
      <trkpt lat="43.93638" lon="5.15799">
        <ele>518.29</ele>
        <time>2011-05-02T11:55:52Z</time>
      </trkpt>
      <trkpt lat="43.93646" lon="5.15795">
        <ele>519.25</ele>
        <time>2011-05-02T11:56:10Z</time>
      </trkpt>
      <trkpt lat="43.93659" lon="5.15789">
        <ele>520.21</ele>
        <time>2011-05-02T11:56:26Z</time>
      </trkpt>
      <trkpt lat="43.93668" lon="5.15784">
        <ele>521.65</ele>
        <time>2011-05-02T11:56:38Z</time>
      </trkpt>
      <trkpt lat="43.93672" lon="5.15782">
        <ele>522.13</ele>
        <time>2011-05-02T11:56:42Z</time>
      </trkpt>
      <trkpt lat="43.93684" lon="5.15772">
        <ele>523.58</ele>
        <time>2011-05-02T11:56:57Z</time>
      </trkpt>
      <trkpt lat="43.93684" lon="5.15771">
        <ele>523.09</ele>
        <time>2011-05-02T11:56:58Z</time>
      </trkpt>
      <trkpt lat="43.93698" lon="5.15766">
        <ele>524.54</ele>
        <time>2011-05-02T11:57:12Z</time>
      </trkpt>
      <trkpt lat="43.9371" lon="5.15762">
        <ele>526.46</ele>
        <time>2011-05-02T11:57:27Z</time>
      </trkpt>
      <trkpt lat="43.93723" lon="5.15755">
        <ele>527.9</ele>
        <time>2011-05-02T11:57:41Z</time>
      </trkpt>
      <trkpt lat="43.93736" lon="5.15749">
        <ele>528.86</ele>
        <time>2011-05-02T11:57:55Z</time>
      </trkpt>
      <trkpt lat="43.93745" lon="5.15743">
        <ele>530.3</ele>
        <time>2011-05-02T11:58:06Z</time>
      </trkpt>
      <trkpt lat="43.93755" lon="5.15736">
        <ele>531.75</ele>
        <time>2011-05-02T11:58:17Z</time>
      </trkpt>
      <trkpt lat="43.93767" lon="5.15729">
        <ele>532.71</ele>
        <time>2011-05-02T11:58:34Z</time>
      </trkpt>
      <trkpt lat="43.9378" lon="5.15727">
        <ele>534.63</ele>
        <time>2011-05-02T11:58:49Z</time>
      </trkpt>
      <trkpt lat="43.93792" lon="5.15725">
        <ele>535.59</ele>
        <time>2011-05-02T11:59:05Z</time>
      </trkpt>
      <trkpt lat="43.93806" lon="5.15726">
        <ele>537.51</ele>
        <time>2011-05-02T11:59:21Z</time>
      </trkpt>
      <trkpt lat="43.93819" lon="5.15728">
        <ele>539.44</ele>
        <time>2011-05-02T11:59:36Z</time>
      </trkpt>
      <trkpt lat="43.93831" lon="5.15731">
        <ele>541.84</ele>
        <time>2011-05-02T11:59:52Z</time>
      </trkpt>
      <trkpt lat="43.93841" lon="5.15732">
        <ele>543.28</ele>
        <time>2011-05-02T12:00:06Z</time>
      </trkpt>
      <trkpt lat="43.93851" lon="5.15736">
        <ele>545.2</ele>
        <time>2011-05-02T12:00:20Z</time>
      </trkpt>
      <trkpt lat="43.93858" lon="5.15739">
        <ele>546.17</ele>
        <time>2011-05-02T12:00:30Z</time>
      </trkpt>
      <trkpt lat="43.93868" lon="5.15746">
        <ele>548.57</ele>
        <time>2011-05-02T12:00:44Z</time>
      </trkpt>
      <trkpt lat="43.93877" lon="5.15754">
        <ele>550.49</ele>
        <time>2011-05-02T12:00:59Z</time>
      </trkpt>
      <trkpt lat="43.93885" lon="5.15762">
        <ele>552.41</ele>
        <time>2011-05-02T12:01:14Z</time>
      </trkpt>
      <trkpt lat="43.93892" lon="5.15768">
        <ele>553.86</ele>
        <time>2011-05-02T12:01:29Z</time>
      </trkpt>
      <trkpt lat="43.93898" lon="5.15771">
        <ele>556.26</ele>
        <time>2011-05-02T12:01:42Z</time>
      </trkpt>
      <trkpt lat="43.93901" lon="5.15773">
        <ele>556.74</ele>
        <time>2011-05-02T12:01:47Z</time>
      </trkpt>
      <trkpt lat="43.93909" lon="5.15782">
        <ele>558.66</ele>
        <time>2011-05-02T12:02:04Z</time>
      </trkpt>
      <trkpt lat="43.93913" lon="5.15785">
        <ele>561.07</ele>
        <time>2011-05-02T12:02:21Z</time>
      </trkpt>
      <trkpt lat="43.9392" lon="5.15787">
        <ele>562.51</ele>
        <time>2011-05-02T12:02:30Z</time>
      </trkpt>
      <trkpt lat="43.93929" lon="5.1579">
        <ele>564.91</ele>
        <time>2011-05-02T12:02:49Z</time>
      </trkpt>
      <trkpt lat="43.93941" lon="5.15794">
        <ele>566.83</ele>
        <time>2011-05-02T12:03:04Z</time>
      </trkpt>
      <trkpt lat="43.93947" lon="5.1579">
        <ele>568.28</ele>
        <time>2011-05-02T12:03:19Z</time>
      </trkpt>
      <trkpt lat="43.93955" lon="5.15788">
        <ele>570.2</ele>
        <time>2011-05-02T12:03:33Z</time>
      </trkpt>
      <trkpt lat="43.93963" lon="5.15787">
        <ele>572.12</ele>
        <time>2011-05-02T12:03:46Z</time>
      </trkpt>
      <trkpt lat="43.93967" lon="5.15786">
        <ele>573.08</ele>
        <time>2011-05-02T12:03:59Z</time>
      </trkpt>
      <trkpt lat="43.93973" lon="5.15784">
        <ele>576.45</ele>
        <time>2011-05-02T12:04:15Z</time>
      </trkpt>
      <trkpt lat="43.93986" lon="5.15783">
        <ele>579.33</ele>
        <time>2011-05-02T12:04:31Z</time>
      </trkpt>
      <trkpt lat="43.93992" lon="5.15783">
        <ele>580.77</ele>
        <time>2011-05-02T12:04:43Z</time>
      </trkpt>
      <trkpt lat="43.93997" lon="5.15781">
        <ele>581.73</ele>
        <time>2011-05-02T12:04:57Z</time>
      </trkpt>
      <trkpt lat="43.9401" lon="5.15779">
        <ele>583.66</ele>
        <time>2011-05-02T12:05:14Z</time>
      </trkpt>
      <trkpt lat="43.9402" lon="5.1578">
        <ele>586.06</ele>
        <time>2011-05-02T12:05:28Z</time>
      </trkpt>
      <trkpt lat="43.9403" lon="5.1578">
        <ele>587.98</ele>
        <time>2011-05-02T12:05:43Z</time>
      </trkpt>
      <trkpt lat="43.94039" lon="5.15777">
        <ele>588.95</ele>
        <time>2011-05-02T12:05:58Z</time>
      </trkpt>
      <trkpt lat="43.94051" lon="5.15777">
        <ele>591.83</ele>
        <time>2011-05-02T12:06:14Z</time>
      </trkpt>
      <trkpt lat="43.94053" lon="5.15775">
        <ele>594.71</ele>
        <time>2011-05-02T12:06:29Z</time>
      </trkpt>
      <trkpt lat="43.94053" lon="5.15775">
        <ele>596.15</ele>
        <time>2011-05-02T12:06:45Z</time>
      </trkpt>
      <trkpt lat="43.94055" lon="5.15775">
        <ele>597.12</ele>
        <time>2011-05-02T12:06:50Z</time>
      </trkpt>
      <trkpt lat="43.9407" lon="5.15777">
        <ele>598.08</ele>
        <time>2011-05-02T12:07:00Z</time>
      </trkpt>
      <trkpt lat="43.94087" lon="5.15777">
        <ele>600</ele>
        <time>2011-05-02T12:07:16Z</time>
      </trkpt>
      <trkpt lat="43.94092" lon="5.15775">
        <ele>601.44</ele>
        <time>2011-05-02T12:07:30Z</time>
      </trkpt>
      <trkpt lat="43.94099" lon="5.15774">
        <ele>602.4</ele>
        <time>2011-05-02T12:07:43Z</time>
      </trkpt>
      <trkpt lat="43.94099" lon="5.15774">
        <ele>602.88</ele>
        <time>2011-05-02T12:08:08Z</time>
      </trkpt>
      <trkpt lat="43.94099" lon="5.15773">
        <ele>602.4</ele>
        <time>2011-05-02T12:08:37Z</time>
      </trkpt>
      <trkpt lat="43.94099" lon="5.15773">
        <ele>602.88</ele>
        <time>2011-05-02T12:09:08Z</time>
      </trkpt>
      <trkpt lat="43.94099" lon="5.15773">
        <ele>602.88</ele>
        <time>2011-05-02T12:09:38Z</time>
      </trkpt>
      <trkpt lat="43.94099" lon="5.15773">
        <ele>602.4</ele>
        <time>2011-05-02T12:10:04Z</time>
      </trkpt>
      <trkpt lat="43.94104" lon="5.15772">
        <ele>605.29</ele>
        <time>2011-05-02T12:10:21Z</time>
      </trkpt>
      <trkpt lat="43.94122" lon="5.15771">
        <ele>606.73</ele>
        <time>2011-05-02T12:10:36Z</time>
      </trkpt>
      <trkpt lat="43.94136" lon="5.15768">
        <ele>608.17</ele>
        <time>2011-05-02T12:10:49Z</time>
      </trkpt>
      <trkpt lat="43.94144" lon="5.15765">
        <ele>609.13</ele>
        <time>2011-05-02T12:11:02Z</time>
      </trkpt>
      <trkpt lat="43.94154" lon="5.15767">
        <ele>611.06</ele>
        <time>2011-05-02T12:11:15Z</time>
      </trkpt>
      <trkpt lat="43.94165" lon="5.15768">
        <ele>612.02</ele>
        <time>2011-05-02T12:11:30Z</time>
      </trkpt>
      <trkpt lat="43.94177" lon="5.15767">
        <ele>613.46</ele>
        <time>2011-05-02T12:11:42Z</time>
      </trkpt>
      <trkpt lat="43.94187" lon="5.15769">
        <ele>614.42</ele>
        <time>2011-05-02T12:11:56Z</time>
      </trkpt>
      <trkpt lat="43.94194" lon="5.15768">
        <ele>615.86</ele>
        <time>2011-05-02T12:12:05Z</time>
      </trkpt>
      <trkpt lat="43.94207" lon="5.15769">
        <ele>617.3</ele>
        <time>2011-05-02T12:12:19Z</time>
      </trkpt>
      <trkpt lat="43.94215" lon="5.15769">
        <ele>618.26</ele>
        <time>2011-05-02T12:12:27Z</time>
      </trkpt>
      <trkpt lat="43.94224" lon="5.15777">
        <ele>618.26</ele>
        <time>2011-05-02T12:12:41Z</time>
      </trkpt>
      <trkpt lat="43.94226" lon="5.15779">
        <ele>618.26</ele>
        <time>2011-05-02T12:12:43Z</time>
      </trkpt>
      <trkpt lat="43.94228" lon="5.15785">
        <ele>618.26</ele>
        <time>2011-05-02T12:12:48Z</time>
      </trkpt>
      <trkpt lat="43.94229" lon="5.15789">
        <ele>617.78</ele>
        <time>2011-05-02T12:13:06Z</time>
      </trkpt>
      <trkpt lat="43.94231" lon="5.1579">
        <ele>618.26</ele>
        <time>2011-05-02T12:13:16Z</time>
      </trkpt>
      <trkpt lat="43.94236" lon="5.15798">
        <ele>618.26</ele>
        <time>2011-05-02T12:13:23Z</time>
      </trkpt>
      <trkpt lat="43.94244" lon="5.15806">
        <ele>618.26</ele>
        <time>2011-05-02T12:13:32Z</time>
      </trkpt>
      <trkpt lat="43.94257" lon="5.15825">
        <ele>620.19</ele>
        <time>2011-05-02T12:13:48Z</time>
      </trkpt>
      <trkpt lat="43.94266" lon="5.15837">
        <ele>621.15</ele>
        <time>2011-05-02T12:13:59Z</time>
      </trkpt>
      <trkpt lat="43.94274" lon="5.15843">
        <ele>622.59</ele>
        <time>2011-05-02T12:14:12Z</time>
      </trkpt>
      <trkpt lat="43.94274" lon="5.15843">
        <ele>622.11</ele>
        <time>2011-05-02T12:14:37Z</time>
      </trkpt>
      <trkpt lat="43.94274" lon="5.15843">
        <ele>622.11</ele>
        <time>2011-05-02T12:15:17Z</time>
      </trkpt>
      <trkpt lat="43.94274" lon="5.15843">
        <ele>622.59</ele>
        <time>2011-05-02T12:15:54Z</time>
      </trkpt>
      <trkpt lat="43.94275" lon="5.15844">
        <ele>622.59</ele>
        <time>2011-05-02T12:16:13Z</time>
      </trkpt>
      <trkpt lat="43.9429" lon="5.15857">
        <ele>624.51</ele>
        <time>2011-05-02T12:16:27Z</time>
      </trkpt>
      <trkpt lat="43.9431" lon="5.15871">
        <ele>625.47</ele>
        <time>2011-05-02T12:16:44Z</time>
      </trkpt>
      <trkpt lat="43.94324" lon="5.15876">
        <ele>627.4</ele>
        <time>2011-05-02T12:16:58Z</time>
      </trkpt>
      <trkpt lat="43.9434" lon="5.15882">
        <ele>627.88</ele>
        <time>2011-05-02T12:17:13Z</time>
      </trkpt>
      <trkpt lat="43.94356" lon="5.15895">
        <ele>628.84</ele>
        <time>2011-05-02T12:17:29Z</time>
      </trkpt>
      <trkpt lat="43.94369" lon="5.15901">
        <ele>629.8</ele>
        <time>2011-05-02T12:17:42Z</time>
      </trkpt>
      <trkpt lat="43.9438" lon="5.15905">
        <ele>629.8</ele>
        <time>2011-05-02T12:17:51Z</time>
      </trkpt>
      <trkpt lat="43.94394" lon="5.1591">
        <ele>630.76</ele>
        <time>2011-05-02T12:18:04Z</time>
      </trkpt>
      <trkpt lat="43.94399" lon="5.15911">
        <ele>630.76</ele>
        <time>2011-05-02T12:18:08Z</time>
      </trkpt>
      <trkpt lat="43.94407" lon="5.15915">
        <ele>631.24</ele>
        <time>2011-05-02T12:18:16Z</time>
      </trkpt>
      <trkpt lat="43.94422" lon="5.15928">
        <ele>631.24</ele>
        <time>2011-05-02T12:18:32Z</time>
      </trkpt>
      <trkpt lat="43.94428" lon="5.15934">
        <ele>630.76</ele>
        <time>2011-05-02T12:18:47Z</time>
      </trkpt>
      <trkpt lat="43.94434" lon="5.15941">
        <ele>631.24</ele>
        <time>2011-05-02T12:19:01Z</time>
      </trkpt>
      <trkpt lat="43.94449" lon="5.15945">
        <ele>631.72</ele>
        <time>2011-05-02T12:19:16Z</time>
      </trkpt>
      <trkpt lat="43.94449" lon="5.15945">
        <ele>631.72</ele>
        <time>2011-05-02T12:19:24Z</time>
      </trkpt>
      <trkpt lat="43.94465" lon="5.15944">
        <ele>631.24</ele>
        <time>2011-05-02T12:19:37Z</time>
      </trkpt>
      <trkpt lat="43.94484" lon="5.15948">
        <ele>632.68</ele>
        <time>2011-05-02T12:19:52Z</time>
      </trkpt>
      <trkpt lat="43.9449" lon="5.15952">
        <ele>632.68</ele>
        <time>2011-05-02T12:19:58Z</time>
      </trkpt>
      <trkpt lat="43.94507" lon="5.15951">
        <ele>632.68</ele>
        <time>2011-05-02T12:20:11Z</time>
      </trkpt>
      <trkpt lat="43.94523" lon="5.15951">
        <ele>633.17</ele>
        <time>2011-05-02T12:20:24Z</time>
      </trkpt>
      <trkpt lat="43.94534" lon="5.15953">
        <ele>632.68</ele>
        <time>2011-05-02T12:20:34Z</time>
      </trkpt>
      <trkpt lat="43.94551" lon="5.15944">
        <ele>632.68</ele>
        <time>2011-05-02T12:20:50Z</time>
      </trkpt>
      <trkpt lat="43.94553" lon="5.15942">
        <ele>633.17</ele>
        <time>2011-05-02T12:20:52Z</time>
      </trkpt>
      <trkpt lat="43.94558" lon="5.15943">
        <ele>633.65</ele>
        <time>2011-05-02T12:20:56Z</time>
      </trkpt>
      <trkpt lat="43.94574" lon="5.15942">
        <ele>634.13</ele>
        <time>2011-05-02T12:21:11Z</time>
      </trkpt>
      <trkpt lat="43.94592" lon="5.15945">
        <ele>634.61</ele>
        <time>2011-05-02T12:21:26Z</time>
      </trkpt>
      <trkpt lat="43.94598" lon="5.15948">
        <ele>635.09</ele>
        <time>2011-05-02T12:21:32Z</time>
      </trkpt>
      <trkpt lat="43.94616" lon="5.15953">
        <ele>634.61</ele>
        <time>2011-05-02T12:21:46Z</time>
      </trkpt>
      <trkpt lat="43.94627" lon="5.15959">
        <ele>635.09</ele>
        <time>2011-05-02T12:21:56Z</time>
      </trkpt>
      <trkpt lat="43.94643" lon="5.15965">
        <ele>634.61</ele>
        <time>2011-05-02T12:22:10Z</time>
      </trkpt>
      <trkpt lat="43.94659" lon="5.15969">
        <ele>635.09</ele>
        <time>2011-05-02T12:22:24Z</time>
      </trkpt>
      <trkpt lat="43.94671" lon="5.15968">
        <ele>635.57</ele>
        <time>2011-05-02T12:22:36Z</time>
      </trkpt>
      <trkpt lat="43.94687" lon="5.15974">
        <ele>635.09</ele>
        <time>2011-05-02T12:22:50Z</time>
      </trkpt>
      <trkpt lat="43.94702" lon="5.15979">
        <ele>635.09</ele>
        <time>2011-05-02T12:23:02Z</time>
      </trkpt>
      <trkpt lat="43.94718" lon="5.15979">
        <ele>635.57</ele>
        <time>2011-05-02T12:23:15Z</time>
      </trkpt>
      <trkpt lat="43.9473" lon="5.1598">
        <ele>635.57</ele>
        <time>2011-05-02T12:23:25Z</time>
      </trkpt>
      <trkpt lat="43.94746" lon="5.15983">
        <ele>636.05</ele>
        <time>2011-05-02T12:23:39Z</time>
      </trkpt>
      <trkpt lat="43.94762" lon="5.15988">
        <ele>635.09</ele>
        <time>2011-05-02T12:23:52Z</time>
      </trkpt>
      <trkpt lat="43.9478" lon="5.15991">
        <ele>635.09</ele>
        <time>2011-05-02T12:24:07Z</time>
      </trkpt>
      <trkpt lat="43.94797" lon="5.1599">
        <ele>635.09</ele>
        <time>2011-05-02T12:24:21Z</time>
      </trkpt>
      <trkpt lat="43.94811" lon="5.15979">
        <ele>634.61</ele>
        <time>2011-05-02T12:24:35Z</time>
      </trkpt>
      <trkpt lat="43.94824" lon="5.15958">
        <ele>634.61</ele>
        <time>2011-05-02T12:24:53Z</time>
      </trkpt>
      <trkpt lat="43.94834" lon="5.15943">
        <ele>634.61</ele>
        <time>2011-05-02T12:25:06Z</time>
      </trkpt>
      <trkpt lat="43.94841" lon="5.15923">
        <ele>635.09</ele>
        <time>2011-05-02T12:25:20Z</time>
      </trkpt>
      <trkpt lat="43.94854" lon="5.15901">
        <ele>635.09</ele>
        <time>2011-05-02T12:25:36Z</time>
      </trkpt>
      <trkpt lat="43.94864" lon="5.15881">
        <ele>635.57</ele>
        <time>2011-05-02T12:25:51Z</time>
      </trkpt>
      <trkpt lat="43.9487" lon="5.15859">
        <ele>636.05</ele>
        <time>2011-05-02T12:26:06Z</time>
      </trkpt>
      <trkpt lat="43.94877" lon="5.15838">
        <ele>636.53</ele>
        <time>2011-05-02T12:26:20Z</time>
      </trkpt>
      <trkpt lat="43.94878" lon="5.15837">
        <ele>637.01</ele>
        <time>2011-05-02T12:26:21Z</time>
      </trkpt>
      <trkpt lat="43.94885" lon="5.15819">
        <ele>637.49</ele>
        <time>2011-05-02T12:26:35Z</time>
      </trkpt>
      <trkpt lat="43.94897" lon="5.15805">
        <ele>637.01</ele>
        <time>2011-05-02T12:26:49Z</time>
      </trkpt>
      <trkpt lat="43.94906" lon="5.15787">
        <ele>637.97</ele>
        <time>2011-05-02T12:27:02Z</time>
      </trkpt>
      <trkpt lat="43.94914" lon="5.15769">
        <ele>637.49</ele>
        <time>2011-05-02T12:27:16Z</time>
      </trkpt>
      <trkpt lat="43.94915" lon="5.15766">
        <ele>637.49</ele>
        <time>2011-05-02T12:27:30Z</time>
      </trkpt>
      <trkpt lat="43.94916" lon="5.15766">
        <ele>637.49</ele>
        <time>2011-05-02T12:27:46Z</time>
      </trkpt>
      <trkpt lat="43.94915" lon="5.15767">
        <ele>637.97</ele>
        <time>2011-05-02T12:28:08Z</time>
      </trkpt>
      <trkpt lat="43.94916" lon="5.15765">
        <ele>637.97</ele>
        <time>2011-05-02T12:28:26Z</time>
      </trkpt>
      <trkpt lat="43.94918" lon="5.15755">
        <ele>637.97</ele>
        <time>2011-05-02T12:28:33Z</time>
      </trkpt>
      <trkpt lat="43.94922" lon="5.15736">
        <ele>637.97</ele>
        <time>2011-05-02T12:28:48Z</time>
      </trkpt>
      <trkpt lat="43.94922" lon="5.15736">
        <ele>637.97</ele>
        <time>2011-05-02T12:29:15Z</time>
      </trkpt>
      <trkpt lat="43.94922" lon="5.15736">
        <ele>637.97</ele>
        <time>2011-05-02T12:29:43Z</time>
      </trkpt>
      <trkpt lat="43.94922" lon="5.15736">
        <ele>637.97</ele>
        <time>2011-05-02T12:30:18Z</time>
      </trkpt>
      <trkpt lat="43.94923" lon="5.15732">
        <ele>637.97</ele>
        <time>2011-05-02T12:30:31Z</time>
      </trkpt>
      <trkpt lat="43.94925" lon="5.15726">
        <ele>637.97</ele>
        <time>2011-05-02T12:30:36Z</time>
      </trkpt>
      <trkpt lat="43.94927" lon="5.15712">
        <ele>638.45</ele>
        <time>2011-05-02T12:30:49Z</time>
      </trkpt>
      <trkpt lat="43.94931" lon="5.1569">
        <ele>638.45</ele>
        <time>2011-05-02T12:31:01Z</time>
      </trkpt>
      <trkpt lat="43.94935" lon="5.15667">
        <ele>637.49</ele>
        <time>2011-05-02T12:31:16Z</time>
      </trkpt>
      <trkpt lat="43.94937" lon="5.15659">
        <ele>638.45</ele>
        <time>2011-05-02T12:31:21Z</time>
      </trkpt>
      <trkpt lat="43.94937" lon="5.15654">
        <ele>637.97</ele>
        <time>2011-05-02T12:31:24Z</time>
      </trkpt>
      <trkpt lat="43.94938" lon="5.15642">
        <ele>637.49</ele>
        <time>2011-05-02T12:31:41Z</time>
      </trkpt>
      <trkpt lat="43.94938" lon="5.15642">
        <ele>637.49</ele>
        <time>2011-05-02T12:31:42Z</time>
      </trkpt>
      <trkpt lat="43.94951" lon="5.1564">
        <ele>635.57</ele>
        <time>2011-05-02T12:31:57Z</time>
      </trkpt>
      <trkpt lat="43.94962" lon="5.15632">
        <ele>632.68</ele>
        <time>2011-05-02T12:32:12Z</time>
      </trkpt>
      <trkpt lat="43.94967" lon="5.1563">
        <ele>632.2</ele>
        <time>2011-05-02T12:32:25Z</time>
      </trkpt>
      <trkpt lat="43.94967" lon="5.1563">
        <ele>632.2</ele>
        <time>2011-05-02T12:32:26Z</time>
      </trkpt>
      <trkpt lat="43.94973" lon="5.15652">
        <ele>631.24</ele>
        <time>2011-05-02T12:32:42Z</time>
      </trkpt>
      <trkpt lat="43.94983" lon="5.15668">
        <ele>630.28</ele>
        <time>2011-05-02T12:32:56Z</time>
      </trkpt>
      <trkpt lat="43.94989" lon="5.15674">
        <ele>630.28</ele>
        <time>2011-05-02T12:33:03Z</time>
      </trkpt>
      <trkpt lat="43.95003" lon="5.15694">
        <ele>629.8</ele>
        <time>2011-05-02T12:33:20Z</time>
      </trkpt>
      <trkpt lat="43.95006" lon="5.157">
        <ele>629.32</ele>
        <time>2011-05-02T12:33:24Z</time>
      </trkpt>
      <trkpt lat="43.95008" lon="5.15708">
        <ele>628.84</ele>
        <time>2011-05-02T12:33:30Z</time>
      </trkpt>
      <trkpt lat="43.95012" lon="5.15727">
        <ele>627.4</ele>
        <time>2011-05-02T12:33:44Z</time>
      </trkpt>
      <trkpt lat="43.95012" lon="5.15733">
        <ele>627.88</ele>
        <time>2011-05-02T12:33:49Z</time>
      </trkpt>
      <trkpt lat="43.95014" lon="5.15743">
        <ele>626.44</ele>
        <time>2011-05-02T12:33:56Z</time>
      </trkpt>
      <trkpt lat="43.9502" lon="5.15764">
        <ele>626.92</ele>
        <time>2011-05-02T12:34:11Z</time>
      </trkpt>
      <trkpt lat="43.95021" lon="5.15768">
        <ele>626.44</ele>
        <time>2011-05-02T12:34:15Z</time>
      </trkpt>
      <trkpt lat="43.95023" lon="5.1578">
        <ele>624.99</ele>
        <time>2011-05-02T12:34:22Z</time>
      </trkpt>
      <trkpt lat="43.95031" lon="5.158">
        <ele>625.47</ele>
        <time>2011-05-02T12:34:36Z</time>
      </trkpt>
      <trkpt lat="43.95031" lon="5.15803">
        <ele>624.51</ele>
        <time>2011-05-02T12:34:38Z</time>
      </trkpt>
      <trkpt lat="43.95036" lon="5.15826">
        <ele>624.03</ele>
        <time>2011-05-02T12:34:54Z</time>
      </trkpt>
      <trkpt lat="43.95036" lon="5.15829">
        <ele>624.03</ele>
        <time>2011-05-02T12:34:57Z</time>
      </trkpt>
      <trkpt lat="43.95032" lon="5.15855">
        <ele>623.55</ele>
        <time>2011-05-02T12:35:13Z</time>
      </trkpt>
      <trkpt lat="43.95026" lon="5.15875">
        <ele>623.07</ele>
        <time>2011-05-02T12:35:27Z</time>
      </trkpt>
      <trkpt lat="43.95026" lon="5.15878">
        <ele>623.07</ele>
        <time>2011-05-02T12:35:29Z</time>
      </trkpt>
      <trkpt lat="43.95023" lon="5.15885">
        <ele>622.59</ele>
        <time>2011-05-02T12:35:34Z</time>
      </trkpt>
      <trkpt lat="43.95017" lon="5.15902">
        <ele>621.63</ele>
        <time>2011-05-02T12:35:47Z</time>
      </trkpt>
      <trkpt lat="43.95012" lon="5.1591">
        <ele>621.15</ele>
        <time>2011-05-02T12:35:53Z</time>
      </trkpt>
      <trkpt lat="43.95008" lon="5.15915">
        <ele>621.15</ele>
        <time>2011-05-02T12:35:57Z</time>
      </trkpt>
      <trkpt lat="43.94997" lon="5.15935">
        <ele>621.15</ele>
        <time>2011-05-02T12:36:12Z</time>
      </trkpt>
      <trkpt lat="43.94985" lon="5.15946">
        <ele>620.19</ele>
        <time>2011-05-02T12:36:25Z</time>
      </trkpt>
      <trkpt lat="43.94984" lon="5.15947">
        <ele>620.19</ele>
        <time>2011-05-02T12:36:26Z</time>
      </trkpt>
      <trkpt lat="43.94969" lon="5.1596">
        <ele>619.23</ele>
        <time>2011-05-02T12:36:41Z</time>
      </trkpt>
      <trkpt lat="43.94968" lon="5.15961">
        <ele>619.71</ele>
        <time>2011-05-02T12:36:42Z</time>
      </trkpt>
      <trkpt lat="43.94966" lon="5.15966">
        <ele>619.71</ele>
        <time>2011-05-02T12:36:46Z</time>
      </trkpt>
      <trkpt lat="43.94962" lon="5.1597">
        <ele>618.75</ele>
        <time>2011-05-02T12:36:51Z</time>
      </trkpt>
      <trkpt lat="43.94946" lon="5.15985">
        <ele>618.26</ele>
        <time>2011-05-02T12:37:06Z</time>
      </trkpt>
      <trkpt lat="43.94943" lon="5.15988">
        <ele>618.26</ele>
        <time>2011-05-02T12:37:09Z</time>
      </trkpt>
      <trkpt lat="43.94938" lon="5.15991">
        <ele>618.26</ele>
        <time>2011-05-02T12:37:13Z</time>
      </trkpt>
      <trkpt lat="43.94927" lon="5.1601">
        <ele>618.26</ele>
        <time>2011-05-02T12:37:29Z</time>
      </trkpt>
      <trkpt lat="43.94927" lon="5.16011">
        <ele>617.78</ele>
        <time>2011-05-02T12:37:30Z</time>
      </trkpt>
      <trkpt lat="43.94922" lon="5.16025">
        <ele>617.3</ele>
        <time>2011-05-02T12:37:41Z</time>
      </trkpt>
      <trkpt lat="43.94922" lon="5.16039">
        <ele>616.82</ele>
        <time>2011-05-02T12:37:50Z</time>
      </trkpt>
      <trkpt lat="43.94925" lon="5.16044">
        <ele>616.34</ele>
        <time>2011-05-02T12:37:54Z</time>
      </trkpt>
      <trkpt lat="43.94939" lon="5.16056">
        <ele>615.38</ele>
        <time>2011-05-02T12:38:09Z</time>
      </trkpt>
      <trkpt lat="43.94947" lon="5.16072">
        <ele>614.9</ele>
        <time>2011-05-02T12:38:20Z</time>
      </trkpt>
      <trkpt lat="43.94948" lon="5.16079">
        <ele>614.42</ele>
        <time>2011-05-02T12:38:26Z</time>
      </trkpt>
      <trkpt lat="43.94948" lon="5.16095">
        <ele>613.46</ele>
        <time>2011-05-02T12:38:40Z</time>
      </trkpt>
      <trkpt lat="43.94946" lon="5.16118">
        <ele>612.98</ele>
        <time>2011-05-02T12:38:54Z</time>
      </trkpt>
      <trkpt lat="43.94946" lon="5.16122">
        <ele>612.02</ele>
        <time>2011-05-02T12:38:57Z</time>
      </trkpt>
      <trkpt lat="43.94945" lon="5.16124">
        <ele>612.02</ele>
        <time>2011-05-02T12:38:59Z</time>
      </trkpt>
      <trkpt lat="43.94942" lon="5.16135">
        <ele>611.54</ele>
        <time>2011-05-02T12:39:07Z</time>
      </trkpt>
      <trkpt lat="43.94933" lon="5.16154">
        <ele>611.06</ele>
        <time>2011-05-02T12:39:22Z</time>
      </trkpt>
      <trkpt lat="43.94933" lon="5.16159">
        <ele>610.57</ele>
        <time>2011-05-02T12:39:26Z</time>
      </trkpt>
      <trkpt lat="43.94931" lon="5.16171">
        <ele>610.09</ele>
        <time>2011-05-02T12:39:35Z</time>
      </trkpt>
      <trkpt lat="43.94929" lon="5.16185">
        <ele>610.57</ele>
        <time>2011-05-02T12:39:44Z</time>
      </trkpt>
      <trkpt lat="43.94922" lon="5.16207">
        <ele>609.13</ele>
        <time>2011-05-02T12:39:58Z</time>
      </trkpt>
      <trkpt lat="43.94922" lon="5.16208">
        <ele>609.61</ele>
        <time>2011-05-02T12:39:59Z</time>
      </trkpt>
      <trkpt lat="43.94921" lon="5.16214">
        <ele>609.13</ele>
        <time>2011-05-02T12:40:03Z</time>
      </trkpt>
      <trkpt lat="43.94915" lon="5.16233">
        <ele>609.13</ele>
        <time>2011-05-02T12:40:16Z</time>
      </trkpt>
      <trkpt lat="43.94915" lon="5.16239">
        <ele>609.13</ele>
        <time>2011-05-02T12:40:20Z</time>
      </trkpt>
      <trkpt lat="43.94913" lon="5.16263">
        <ele>607.69</ele>
        <time>2011-05-02T12:40:34Z</time>
      </trkpt>
      <trkpt lat="43.94914" lon="5.16286">
        <ele>607.21</ele>
        <time>2011-05-02T12:40:47Z</time>
      </trkpt>
      <trkpt lat="43.94912" lon="5.16293">
        <ele>607.21</ele>
        <time>2011-05-02T12:41:01Z</time>
      </trkpt>
      <trkpt lat="43.94909" lon="5.16294">
        <ele>607.69</ele>
        <time>2011-05-02T12:41:11Z</time>
      </trkpt>
      <trkpt lat="43.94899" lon="5.16305">
        <ele>608.65</ele>
        <time>2011-05-02T12:41:25Z</time>
      </trkpt>
      <trkpt lat="43.94887" lon="5.16317">
        <ele>611.54</ele>
        <time>2011-05-02T12:41:41Z</time>
      </trkpt>
      <trkpt lat="43.94886" lon="5.16319">
        <ele>612.02</ele>
        <time>2011-05-02T12:41:43Z</time>
      </trkpt>
      <trkpt lat="43.94883" lon="5.16331">
        <ele>612.02</ele>
        <time>2011-05-02T12:41:51Z</time>
      </trkpt>
      <trkpt lat="43.94883" lon="5.16334">
        <ele>612.5</ele>
        <time>2011-05-02T12:41:53Z</time>
      </trkpt>
      <trkpt lat="43.94883" lon="5.16359">
        <ele>612.98</ele>
        <time>2011-05-02T12:42:08Z</time>
      </trkpt>
      <trkpt lat="43.94893" lon="5.16377">
        <ele>613.46</ele>
        <time>2011-05-02T12:42:21Z</time>
      </trkpt>
      <trkpt lat="43.949" lon="5.16395">
        <ele>612.98</ele>
        <time>2011-05-02T12:42:34Z</time>
      </trkpt>
      <trkpt lat="43.94901" lon="5.16395">
        <ele>613.46</ele>
        <time>2011-05-02T12:42:35Z</time>
      </trkpt>
      <trkpt lat="43.94915" lon="5.1641">
        <ele>612.98</ele>
        <time>2011-05-02T12:42:50Z</time>
      </trkpt>
      <trkpt lat="43.94924" lon="5.16425">
        <ele>615.38</ele>
        <time>2011-05-02T12:43:05Z</time>
      </trkpt>
      <trkpt lat="43.94922" lon="5.16436">
        <ele>616.82</ele>
        <time>2011-05-02T12:43:18Z</time>
      </trkpt>
      <trkpt lat="43.94921" lon="5.16447">
        <ele>618.26</ele>
        <time>2011-05-02T12:43:30Z</time>
      </trkpt>
      <trkpt lat="43.94922" lon="5.16451">
        <ele>618.26</ele>
        <time>2011-05-02T12:43:37Z</time>
      </trkpt>
      <trkpt lat="43.94923" lon="5.16454">
        <ele>618.26</ele>
        <time>2011-05-02T12:43:39Z</time>
      </trkpt>
      <trkpt lat="43.94923" lon="5.16471">
        <ele>618.26</ele>
        <time>2011-05-02T12:43:51Z</time>
      </trkpt>
      <trkpt lat="43.94923" lon="5.1648">
        <ele>618.26</ele>
        <time>2011-05-02T12:43:56Z</time>
      </trkpt>
      <trkpt lat="43.94923" lon="5.16487">
        <ele>617.78</ele>
        <time>2011-05-02T12:44:00Z</time>
      </trkpt>
      <trkpt lat="43.94922" lon="5.16492">
        <ele>617.78</ele>
        <time>2011-05-02T12:44:04Z</time>
      </trkpt>
      <trkpt lat="43.94923" lon="5.16501">
        <ele>617.3</ele>
        <time>2011-05-02T12:44:09Z</time>
      </trkpt>
      <trkpt lat="43.9492" lon="5.16519">
        <ele>616.34</ele>
        <time>2011-05-02T12:44:21Z</time>
      </trkpt>
      <trkpt lat="43.9492" lon="5.16521">
        <ele>616.34</ele>
        <time>2011-05-02T12:44:23Z</time>
      </trkpt>
      <trkpt lat="43.94922" lon="5.16534">
        <ele>615.86</ele>
        <time>2011-05-02T12:44:31Z</time>
      </trkpt>
      <trkpt lat="43.94923" lon="5.16551">
        <ele>614.9</ele>
        <time>2011-05-02T12:44:41Z</time>
      </trkpt>
      <trkpt lat="43.9492" lon="5.16571">
        <ele>612.5</ele>
        <time>2011-05-02T12:44:56Z</time>
      </trkpt>
      <trkpt lat="43.94922" lon="5.16587">
        <ele>610.57</ele>
        <time>2011-05-02T12:45:09Z</time>
      </trkpt>
      <trkpt lat="43.94922" lon="5.16591">
        <ele>609.61</ele>
        <time>2011-05-02T12:45:24Z</time>
      </trkpt>
      <trkpt lat="43.94922" lon="5.16591">
        <ele>610.09</ele>
        <time>2011-05-02T12:45:50Z</time>
      </trkpt>
      <trkpt lat="43.94922" lon="5.16591">
        <ele>609.13</ele>
        <time>2011-05-02T12:46:09Z</time>
      </trkpt>
      <trkpt lat="43.94923" lon="5.166">
        <ele>608.17</ele>
        <time>2011-05-02T12:46:29Z</time>
      </trkpt>
      <trkpt lat="43.94923" lon="5.16603">
        <ele>607.69</ele>
        <time>2011-05-02T12:46:32Z</time>
      </trkpt>
      <trkpt lat="43.9493" lon="5.16622">
        <ele>605.77</ele>
        <time>2011-05-02T12:46:48Z</time>
      </trkpt>
      <trkpt lat="43.94938" lon="5.16644">
        <ele>604.33</ele>
        <time>2011-05-02T12:47:03Z</time>
      </trkpt>
      <trkpt lat="43.94939" lon="5.16647">
        <ele>602.88</ele>
        <time>2011-05-02T12:47:06Z</time>
      </trkpt>
      <trkpt lat="43.9494" lon="5.16668">
        <ele>600.48</ele>
        <time>2011-05-02T12:47:21Z</time>
      </trkpt>
      <trkpt lat="43.94941" lon="5.16692">
        <ele>598.56</ele>
        <time>2011-05-02T12:47:35Z</time>
      </trkpt>
      <trkpt lat="43.94943" lon="5.16699">
        <ele>598.56</ele>
        <time>2011-05-02T12:47:39Z</time>
      </trkpt>
      <trkpt lat="43.94949" lon="5.16718">
        <ele>598.56</ele>
        <time>2011-05-02T12:47:52Z</time>
      </trkpt>
      <trkpt lat="43.94951" lon="5.16732">
        <ele>596.64</ele>
        <time>2011-05-02T12:48:02Z</time>
      </trkpt>
      <trkpt lat="43.94951" lon="5.16738">
        <ele>595.67</ele>
        <time>2011-05-02T12:48:07Z</time>
      </trkpt>
      <trkpt lat="43.94949" lon="5.16755">
        <ele>595.19</ele>
        <time>2011-05-02T12:48:20Z</time>
      </trkpt>
      <trkpt lat="43.9495" lon="5.16763">
        <ele>594.23</ele>
        <time>2011-05-02T12:48:25Z</time>
      </trkpt>
      <trkpt lat="43.94949" lon="5.16779">
        <ele>592.79</ele>
        <time>2011-05-02T12:48:38Z</time>
      </trkpt>
      <trkpt lat="43.9495" lon="5.16785">
        <ele>592.79</ele>
        <time>2011-05-02T12:48:42Z</time>
      </trkpt>
      <trkpt lat="43.94963" lon="5.16806">
        <ele>592.31</ele>
        <time>2011-05-02T12:48:59Z</time>
      </trkpt>
      <trkpt lat="43.94972" lon="5.16825">
        <ele>590.39</ele>
        <time>2011-05-02T12:49:14Z</time>
      </trkpt>
      <trkpt lat="43.94981" lon="5.16837">
        <ele>588.95</ele>
        <time>2011-05-02T12:49:23Z</time>
      </trkpt>
      <trkpt lat="43.94988" lon="5.16843">
        <ele>587.98</ele>
        <time>2011-05-02T12:49:29Z</time>
      </trkpt>
      <trkpt lat="43.95" lon="5.16849">
        <ele>587.02</ele>
        <time>2011-05-02T12:49:42Z</time>
      </trkpt>
      <trkpt lat="43.95001" lon="5.16849">
        <ele>587.02</ele>
        <time>2011-05-02T12:49:43Z</time>
      </trkpt>
      <trkpt lat="43.95006" lon="5.16851">
        <ele>586.54</ele>
        <time>2011-05-02T12:49:47Z</time>
      </trkpt>
      <trkpt lat="43.95018" lon="5.16853">
        <ele>586.54</ele>
        <time>2011-05-02T12:49:58Z</time>
      </trkpt>
      <trkpt lat="43.95035" lon="5.1686">
        <ele>584.14</ele>
        <time>2011-05-02T12:50:12Z</time>
      </trkpt>
      <trkpt lat="43.95048" lon="5.16869">
        <ele>582.22</ele>
        <time>2011-05-02T12:50:25Z</time>
      </trkpt>
      <trkpt lat="43.95055" lon="5.16874">
        <ele>580.29</ele>
        <time>2011-05-02T12:50:35Z</time>
      </trkpt>
      <trkpt lat="43.95067" lon="5.16879">
        <ele>578.37</ele>
        <time>2011-05-02T12:50:49Z</time>
      </trkpt>
      <trkpt lat="43.95071" lon="5.16879">
        <ele>577.89</ele>
        <time>2011-05-02T12:50:52Z</time>
      </trkpt>
      <trkpt lat="43.95081" lon="5.16881">
        <ele>576.93</ele>
        <time>2011-05-02T12:50:58Z</time>
      </trkpt>
      <trkpt lat="43.95087" lon="5.16879">
        <ele>576.93</ele>
        <time>2011-05-02T12:51:02Z</time>
      </trkpt>
      <trkpt lat="43.95092" lon="5.16876">
        <ele>576.45</ele>
        <time>2011-05-02T12:51:06Z</time>
      </trkpt>
      <trkpt lat="43.951" lon="5.16871">
        <ele>575.97</ele>
        <time>2011-05-02T12:51:13Z</time>
      </trkpt>
      <trkpt lat="43.95106" lon="5.16868">
        <ele>575.49</ele>
        <time>2011-05-02T12:51:18Z</time>
      </trkpt>
      <trkpt lat="43.95117" lon="5.16867">
        <ele>576.93</ele>
        <time>2011-05-02T12:51:33Z</time>
      </trkpt>
      <trkpt lat="43.95116" lon="5.16887">
        <ele>576.45</ele>
        <time>2011-05-02T12:51:48Z</time>
      </trkpt>
      <trkpt lat="43.95117" lon="5.16891">
        <ele>575.49</ele>
        <time>2011-05-02T12:51:51Z</time>
      </trkpt>
      <trkpt lat="43.95109" lon="5.1691">
        <ele>574.04</ele>
        <time>2011-05-02T12:52:07Z</time>
      </trkpt>
      <trkpt lat="43.95108" lon="5.16915">
        <ele>573.56</ele>
        <time>2011-05-02T12:52:12Z</time>
      </trkpt>
      <trkpt lat="43.95104" lon="5.16938">
        <ele>573.56</ele>
        <time>2011-05-02T12:52:27Z</time>
      </trkpt>
      <trkpt lat="43.95102" lon="5.16956">
        <ele>573.56</ele>
        <time>2011-05-02T12:52:42Z</time>
      </trkpt>
      <trkpt lat="43.95102" lon="5.16964">
        <ele>574.53</ele>
        <time>2011-05-02T12:52:48Z</time>
      </trkpt>
      <trkpt lat="43.95094" lon="5.16978">
        <ele>576.45</ele>
        <time>2011-05-02T12:53:02Z</time>
      </trkpt>
      <trkpt lat="43.95081" lon="5.16988">
        <ele>578.37</ele>
        <time>2011-05-02T12:53:19Z</time>
      </trkpt>
      <trkpt lat="43.95077" lon="5.16988">
        <ele>578.37</ele>
        <time>2011-05-02T12:53:23Z</time>
      </trkpt>
      <trkpt lat="43.95061" lon="5.16992">
        <ele>579.33</ele>
        <time>2011-05-02T12:53:40Z</time>
      </trkpt>
      <trkpt lat="43.95045" lon="5.16994">
        <ele>578.85</ele>
        <time>2011-05-02T12:53:55Z</time>
      </trkpt>
      <trkpt lat="43.95038" lon="5.16995">
        <ele>578.85</ele>
        <time>2011-05-02T12:54:02Z</time>
      </trkpt>
      <trkpt lat="43.95034" lon="5.16996">
        <ele>578.85</ele>
        <time>2011-05-02T12:54:05Z</time>
      </trkpt>
      <trkpt lat="43.9502" lon="5.16999">
        <ele>577.89</ele>
        <time>2011-05-02T12:54:18Z</time>
      </trkpt>
      <trkpt lat="43.95011" lon="5.17">
        <ele>578.37</ele>
        <time>2011-05-02T12:54:25Z</time>
      </trkpt>
      <trkpt lat="43.95005" lon="5.16996">
        <ele>577.89</ele>
        <time>2011-05-02T12:54:30Z</time>
      </trkpt>
      <trkpt lat="43.9499" lon="5.17">
        <ele>579.81</ele>
        <time>2011-05-02T12:54:44Z</time>
      </trkpt>
      <trkpt lat="43.94976" lon="5.17003">
        <ele>581.73</ele>
        <time>2011-05-02T12:54:59Z</time>
      </trkpt>
      <trkpt lat="43.94965" lon="5.1701">
        <ele>581.25</ele>
        <time>2011-05-02T12:55:14Z</time>
      </trkpt>
      <trkpt lat="43.94952" lon="5.17006">
        <ele>581.25</ele>
        <time>2011-05-02T12:55:26Z</time>
      </trkpt>
      <trkpt lat="43.9495" lon="5.17006">
        <ele>581.25</ele>
        <time>2011-05-02T12:55:28Z</time>
      </trkpt>
      <trkpt lat="43.94933" lon="5.17006">
        <ele>584.14</ele>
        <time>2011-05-02T12:55:44Z</time>
      </trkpt>
      <trkpt lat="43.94925" lon="5.17008">
        <ele>585.58</ele>
        <time>2011-05-02T12:56:00Z</time>
      </trkpt>
      <trkpt lat="43.94916" lon="5.1701">
        <ele>588.46</ele>
        <time>2011-05-02T12:56:14Z</time>
      </trkpt>
      <trkpt lat="43.94906" lon="5.17015">
        <ele>590.39</ele>
        <time>2011-05-02T12:56:30Z</time>
      </trkpt>
      <trkpt lat="43.94904" lon="5.17015">
        <ele>592.79</ele>
        <time>2011-05-02T12:56:43Z</time>
      </trkpt>
      <trkpt lat="43.94902" lon="5.17017">
        <ele>593.75</ele>
        <time>2011-05-02T12:56:53Z</time>
      </trkpt>
      <trkpt lat="43.94897" lon="5.17023">
        <ele>597.12</ele>
        <time>2011-05-02T12:57:10Z</time>
      </trkpt>
      <trkpt lat="43.94897" lon="5.17023">
        <ele>597.12</ele>
        <time>2011-05-02T12:57:13Z</time>
      </trkpt>
      <trkpt lat="43.94882" lon="5.17038">
        <ele>599.04</ele>
        <time>2011-05-02T12:57:27Z</time>
      </trkpt>
      <trkpt lat="43.94878" lon="5.1704">
        <ele>600.48</ele>
        <time>2011-05-02T12:57:31Z</time>
      </trkpt>
      <trkpt lat="43.94865" lon="5.1705">
        <ele>600.96</ele>
        <time>2011-05-02T12:57:48Z</time>
      </trkpt>
      <trkpt lat="43.94852" lon="5.17057">
        <ele>602.4</ele>
        <time>2011-05-02T12:58:03Z</time>
      </trkpt>
      <trkpt lat="43.94838" lon="5.17065">
        <ele>603.36</ele>
        <time>2011-05-02T12:58:16Z</time>
      </trkpt>
      <trkpt lat="43.94824" lon="5.17069">
        <ele>603.85</ele>
        <time>2011-05-02T12:58:30Z</time>
      </trkpt>
      <trkpt lat="43.94812" lon="5.17076">
        <ele>604.33</ele>
        <time>2011-05-02T12:58:43Z</time>
      </trkpt>
      <trkpt lat="43.9481" lon="5.17077">
        <ele>604.33</ele>
        <time>2011-05-02T12:58:45Z</time>
      </trkpt>
      <trkpt lat="43.94797" lon="5.1709">
        <ele>605.29</ele>
        <time>2011-05-02T12:59:00Z</time>
      </trkpt>
      <trkpt lat="43.94795" lon="5.17091">
        <ele>605.29</ele>
        <time>2011-05-02T12:59:02Z</time>
      </trkpt>
      <trkpt lat="43.94788" lon="5.17101">
        <ele>605.77</ele>
        <time>2011-05-02T12:59:10Z</time>
      </trkpt>
      <trkpt lat="43.94773" lon="5.17112">
        <ele>605.77</ele>
        <time>2011-05-02T12:59:25Z</time>
      </trkpt>
      <trkpt lat="43.94761" lon="5.17122">
        <ele>606.73</ele>
        <time>2011-05-02T12:59:37Z</time>
      </trkpt>
      <trkpt lat="43.94747" lon="5.17137">
        <ele>605.77</ele>
        <time>2011-05-02T12:59:53Z</time>
      </trkpt>
      <trkpt lat="43.94741" lon="5.17141">
        <ele>606.25</ele>
        <time>2011-05-02T12:59:59Z</time>
      </trkpt>
      <trkpt lat="43.94733" lon="5.17154">
        <ele>605.29</ele>
        <time>2011-05-02T13:00:09Z</time>
      </trkpt>
      <trkpt lat="43.9473" lon="5.17159">
        <ele>605.29</ele>
        <time>2011-05-02T13:00:14Z</time>
      </trkpt>
      <trkpt lat="43.94725" lon="5.17173">
        <ele>604.81</ele>
        <time>2011-05-02T13:00:26Z</time>
      </trkpt>
      <trkpt lat="43.94723" lon="5.17177">
        <ele>604.33</ele>
        <time>2011-05-02T13:00:29Z</time>
      </trkpt>
      <trkpt lat="43.94714" lon="5.17193">
        <ele>605.29</ele>
        <time>2011-05-02T13:00:41Z</time>
      </trkpt>
      <trkpt lat="43.94709" lon="5.17204">
        <ele>605.29</ele>
        <time>2011-05-02T13:00:49Z</time>
      </trkpt>
      <trkpt lat="43.947" lon="5.17223">
        <ele>605.29</ele>
        <time>2011-05-02T13:01:04Z</time>
      </trkpt>
      <trkpt lat="43.94696" lon="5.17229">
        <ele>605.29</ele>
        <time>2011-05-02T13:01:09Z</time>
      </trkpt>
      <trkpt lat="43.94691" lon="5.17244">
        <ele>605.77</ele>
        <time>2011-05-02T13:01:21Z</time>
      </trkpt>
      <trkpt lat="43.94687" lon="5.17256">
        <ele>606.25</ele>
        <time>2011-05-02T13:01:30Z</time>
      </trkpt>
      <trkpt lat="43.94683" lon="5.17265">
        <ele>606.25</ele>
        <time>2011-05-02T13:01:36Z</time>
      </trkpt>
      <trkpt lat="43.94675" lon="5.17289">
        <ele>605.77</ele>
        <time>2011-05-02T13:01:51Z</time>
      </trkpt>
      <trkpt lat="43.94672" lon="5.17308">
        <ele>605.29</ele>
        <time>2011-05-02T13:02:04Z</time>
      </trkpt>
      <trkpt lat="43.94664" lon="5.17327">
        <ele>604.33</ele>
        <time>2011-05-02T13:02:19Z</time>
      </trkpt>
      <trkpt lat="43.94661" lon="5.17335">
        <ele>603.36</ele>
        <time>2011-05-02T13:02:24Z</time>
      </trkpt>
      <trkpt lat="43.94656" lon="5.17351">
        <ele>603.85</ele>
        <time>2011-05-02T13:02:35Z</time>
      </trkpt>
      <trkpt lat="43.94655" lon="5.17352">
        <ele>603.85</ele>
        <time>2011-05-02T13:02:37Z</time>
      </trkpt>
      <trkpt lat="43.94652" lon="5.17368">
        <ele>603.36</ele>
        <time>2011-05-02T13:02:47Z</time>
      </trkpt>
      <trkpt lat="43.94644" lon="5.17388">
        <ele>603.85</ele>
        <time>2011-05-02T13:03:02Z</time>
      </trkpt>
      <trkpt lat="43.94634" lon="5.1741">
        <ele>603.36</ele>
        <time>2011-05-02T13:03:17Z</time>
      </trkpt>
      <trkpt lat="43.94632" lon="5.17414">
        <ele>603.85</ele>
        <time>2011-05-02T13:03:20Z</time>
      </trkpt>
      <trkpt lat="43.9463" lon="5.17421">
        <ele>603.85</ele>
        <time>2011-05-02T13:03:25Z</time>
      </trkpt>
      <trkpt lat="43.94628" lon="5.17429">
        <ele>603.85</ele>
        <time>2011-05-02T13:03:30Z</time>
      </trkpt>
      <trkpt lat="43.94623" lon="5.17446">
        <ele>603.36</ele>
        <time>2011-05-02T13:03:41Z</time>
      </trkpt>
      <trkpt lat="43.94622" lon="5.17459">
        <ele>602.88</ele>
        <time>2011-05-02T13:03:49Z</time>
      </trkpt>
      <trkpt lat="43.94618" lon="5.17472">
        <ele>603.36</ele>
        <time>2011-05-02T13:03:57Z</time>
      </trkpt>
      <trkpt lat="43.94609" lon="5.17495">
        <ele>602.88</ele>
        <time>2011-05-02T13:04:12Z</time>
      </trkpt>
      <trkpt lat="43.94602" lon="5.17517">
        <ele>602.88</ele>
        <time>2011-05-02T13:04:27Z</time>
      </trkpt>
      <trkpt lat="43.94598" lon="5.17534">
        <ele>603.36</ele>
        <time>2011-05-02T13:04:37Z</time>
      </trkpt>
      <trkpt lat="43.94596" lon="5.17541">
        <ele>603.36</ele>
        <time>2011-05-02T13:04:42Z</time>
      </trkpt>
      <trkpt lat="43.94583" lon="5.17562">
        <ele>602.88</ele>
        <time>2011-05-02T13:04:58Z</time>
      </trkpt>
      <trkpt lat="43.94577" lon="5.1757">
        <ele>603.85</ele>
        <time>2011-05-02T13:05:05Z</time>
      </trkpt>
      <trkpt lat="43.94573" lon="5.17574">
        <ele>603.85</ele>
        <time>2011-05-02T13:05:09Z</time>
      </trkpt>
      <trkpt lat="43.94561" lon="5.1759">
        <ele>603.85</ele>
        <time>2011-05-02T13:05:22Z</time>
      </trkpt>
      <trkpt lat="43.94547" lon="5.17611">
        <ele>603.36</ele>
        <time>2011-05-02T13:05:38Z</time>
      </trkpt>
      <trkpt lat="43.94537" lon="5.17625">
        <ele>603.36</ele>
        <time>2011-05-02T13:05:49Z</time>
      </trkpt>
      <trkpt lat="43.94533" lon="5.17635">
        <ele>602.4</ele>
        <time>2011-05-02T13:05:55Z</time>
      </trkpt>
      <trkpt lat="43.9453" lon="5.17643">
        <ele>601.92</ele>
        <time>2011-05-02T13:06:00Z</time>
      </trkpt>
      <trkpt lat="43.94525" lon="5.17655">
        <ele>600</ele>
        <time>2011-05-02T13:06:09Z</time>
      </trkpt>
      <trkpt lat="43.94521" lon="5.17669">
        <ele>599.52</ele>
        <time>2011-05-02T13:06:19Z</time>
      </trkpt>
      <trkpt lat="43.94508" lon="5.17684">
        <ele>601.44</ele>
        <time>2011-05-02T13:06:36Z</time>
      </trkpt>
      <trkpt lat="43.94506" lon="5.17685">
        <ele>601.44</ele>
        <time>2011-05-02T13:06:38Z</time>
      </trkpt>
      <trkpt lat="43.94499" lon="5.17699">
        <ele>602.4</ele>
        <time>2011-05-02T13:06:49Z</time>
      </trkpt>
      <trkpt lat="43.94489" lon="5.17719">
        <ele>604.33</ele>
        <time>2011-05-02T13:07:06Z</time>
      </trkpt>
      <trkpt lat="43.94487" lon="5.17721">
        <ele>604.33</ele>
        <time>2011-05-02T13:07:08Z</time>
      </trkpt>
      <trkpt lat="43.9448" lon="5.17728">
        <ele>603.85</ele>
        <time>2011-05-02T13:07:16Z</time>
      </trkpt>
      <trkpt lat="43.94476" lon="5.17732">
        <ele>604.81</ele>
        <time>2011-05-02T13:07:20Z</time>
      </trkpt>
      <trkpt lat="43.94474" lon="5.17736">
        <ele>605.29</ele>
        <time>2011-05-02T13:07:24Z</time>
      </trkpt>
      <trkpt lat="43.94465" lon="5.1775">
        <ele>605.77</ele>
        <time>2011-05-02T13:07:39Z</time>
      </trkpt>
      <trkpt lat="43.94462" lon="5.17759">
        <ele>605.77</ele>
        <time>2011-05-02T13:07:45Z</time>
      </trkpt>
      <trkpt lat="43.94458" lon="5.17777">
        <ele>606.73</ele>
        <time>2011-05-02T13:07:59Z</time>
      </trkpt>
      <trkpt lat="43.94458" lon="5.17799">
        <ele>607.69</ele>
        <time>2011-05-02T13:08:16Z</time>
      </trkpt>
      <trkpt lat="43.94458" lon="5.17815">
        <ele>607.69</ele>
        <time>2011-05-02T13:08:27Z</time>
      </trkpt>
      <trkpt lat="43.94454" lon="5.17831">
        <ele>608.17</ele>
        <time>2011-05-02T13:08:40Z</time>
      </trkpt>
      <trkpt lat="43.94449" lon="5.17847">
        <ele>608.65</ele>
        <time>2011-05-02T13:08:53Z</time>
      </trkpt>
      <trkpt lat="43.94445" lon="5.17855">
        <ele>608.17</ele>
        <time>2011-05-02T13:09:00Z</time>
      </trkpt>
      <trkpt lat="43.94442" lon="5.17882">
        <ele>608.17</ele>
        <time>2011-05-02T13:09:15Z</time>
      </trkpt>
      <trkpt lat="43.94438" lon="5.17904">
        <ele>609.13</ele>
        <time>2011-05-02T13:09:29Z</time>
      </trkpt>
      <trkpt lat="43.9443" lon="5.17923">
        <ele>609.13</ele>
        <time>2011-05-02T13:09:44Z</time>
      </trkpt>
      <trkpt lat="43.94427" lon="5.17933">
        <ele>608.65</ele>
        <time>2011-05-02T13:10:01Z</time>
      </trkpt>
      <trkpt lat="43.94428" lon="5.1793">
        <ele>609.13</ele>
        <time>2011-05-02T13:10:14Z</time>
      </trkpt>
      <trkpt lat="43.94426" lon="5.1793">
        <ele>608.17</ele>
        <time>2011-05-02T13:10:27Z</time>
      </trkpt>
      <trkpt lat="43.94426" lon="5.17931">
        <ele>607.21</ele>
        <time>2011-05-02T13:11:04Z</time>
      </trkpt>
      <trkpt lat="43.94426" lon="5.17931">
        <ele>607.69</ele>
        <time>2011-05-02T13:11:40Z</time>
      </trkpt>
      <trkpt lat="43.94427" lon="5.17931">
        <ele>608.65</ele>
        <time>2011-05-02T13:12:00Z</time>
      </trkpt>
      <trkpt lat="43.94427" lon="5.17931">
        <ele>608.17</ele>
        <time>2011-05-02T13:12:19Z</time>
      </trkpt>
      <trkpt lat="43.94426" lon="5.17931">
        <ele>608.65</ele>
        <time>2011-05-02T13:12:44Z</time>
      </trkpt>
      <trkpt lat="43.94426" lon="5.17931">
        <ele>608.17</ele>
        <time>2011-05-02T13:13:15Z</time>
      </trkpt>
      <trkpt lat="43.94424" lon="5.17936">
        <ele>608.65</ele>
        <time>2011-05-02T13:13:38Z</time>
      </trkpt>
      <trkpt lat="43.94421" lon="5.17954">
        <ele>608.17</ele>
        <time>2011-05-02T13:13:53Z</time>
      </trkpt>
      <trkpt lat="43.94417" lon="5.17961">
        <ele>608.17</ele>
        <time>2011-05-02T13:14:05Z</time>
      </trkpt>
      <trkpt lat="43.94415" lon="5.17961">
        <ele>607.69</ele>
        <time>2011-05-02T13:14:07Z</time>
      </trkpt>
      <trkpt lat="43.9441" lon="5.17978">
        <ele>607.21</ele>
        <time>2011-05-02T13:14:19Z</time>
      </trkpt>
      <trkpt lat="43.94408" lon="5.1799">
        <ele>606.73</ele>
        <time>2011-05-02T13:14:28Z</time>
      </trkpt>
      <trkpt lat="43.94411" lon="5.18005">
        <ele>605.29</ele>
        <time>2011-05-02T13:14:37Z</time>
      </trkpt>
      <trkpt lat="43.94412" lon="5.18015">
        <ele>604.81</ele>
        <time>2011-05-02T13:14:42Z</time>
      </trkpt>
      <trkpt lat="43.94421" lon="5.18039">
        <ele>603.36</ele>
        <time>2011-05-02T13:14:57Z</time>
      </trkpt>
      <trkpt lat="43.94427" lon="5.1806">
        <ele>602.4</ele>
        <time>2011-05-02T13:15:10Z</time>
      </trkpt>
      <trkpt lat="43.94438" lon="5.18078">
        <ele>602.4</ele>
        <time>2011-05-02T13:15:24Z</time>
      </trkpt>
      <trkpt lat="43.94446" lon="5.181">
        <ele>601.92</ele>
        <time>2011-05-02T13:15:37Z</time>
      </trkpt>
      <trkpt lat="43.94448" lon="5.18121">
        <ele>602.4</ele>
        <time>2011-05-02T13:15:51Z</time>
      </trkpt>
      <trkpt lat="43.94441" lon="5.18134">
        <ele>601.44</ele>
        <time>2011-05-02T13:16:02Z</time>
      </trkpt>
      <trkpt lat="43.94437" lon="5.18139">
        <ele>601.44</ele>
        <time>2011-05-02T13:16:06Z</time>
      </trkpt>
      <trkpt lat="43.94429" lon="5.18148">
        <ele>600</ele>
        <time>2011-05-02T13:16:18Z</time>
      </trkpt>
      <trkpt lat="43.9442" lon="5.18153">
        <ele>600</ele>
        <time>2011-05-02T13:16:26Z</time>
      </trkpt>
      <trkpt lat="43.944" lon="5.18164">
        <ele>598.56</ele>
        <time>2011-05-02T13:16:42Z</time>
      </trkpt>
      <trkpt lat="43.9439" lon="5.1817">
        <ele>598.08</ele>
        <time>2011-05-02T13:16:51Z</time>
      </trkpt>
      <trkpt lat="43.9437" lon="5.18177">
        <ele>596.15</ele>
        <time>2011-05-02T13:17:07Z</time>
      </trkpt>
      <trkpt lat="43.94368" lon="5.18177">
        <ele>596.15</ele>
        <time>2011-05-02T13:17:08Z</time>
      </trkpt>
      <trkpt lat="43.94349" lon="5.18178">
        <ele>595.19</ele>
        <time>2011-05-02T13:17:23Z</time>
      </trkpt>
      <trkpt lat="43.94337" lon="5.18184">
        <ele>593.27</ele>
        <time>2011-05-02T13:17:35Z</time>
      </trkpt>
      <trkpt lat="43.94327" lon="5.18183">
        <ele>591.35</ele>
        <time>2011-05-02T13:17:43Z</time>
      </trkpt>
      <trkpt lat="43.94311" lon="5.18186">
        <ele>589.91</ele>
        <time>2011-05-02T13:17:58Z</time>
      </trkpt>
      <trkpt lat="43.94299" lon="5.18195">
        <ele>588.95</ele>
        <time>2011-05-02T13:18:11Z</time>
      </trkpt>
      <trkpt lat="43.94286" lon="5.18201">
        <ele>587.5</ele>
        <time>2011-05-02T13:18:24Z</time>
      </trkpt>
      <trkpt lat="43.94284" lon="5.18201">
        <ele>587.5</ele>
        <time>2011-05-02T13:18:26Z</time>
      </trkpt>
      <trkpt lat="43.94278" lon="5.18205">
        <ele>587.02</ele>
        <time>2011-05-02T13:18:31Z</time>
      </trkpt>
      <trkpt lat="43.94273" lon="5.1821">
        <ele>585.58</ele>
        <time>2011-05-02T13:18:39Z</time>
      </trkpt>
      <trkpt lat="43.94268" lon="5.18212">
        <ele>585.1</ele>
        <time>2011-05-02T13:18:44Z</time>
      </trkpt>
      <trkpt lat="43.94259" lon="5.18218">
        <ele>584.14</ele>
        <time>2011-05-02T13:18:54Z</time>
      </trkpt>
      <trkpt lat="43.94247" lon="5.18219">
        <ele>582.22</ele>
        <time>2011-05-02T13:19:07Z</time>
      </trkpt>
      <trkpt lat="43.94232" lon="5.18224">
        <ele>580.77</ele>
        <time>2011-05-02T13:19:23Z</time>
      </trkpt>
      <trkpt lat="43.94231" lon="5.18224">
        <ele>580.29</ele>
        <time>2011-05-02T13:19:24Z</time>
      </trkpt>
      <trkpt lat="43.94216" lon="5.18226">
        <ele>578.37</ele>
        <time>2011-05-02T13:19:39Z</time>
      </trkpt>
      <trkpt lat="43.94215" lon="5.18226">
        <ele>578.37</ele>
        <time>2011-05-02T13:19:40Z</time>
      </trkpt>
      <trkpt lat="43.94201" lon="5.18228">
        <ele>576.93</ele>
        <time>2011-05-02T13:19:55Z</time>
      </trkpt>
      <trkpt lat="43.94193" lon="5.1823">
        <ele>576.45</ele>
        <time>2011-05-02T13:20:09Z</time>
      </trkpt>
      <trkpt lat="43.94193" lon="5.18231">
        <ele>576.93</ele>
        <time>2011-05-02T13:20:15Z</time>
      </trkpt>
      <trkpt lat="43.94188" lon="5.18245">
        <ele>575.49</ele>
        <time>2011-05-02T13:20:28Z</time>
      </trkpt>
      <trkpt lat="43.94175" lon="5.18257">
        <ele>572.6</ele>
        <time>2011-05-02T13:20:42Z</time>
      </trkpt>
      <trkpt lat="43.94172" lon="5.1826">
        <ele>572.12</ele>
        <time>2011-05-02T13:20:45Z</time>
      </trkpt>
      <trkpt lat="43.94163" lon="5.18264">
        <ele>571.16</ele>
        <time>2011-05-02T13:20:54Z</time>
      </trkpt>
      <trkpt lat="43.9415" lon="5.18273">
        <ele>567.8</ele>
        <time>2011-05-02T13:21:10Z</time>
      </trkpt>
      <trkpt lat="43.94141" lon="5.18274">
        <ele>565.39</ele>
        <time>2011-05-02T13:21:24Z</time>
      </trkpt>
      <trkpt lat="43.9413" lon="5.18273">
        <ele>562.99</ele>
        <time>2011-05-02T13:21:41Z</time>
      </trkpt>
      <trkpt lat="43.94122" lon="5.18276">
        <ele>560.11</ele>
        <time>2011-05-02T13:21:55Z</time>
      </trkpt>
      <trkpt lat="43.94117" lon="5.18277">
        <ele>559.14</ele>
        <time>2011-05-02T13:22:09Z</time>
      </trkpt>
      <trkpt lat="43.94114" lon="5.18277">
        <ele>557.22</ele>
        <time>2011-05-02T13:22:28Z</time>
      </trkpt>
      <trkpt lat="43.94103" lon="5.18277">
        <ele>555.78</ele>
        <time>2011-05-02T13:22:42Z</time>
      </trkpt>
      <trkpt lat="43.94097" lon="5.1828">
        <ele>553.38</ele>
        <time>2011-05-02T13:22:56Z</time>
      </trkpt>
      <trkpt lat="43.94094" lon="5.18282">
        <ele>552.9</ele>
        <time>2011-05-02T13:23:00Z</time>
      </trkpt>
      <trkpt lat="43.94078" lon="5.1828">
        <ele>550.97</ele>
        <time>2011-05-02T13:23:16Z</time>
      </trkpt>
      <trkpt lat="43.94068" lon="5.18285">
        <ele>549.05</ele>
        <time>2011-05-02T13:23:30Z</time>
      </trkpt>
      <trkpt lat="43.94058" lon="5.18293">
        <ele>547.13</ele>
        <time>2011-05-02T13:23:46Z</time>
      </trkpt>
      <trkpt lat="43.94058" lon="5.18294">
        <ele>547.61</ele>
        <time>2011-05-02T13:23:47Z</time>
      </trkpt>
      <trkpt lat="43.94053" lon="5.18296">
        <ele>546.65</ele>
        <time>2011-05-02T13:23:52Z</time>
      </trkpt>
      <trkpt lat="43.94044" lon="5.18304">
        <ele>544.72</ele>
        <time>2011-05-02T13:24:07Z</time>
      </trkpt>
      <trkpt lat="43.94038" lon="5.18314">
        <ele>543.28</ele>
        <time>2011-05-02T13:24:19Z</time>
      </trkpt>
      <trkpt lat="43.94028" lon="5.1832">
        <ele>542.8</ele>
        <time>2011-05-02T13:24:33Z</time>
      </trkpt>
      <trkpt lat="43.94021" lon="5.1833">
        <ele>540.88</ele>
        <time>2011-05-02T13:24:48Z</time>
      </trkpt>
      <trkpt lat="43.94014" lon="5.18338">
        <ele>539.44</ele>
        <time>2011-05-02T13:25:03Z</time>
      </trkpt>
      <trkpt lat="43.94012" lon="5.18343">
        <ele>538.48</ele>
        <time>2011-05-02T13:25:23Z</time>
      </trkpt>
      <trkpt lat="43.94008" lon="5.18346">
        <ele>536.55</ele>
        <time>2011-05-02T13:25:40Z</time>
      </trkpt>
      <trkpt lat="43.93999" lon="5.18353">
        <ele>534.63</ele>
        <time>2011-05-02T13:25:55Z</time>
      </trkpt>
      <trkpt lat="43.93989" lon="5.18357">
        <ele>532.71</ele>
        <time>2011-05-02T13:26:09Z</time>
      </trkpt>
      <trkpt lat="43.93984" lon="5.18361">
        <ele>531.75</ele>
        <time>2011-05-02T13:26:16Z</time>
      </trkpt>
      <trkpt lat="43.93974" lon="5.18371">
        <ele>529.82</ele>
        <time>2011-05-02T13:26:31Z</time>
      </trkpt>
      <trkpt lat="43.93966" lon="5.18377">
        <ele>526.94</ele>
        <time>2011-05-02T13:26:44Z</time>
      </trkpt>
      <trkpt lat="43.93956" lon="5.18389">
        <ele>525.02</ele>
        <time>2011-05-02T13:27:00Z</time>
      </trkpt>
      <trkpt lat="43.93949" lon="5.18392">
        <ele>524.54</ele>
        <time>2011-05-02T13:27:14Z</time>
      </trkpt>
      <trkpt lat="43.93945" lon="5.18392">
        <ele>524.54</ele>
        <time>2011-05-02T13:27:38Z</time>
      </trkpt>
      <trkpt lat="43.93937" lon="5.18397">
        <ele>521.65</ele>
        <time>2011-05-02T13:27:51Z</time>
      </trkpt>
      <trkpt lat="43.93922" lon="5.18405">
        <ele>519.73</ele>
        <time>2011-05-02T13:28:05Z</time>
      </trkpt>
      <trkpt lat="43.93912" lon="5.18414">
        <ele>517.81</ele>
        <time>2011-05-02T13:28:19Z</time>
      </trkpt>
      <trkpt lat="43.93909" lon="5.18417">
        <ele>516.85</ele>
        <time>2011-05-02T13:28:25Z</time>
      </trkpt>
      <trkpt lat="43.939" lon="5.18425">
        <ele>514.44</ele>
        <time>2011-05-02T13:28:39Z</time>
      </trkpt>
      <trkpt lat="43.93892" lon="5.18435">
        <ele>512.04</ele>
        <time>2011-05-02T13:28:54Z</time>
      </trkpt>
      <trkpt lat="43.93887" lon="5.18441">
        <ele>510.12</ele>
        <time>2011-05-02T13:29:10Z</time>
      </trkpt>
      <trkpt lat="43.93882" lon="5.18452">
        <ele>508.19</ele>
        <time>2011-05-02T13:29:24Z</time>
      </trkpt>
      <trkpt lat="43.93878" lon="5.1846">
        <ele>506.27</ele>
        <time>2011-05-02T13:29:37Z</time>
      </trkpt>
      <trkpt lat="43.93874" lon="5.18471">
        <ele>504.35</ele>
        <time>2011-05-02T13:29:52Z</time>
      </trkpt>
      <trkpt lat="43.93868" lon="5.18479">
        <ele>501.95</ele>
        <time>2011-05-02T13:30:06Z</time>
      </trkpt>
      <trkpt lat="43.93861" lon="5.1849">
        <ele>499.54</ele>
        <time>2011-05-02T13:30:20Z</time>
      </trkpt>
      <trkpt lat="43.93857" lon="5.18493">
        <ele>499.06</ele>
        <time>2011-05-02T13:30:32Z</time>
      </trkpt>
      <trkpt lat="43.93848" lon="5.18499">
        <ele>497.62</ele>
        <time>2011-05-02T13:30:44Z</time>
      </trkpt>
      <trkpt lat="43.93834" lon="5.18508">
        <ele>495.7</ele>
        <time>2011-05-02T13:30:59Z</time>
      </trkpt>
      <trkpt lat="43.93829" lon="5.18509">
        <ele>496.18</ele>
        <time>2011-05-02T13:31:04Z</time>
      </trkpt>
      <trkpt lat="43.93815" lon="5.18516">
        <ele>495.22</ele>
        <time>2011-05-02T13:31:19Z</time>
      </trkpt>
      <trkpt lat="43.93806" lon="5.18517">
        <ele>494.26</ele>
        <time>2011-05-02T13:31:26Z</time>
      </trkpt>
      <trkpt lat="43.9379" lon="5.18522">
        <ele>493.29</ele>
        <time>2011-05-02T13:31:42Z</time>
      </trkpt>
      <trkpt lat="43.93786" lon="5.18525">
        <ele>492.81</ele>
        <time>2011-05-02T13:31:48Z</time>
      </trkpt>
      <trkpt lat="43.93777" lon="5.18535">
        <ele>490.89</ele>
        <time>2011-05-02T13:32:03Z</time>
      </trkpt>
      <trkpt lat="43.93767" lon="5.1854">
        <ele>489.93</ele>
        <time>2011-05-02T13:32:12Z</time>
      </trkpt>
      <trkpt lat="43.93755" lon="5.18552">
        <ele>489.45</ele>
        <time>2011-05-02T13:32:24Z</time>
      </trkpt>
      <trkpt lat="43.93749" lon="5.18567">
        <ele>487.05</ele>
        <time>2011-05-02T13:32:39Z</time>
      </trkpt>
      <trkpt lat="43.93747" lon="5.18571">
        <ele>487.05</ele>
        <time>2011-05-02T13:32:43Z</time>
      </trkpt>
      <trkpt lat="43.93744" lon="5.18589">
        <ele>486.08</ele>
        <time>2011-05-02T13:32:57Z</time>
      </trkpt>
      <trkpt lat="43.93743" lon="5.18605">
        <ele>484.64</ele>
        <time>2011-05-02T13:33:11Z</time>
      </trkpt>
      <trkpt lat="43.93742" lon="5.18611">
        <ele>484.64</ele>
        <time>2011-05-02T13:33:15Z</time>
      </trkpt>
      <trkpt lat="43.93737" lon="5.18632">
        <ele>482.72</ele>
        <time>2011-05-02T13:33:31Z</time>
      </trkpt>
      <trkpt lat="43.93737" lon="5.18633">
        <ele>483.2</ele>
        <time>2011-05-02T13:33:32Z</time>
      </trkpt>
      <trkpt lat="43.9373" lon="5.18645">
        <ele>483.2</ele>
        <time>2011-05-02T13:33:42Z</time>
      </trkpt>
      <trkpt lat="43.93726" lon="5.18653">
        <ele>484.16</ele>
        <time>2011-05-02T13:33:55Z</time>
      </trkpt>
      <trkpt lat="43.93723" lon="5.18665">
        <ele>482.72</ele>
        <time>2011-05-02T13:34:07Z</time>
      </trkpt>
      <trkpt lat="43.93717" lon="5.1868">
        <ele>482.24</ele>
        <time>2011-05-02T13:34:21Z</time>
      </trkpt>
      <trkpt lat="43.93707" lon="5.1869">
        <ele>480.8</ele>
        <time>2011-05-02T13:34:35Z</time>
      </trkpt>
      <trkpt lat="43.937" lon="5.18696">
        <ele>478.87</ele>
        <time>2011-05-02T13:34:48Z</time>
      </trkpt>
      <trkpt lat="43.93695" lon="5.18697">
        <ele>478.87</ele>
        <time>2011-05-02T13:34:53Z</time>
      </trkpt>
      <trkpt lat="43.93685" lon="5.187">
        <ele>477.91</ele>
        <time>2011-05-02T13:35:07Z</time>
      </trkpt>
      <trkpt lat="43.93683" lon="5.187">
        <ele>477.91</ele>
        <time>2011-05-02T13:35:36Z</time>
      </trkpt>
      <trkpt lat="43.9368" lon="5.18702">
        <ele>475.99</ele>
        <time>2011-05-02T13:35:51Z</time>
      </trkpt>
      <trkpt lat="43.93675" lon="5.18703">
        <ele>475.03</ele>
        <time>2011-05-02T13:36:01Z</time>
      </trkpt>
      <trkpt lat="43.93667" lon="5.18706">
        <ele>473.11</ele>
        <time>2011-05-02T13:36:17Z</time>
      </trkpt>
      <trkpt lat="43.93664" lon="5.18706">
        <ele>472.14</ele>
        <time>2011-05-02T13:36:26Z</time>
      </trkpt>
      <trkpt lat="43.93658" lon="5.18707">
        <ele>471.66</ele>
        <time>2011-05-02T13:36:32Z</time>
      </trkpt>
      <trkpt lat="43.93649" lon="5.18708">
        <ele>469.74</ele>
        <time>2011-05-02T13:36:47Z</time>
      </trkpt>
      <trkpt lat="43.9364" lon="5.18711">
        <ele>467.34</ele>
        <time>2011-05-02T13:36:59Z</time>
      </trkpt>
      <trkpt lat="43.93638" lon="5.18711">
        <ele>466.38</ele>
        <time>2011-05-02T13:37:16Z</time>
      </trkpt>
      <trkpt lat="43.93631" lon="5.18711">
        <ele>464.93</ele>
        <time>2011-05-02T13:37:27Z</time>
      </trkpt>
      <trkpt lat="43.93622" lon="5.18712">
        <ele>463.01</ele>
        <time>2011-05-02T13:37:40Z</time>
      </trkpt>
      <trkpt lat="43.93618" lon="5.18712">
        <ele>462.05</ele>
        <time>2011-05-02T13:37:56Z</time>
      </trkpt>
      <trkpt lat="43.93612" lon="5.18716">
        <ele>460.13</ele>
        <time>2011-05-02T13:38:10Z</time>
      </trkpt>
      <trkpt lat="43.93609" lon="5.18716">
        <ele>457.72</ele>
        <time>2011-05-02T13:38:23Z</time>
      </trkpt>
      <trkpt lat="43.93604" lon="5.18715">
        <ele>457.24</ele>
        <time>2011-05-02T13:38:39Z</time>
      </trkpt>
      <trkpt lat="43.936" lon="5.18715">
        <ele>456.28</ele>
        <time>2011-05-02T13:38:44Z</time>
      </trkpt>
      <trkpt lat="43.93591" lon="5.18716">
        <ele>454.36</ele>
        <time>2011-05-02T13:38:55Z</time>
      </trkpt>
      <trkpt lat="43.93582" lon="5.18721">
        <ele>451.48</ele>
        <time>2011-05-02T13:39:09Z</time>
      </trkpt>
      <trkpt lat="43.93565" lon="5.18724">
        <ele>449.07</ele>
        <time>2011-05-02T13:39:23Z</time>
      </trkpt>
      <trkpt lat="43.93551" lon="5.18728">
        <ele>447.63</ele>
        <time>2011-05-02T13:39:37Z</time>
      </trkpt>
      <trkpt lat="43.9354" lon="5.18733">
        <ele>445.71</ele>
        <time>2011-05-02T13:39:49Z</time>
      </trkpt>
      <trkpt lat="43.93537" lon="5.18734">
        <ele>445.23</ele>
        <time>2011-05-02T13:39:54Z</time>
      </trkpt>
      <trkpt lat="43.93533" lon="5.18739">
        <ele>444.27</ele>
        <time>2011-05-02T13:39:59Z</time>
      </trkpt>
      <trkpt lat="43.9353" lon="5.18743">
        <ele>443.79</ele>
        <time>2011-05-02T13:40:04Z</time>
      </trkpt>
      <trkpt lat="43.93515" lon="5.18747">
        <ele>442.34</ele>
        <time>2011-05-02T13:40:19Z</time>
      </trkpt>
      <trkpt lat="43.93507" lon="5.18751">
        <ele>440.9</ele>
        <time>2011-05-02T13:40:28Z</time>
      </trkpt>
      <trkpt lat="43.93492" lon="5.18753">
        <ele>439.46</ele>
        <time>2011-05-02T13:40:43Z</time>
      </trkpt>
      <trkpt lat="43.9349" lon="5.18754">
        <ele>438.5</ele>
        <time>2011-05-02T13:40:46Z</time>
      </trkpt>
      <trkpt lat="43.93482" lon="5.18754">
        <ele>436.58</ele>
        <time>2011-05-02T13:41:00Z</time>
      </trkpt>
      <trkpt lat="43.9347" lon="5.18754">
        <ele>435.13</ele>
        <time>2011-05-02T13:41:17Z</time>
      </trkpt>
      <trkpt lat="43.93467" lon="5.18754">
        <ele>434.17</ele>
        <time>2011-05-02T13:41:21Z</time>
      </trkpt>
      <trkpt lat="43.93455" lon="5.18752">
        <ele>431.77</ele>
        <time>2011-05-02T13:41:37Z</time>
      </trkpt>
      <trkpt lat="43.93453" lon="5.18751">
        <ele>431.77</ele>
        <time>2011-05-02T13:41:39Z</time>
      </trkpt>
      <trkpt lat="43.93439" lon="5.18744">
        <ele>430.33</ele>
        <time>2011-05-02T13:41:53Z</time>
      </trkpt>
      <trkpt lat="43.93431" lon="5.18742">
        <ele>428.89</ele>
        <time>2011-05-02T13:42:07Z</time>
      </trkpt>
      <trkpt lat="43.93422" lon="5.18741">
        <ele>426.96</ele>
        <time>2011-05-02T13:42:21Z</time>
      </trkpt>
      <trkpt lat="43.93411" lon="5.18746">
        <ele>423.6</ele>
        <time>2011-05-02T13:42:37Z</time>
      </trkpt>
      <trkpt lat="43.93399" lon="5.18751">
        <ele>421.19</ele>
        <time>2011-05-02T13:42:53Z</time>
      </trkpt>
      <trkpt lat="43.93386" lon="5.18749">
        <ele>419.27</ele>
        <time>2011-05-02T13:43:07Z</time>
      </trkpt>
      <trkpt lat="43.93376" lon="5.18755">
        <ele>416.39</ele>
        <time>2011-05-02T13:43:23Z</time>
      </trkpt>
      <trkpt lat="43.93366" lon="5.18755">
        <ele>413.5</ele>
        <time>2011-05-02T13:43:38Z</time>
      </trkpt>
      <trkpt lat="43.93355" lon="5.18759">
        <ele>412.06</ele>
        <time>2011-05-02T13:43:52Z</time>
      </trkpt>
      <trkpt lat="43.93351" lon="5.1876">
        <ele>412.54</ele>
        <time>2011-05-02T13:44:07Z</time>
      </trkpt>
      <trkpt lat="43.93348" lon="5.18762">
        <ele>412.54</ele>
        <time>2011-05-02T13:44:21Z</time>
      </trkpt>
      <trkpt lat="43.93341" lon="5.18762">
        <ele>409.18</ele>
        <time>2011-05-02T13:44:38Z</time>
      </trkpt>
      <trkpt lat="43.93334" lon="5.1876">
        <ele>407.26</ele>
        <time>2011-05-02T13:44:54Z</time>
      </trkpt>
      <trkpt lat="43.93333" lon="5.1876">
        <ele>407.26</ele>
        <time>2011-05-02T13:44:55Z</time>
      </trkpt>
      <trkpt lat="43.93327" lon="5.18768">
        <ele>404.37</ele>
        <time>2011-05-02T13:45:13Z</time>
      </trkpt>
      <trkpt lat="43.93329" lon="5.18785">
        <ele>402.45</ele>
        <time>2011-05-02T13:45:28Z</time>
      </trkpt>
      <trkpt lat="43.93338" lon="5.18799">
        <ele>401.97</ele>
        <time>2011-05-02T13:45:42Z</time>
      </trkpt>
      <trkpt lat="43.93346" lon="5.18809">
        <ele>401.97</ele>
        <time>2011-05-02T13:45:51Z</time>
      </trkpt>
      <trkpt lat="43.93354" lon="5.18816">
        <ele>401.01</ele>
        <time>2011-05-02T13:45:59Z</time>
      </trkpt>
      <trkpt lat="43.93358" lon="5.18828">
        <ele>401.01</ele>
        <time>2011-05-02T13:46:11Z</time>
      </trkpt>
      <trkpt lat="43.93366" lon="5.18834">
        <ele>400.53</ele>
        <time>2011-05-02T13:46:20Z</time>
      </trkpt>
      <trkpt lat="43.9338" lon="5.1885">
        <ele>401.01</ele>
        <time>2011-05-02T13:46:35Z</time>
      </trkpt>
      <trkpt lat="43.93395" lon="5.1886">
        <ele>401.01</ele>
        <time>2011-05-02T13:46:52Z</time>
      </trkpt>
      <trkpt lat="43.93395" lon="5.18861">
        <ele>401.01</ele>
        <time>2011-05-02T13:47:09Z</time>
      </trkpt>
      <trkpt lat="43.93394" lon="5.18863">
        <ele>399.57</ele>
        <time>2011-05-02T13:47:28Z</time>
      </trkpt>
      <trkpt lat="43.93393" lon="5.18866">
        <ele>399.57</ele>
        <time>2011-05-02T13:47:42Z</time>
      </trkpt>
      <trkpt lat="43.93391" lon="5.18868">
        <ele>399.08</ele>
        <time>2011-05-02T13:47:44Z</time>
      </trkpt>
      <trkpt lat="43.93387" lon="5.1887">
        <ele>398.6</ele>
        <time>2011-05-02T13:47:49Z</time>
      </trkpt>
      <trkpt lat="43.9337" lon="5.1887">
        <ele>397.16</ele>
        <time>2011-05-02T13:48:04Z</time>
      </trkpt>
      <trkpt lat="43.93353" lon="5.1887">
        <ele>396.2</ele>
        <time>2011-05-02T13:48:18Z</time>
      </trkpt>
      <trkpt lat="43.93336" lon="5.18878">
        <ele>395.24</ele>
        <time>2011-05-02T13:48:34Z</time>
      </trkpt>
      <trkpt lat="43.93334" lon="5.18878">
        <ele>394.76</ele>
        <time>2011-05-02T13:48:36Z</time>
      </trkpt>
      <trkpt lat="43.93319" lon="5.18887">
        <ele>394.28</ele>
        <time>2011-05-02T13:48:50Z</time>
      </trkpt>
      <trkpt lat="43.93305" lon="5.18896">
        <ele>391.87</ele>
        <time>2011-05-02T13:49:04Z</time>
      </trkpt>
      <trkpt lat="43.9329" lon="5.18901">
        <ele>391.39</ele>
        <time>2011-05-02T13:49:18Z</time>
      </trkpt>
      <trkpt lat="43.93272" lon="5.18904">
        <ele>389.95</ele>
        <time>2011-05-02T13:49:33Z</time>
      </trkpt>
      <trkpt lat="43.93258" lon="5.1891">
        <ele>388.51</ele>
        <time>2011-05-02T13:49:48Z</time>
      </trkpt>
      <trkpt lat="43.93249" lon="5.18916">
        <ele>388.03</ele>
        <time>2011-05-02T13:50:00Z</time>
      </trkpt>
      <trkpt lat="43.93244" lon="5.18917">
        <ele>388.51</ele>
        <time>2011-05-02T13:50:06Z</time>
      </trkpt>
      <trkpt lat="43.93242" lon="5.18917">
        <ele>388.51</ele>
        <time>2011-05-02T13:50:08Z</time>
      </trkpt>
      <trkpt lat="43.93227" lon="5.18919">
        <ele>389.47</ele>
        <time>2011-05-02T13:50:24Z</time>
      </trkpt>
      <trkpt lat="43.93207" lon="5.18914">
        <ele>389.47</ele>
        <time>2011-05-02T13:50:40Z</time>
      </trkpt>
      <trkpt lat="43.93193" lon="5.18907">
        <ele>389.47</ele>
        <time>2011-05-02T13:50:53Z</time>
      </trkpt>
      <trkpt lat="43.93177" lon="5.18902">
        <ele>388.99</ele>
        <time>2011-05-02T13:51:05Z</time>
      </trkpt>
      <trkpt lat="43.93163" lon="5.18897">
        <ele>389.47</ele>
        <time>2011-05-02T13:51:19Z</time>
      </trkpt>
      <trkpt lat="43.93146" lon="5.18894">
        <ele>388.03</ele>
        <time>2011-05-02T13:51:33Z</time>
      </trkpt>
      <trkpt lat="43.93131" lon="5.18891">
        <ele>388.51</ele>
        <time>2011-05-02T13:51:47Z</time>
      </trkpt>
      <trkpt lat="43.93114" lon="5.18889">
        <ele>388.03</ele>
        <time>2011-05-02T13:52:01Z</time>
      </trkpt>
      <trkpt lat="43.93096" lon="5.18889">
        <ele>387.55</ele>
        <time>2011-05-02T13:52:15Z</time>
      </trkpt>
      <trkpt lat="43.93079" lon="5.18892">
        <ele>387.07</ele>
        <time>2011-05-02T13:52:29Z</time>
      </trkpt>
      <trkpt lat="43.93068" lon="5.18893">
        <ele>386.11</ele>
        <time>2011-05-02T13:52:39Z</time>
      </trkpt>
      <trkpt lat="43.93062" lon="5.18888">
        <ele>386.11</ele>
        <time>2011-05-02T13:52:53Z</time>
      </trkpt>
      <trkpt lat="43.93062" lon="5.18888">
        <ele>386.11</ele>
        <time>2011-05-02T13:53:15Z</time>
      </trkpt>
      <trkpt lat="43.93062" lon="5.18891">
        <ele>386.59</ele>
        <time>2011-05-02T13:53:21Z</time>
      </trkpt>
      <trkpt lat="43.93063" lon="5.18894">
        <ele>386.59</ele>
        <time>2011-05-02T13:53:25Z</time>
      </trkpt>
      <trkpt lat="43.93078" lon="5.18903">
        <ele>387.55</ele>
        <time>2011-05-02T13:53:43Z</time>
      </trkpt>
      <trkpt lat="43.93078" lon="5.18906">
        <ele>387.55</ele>
        <time>2011-05-02T13:53:45Z</time>
      </trkpt>
      <trkpt lat="43.93081" lon="5.18913">
        <ele>388.03</ele>
        <time>2011-05-02T13:53:53Z</time>
      </trkpt>
      <trkpt lat="43.93092" lon="5.18921">
        <ele>390.43</ele>
        <time>2011-05-02T13:54:07Z</time>
      </trkpt>
      <trkpt lat="43.93101" lon="5.18922">
        <ele>391.39</ele>
        <time>2011-05-02T13:54:22Z</time>
      </trkpt>
      <trkpt lat="43.93102" lon="5.18924">
        <ele>391.39</ele>
        <time>2011-05-02T13:54:43Z</time>
      </trkpt>
      <trkpt lat="43.93103" lon="5.18924">
        <ele>391.39</ele>
        <time>2011-05-02T13:54:44Z</time>
      </trkpt>
      <trkpt lat="43.93106" lon="5.18928">
        <ele>390.91</ele>
        <time>2011-05-02T13:54:58Z</time>
      </trkpt>
      <trkpt lat="43.93106" lon="5.18929">
        <ele>391.39</ele>
        <time>2011-05-02T13:55:18Z</time>
      </trkpt>
      <trkpt lat="43.93106" lon="5.18929">
        <ele>391.87</ele>
        <time>2011-05-02T13:55:47Z</time>
      </trkpt>
      <trkpt lat="43.93107" lon="5.18929">
        <ele>391.87</ele>
        <time>2011-05-02T13:56:15Z</time>
      </trkpt>
      <trkpt lat="43.93106" lon="5.18929">
        <ele>390.91</ele>
        <time>2011-05-02T13:56:29Z</time>
      </trkpt>
      <trkpt lat="43.93106" lon="5.18929">
        <ele>390.91</ele>
        <time>2011-05-02T13:57:01Z</time>
      </trkpt>
      <trkpt lat="43.93107" lon="5.1893">
        <ele>391.39</ele>
        <time>2011-05-02T13:57:32Z</time>
      </trkpt>
      <trkpt lat="43.93107" lon="5.1893">
        <ele>391.39</ele>
        <time>2011-05-02T13:58:11Z</time>
      </trkpt>
      <trkpt lat="43.93107" lon="5.1893">
        <ele>390.91</ele>
        <time>2011-05-02T13:58:46Z</time>
      </trkpt>
      <trkpt lat="43.93107" lon="5.1893">
        <ele>391.87</ele>
        <time>2011-05-02T13:59:21Z</time>
      </trkpt>
      <trkpt lat="43.93107" lon="5.1893">
        <ele>391.39</ele>
        <time>2011-05-02T13:59:56Z</time>
      </trkpt>
      <trkpt lat="43.93107" lon="5.1893">
        <ele>391.39</ele>
        <time>2011-05-02T14:00:38Z</time>
      </trkpt>
      <trkpt lat="43.93107" lon="5.1893">
        <ele>391.39</ele>
        <time>2011-05-02T14:01:10Z</time>
      </trkpt>
      <trkpt lat="43.93107" lon="5.1893">
        <ele>389.47</ele>
        <time>2011-05-02T14:01:34Z</time>
      </trkpt>
      <trkpt lat="43.93107" lon="5.1893">
        <ele>391.87</ele>
        <time>2011-05-02T14:01:58Z</time>
      </trkpt>
      <trkpt lat="43.93108" lon="5.1893">
        <ele>391.39</ele>
        <time>2011-05-02T14:02:25Z</time>
      </trkpt>
      <trkpt lat="43.93108" lon="5.1893">
        <ele>390.91</ele>
        <time>2011-05-02T14:02:48Z</time>
      </trkpt>
      <trkpt lat="43.93108" lon="5.18929">
        <ele>391.39</ele>
        <time>2011-05-02T14:03:22Z</time>
      </trkpt>
      <trkpt lat="43.93108" lon="5.18929">
        <ele>390.91</ele>
        <time>2011-05-02T14:03:42Z</time>
      </trkpt>
      <trkpt lat="43.93108" lon="5.18931">
        <ele>391.39</ele>
        <time>2011-05-02T14:04:15Z</time>
      </trkpt>
      <trkpt lat="43.93108" lon="5.18931">
        <ele>391.39</ele>
        <time>2011-05-02T14:04:45Z</time>
      </trkpt>
      <trkpt lat="43.93108" lon="5.18931">
        <ele>390.91</ele>
        <time>2011-05-02T14:05:08Z</time>
      </trkpt>
      <trkpt lat="43.93108" lon="5.18931">
        <ele>390.91</ele>
        <time>2011-05-02T14:05:30Z</time>
      </trkpt>
      <trkpt lat="43.93108" lon="5.18931">
        <ele>390.91</ele>
        <time>2011-05-02T14:05:59Z</time>
      </trkpt>
      <trkpt lat="43.93109" lon="5.18932">
        <ele>390.91</ele>
        <time>2011-05-02T14:06:33Z</time>
      </trkpt>
      <trkpt lat="43.93109" lon="5.18932">
        <ele>390.43</ele>
        <time>2011-05-02T14:07:02Z</time>
      </trkpt>
      <trkpt lat="43.93108" lon="5.18932">
        <ele>390.91</ele>
        <time>2011-05-02T14:07:30Z</time>
      </trkpt>
      <trkpt lat="43.93108" lon="5.18932">
        <ele>390.43</ele>
        <time>2011-05-02T14:08:01Z</time>
      </trkpt>
      <trkpt lat="43.93108" lon="5.18931">
        <ele>390.91</ele>
        <time>2011-05-02T14:08:29Z</time>
      </trkpt>
      <trkpt lat="43.93108" lon="5.18932">
        <ele>390.91</ele>
        <time>2011-05-02T14:09:05Z</time>
      </trkpt>
      <trkpt lat="43.93108" lon="5.18932">
        <ele>391.39</ele>
        <time>2011-05-02T14:09:41Z</time>
      </trkpt>
      <trkpt lat="43.93108" lon="5.18932">
        <ele>390.43</ele>
        <time>2011-05-02T14:10:00Z</time>
      </trkpt>
      <trkpt lat="43.93108" lon="5.18932">
        <ele>392.36</ele>
        <time>2011-05-02T14:10:25Z</time>
      </trkpt>
      <trkpt lat="43.93108" lon="5.18931">
        <ele>391.39</ele>
        <time>2011-05-02T14:10:40Z</time>
      </trkpt>
      <trkpt lat="43.93104" lon="5.18927">
        <ele>390.91</ele>
        <time>2011-05-02T14:10:49Z</time>
      </trkpt>
      <trkpt lat="43.93094" lon="5.18921">
        <ele>389.47</ele>
        <time>2011-05-02T14:11:04Z</time>
      </trkpt>
      <trkpt lat="43.93091" lon="5.18921">
        <ele>388.99</ele>
        <time>2011-05-02T14:11:08Z</time>
      </trkpt>
      <trkpt lat="43.93082" lon="5.18918">
        <ele>388.99</ele>
        <time>2011-05-02T14:11:17Z</time>
      </trkpt>
      <trkpt lat="43.93068" lon="5.18915">
        <ele>388.99</ele>
        <time>2011-05-02T14:11:33Z</time>
      </trkpt>
      <trkpt lat="43.93055" lon="5.1891">
        <ele>388.51</ele>
        <time>2011-05-02T14:11:47Z</time>
      </trkpt>
      <trkpt lat="43.93048" lon="5.18908">
        <ele>388.99</ele>
        <time>2011-05-02T14:12:00Z</time>
      </trkpt>
      <trkpt lat="43.93045" lon="5.18906">
        <ele>388.99</ele>
        <time>2011-05-02T14:12:03Z</time>
      </trkpt>
      <trkpt lat="43.93034" lon="5.18901">
        <ele>389.95</ele>
        <time>2011-05-02T14:12:18Z</time>
      </trkpt>
      <trkpt lat="43.93033" lon="5.18901">
        <ele>389.47</ele>
        <time>2011-05-02T14:12:20Z</time>
      </trkpt>
      <trkpt lat="43.93017" lon="5.18897">
        <ele>391.39</ele>
        <time>2011-05-02T14:12:36Z</time>
      </trkpt>
      <trkpt lat="43.93004" lon="5.18894">
        <ele>393.8</ele>
        <time>2011-05-02T14:12:52Z</time>
      </trkpt>
      <trkpt lat="43.92993" lon="5.18895">
        <ele>395.72</ele>
        <time>2011-05-02T14:13:08Z</time>
      </trkpt>
      <trkpt lat="43.92986" lon="5.18893">
        <ele>396.2</ele>
        <time>2011-05-02T14:13:22Z</time>
      </trkpt>
      <trkpt lat="43.92978" lon="5.18892">
        <ele>398.12</ele>
        <time>2011-05-02T14:13:35Z</time>
      </trkpt>
      <trkpt lat="43.92971" lon="5.18893">
        <ele>399.57</ele>
        <time>2011-05-02T14:13:50Z</time>
      </trkpt>
      <trkpt lat="43.92965" lon="5.18893">
        <ele>401.49</ele>
        <time>2011-05-02T14:14:05Z</time>
      </trkpt>
      <trkpt lat="43.9296" lon="5.18893">
        <ele>402.45</ele>
        <time>2011-05-02T14:14:18Z</time>
      </trkpt>
      <trkpt lat="43.92952" lon="5.18894">
        <ele>404.37</ele>
        <time>2011-05-02T14:14:30Z</time>
      </trkpt>
      <trkpt lat="43.92944" lon="5.18898">
        <ele>406.29</ele>
        <time>2011-05-02T14:14:46Z</time>
      </trkpt>
      <trkpt lat="43.92933" lon="5.18897">
        <ele>407.26</ele>
        <time>2011-05-02T14:15:01Z</time>
      </trkpt>
      <trkpt lat="43.92924" lon="5.18897">
        <ele>408.22</ele>
        <time>2011-05-02T14:15:13Z</time>
      </trkpt>
      <trkpt lat="43.92914" lon="5.18895">
        <ele>409.18</ele>
        <time>2011-05-02T14:15:28Z</time>
      </trkpt>
      <trkpt lat="43.92906" lon="5.18896">
        <ele>411.1</ele>
        <time>2011-05-02T14:15:44Z</time>
      </trkpt>
      <trkpt lat="43.92894" lon="5.18897">
        <ele>412.06</ele>
        <time>2011-05-02T14:16:01Z</time>
      </trkpt>
      <trkpt lat="43.92886" lon="5.18895">
        <ele>414.47</ele>
        <time>2011-05-02T14:16:16Z</time>
      </trkpt>
      <trkpt lat="43.92876" lon="5.18891">
        <ele>415.43</ele>
        <time>2011-05-02T14:16:32Z</time>
      </trkpt>
      <trkpt lat="43.92867" lon="5.18883">
        <ele>415.91</ele>
        <time>2011-05-02T14:16:45Z</time>
      </trkpt>
      <trkpt lat="43.92857" lon="5.18879">
        <ele>416.87</ele>
        <time>2011-05-02T14:16:58Z</time>
      </trkpt>
      <trkpt lat="43.92853" lon="5.18876">
        <ele>417.35</ele>
        <time>2011-05-02T14:17:11Z</time>
      </trkpt>
      <trkpt lat="43.92851" lon="5.18873">
        <ele>417.35</ele>
        <time>2011-05-02T14:17:25Z</time>
      </trkpt>
      <trkpt lat="43.92838" lon="5.18864">
        <ele>418.31</ele>
        <time>2011-05-02T14:17:40Z</time>
      </trkpt>
      <trkpt lat="43.92825" lon="5.18857">
        <ele>418.79</ele>
        <time>2011-05-02T14:17:55Z</time>
      </trkpt>
      <trkpt lat="43.92813" lon="5.18849">
        <ele>418.79</ele>
        <time>2011-05-02T14:18:09Z</time>
      </trkpt>
      <trkpt lat="43.9281" lon="5.18845">
        <ele>419.27</ele>
        <time>2011-05-02T14:18:29Z</time>
      </trkpt>
      <trkpt lat="43.92802" lon="5.18835">
        <ele>419.27</ele>
        <time>2011-05-02T14:18:44Z</time>
      </trkpt>
      <trkpt lat="43.92788" lon="5.18822">
        <ele>420.23</ele>
        <time>2011-05-02T14:19:01Z</time>
      </trkpt>
      <trkpt lat="43.92785" lon="5.1882">
        <ele>419.27</ele>
        <time>2011-05-02T14:19:16Z</time>
      </trkpt>
      <trkpt lat="43.92784" lon="5.1882">
        <ele>419.27</ele>
        <time>2011-05-02T14:19:36Z</time>
      </trkpt>
      <trkpt lat="43.92784" lon="5.1882">
        <ele>418.79</ele>
        <time>2011-05-02T14:19:59Z</time>
      </trkpt>
      <trkpt lat="43.92777" lon="5.18813">
        <ele>420.23</ele>
        <time>2011-05-02T14:20:19Z</time>
      </trkpt>
      <trkpt lat="43.92762" lon="5.18801">
        <ele>421.19</ele>
        <time>2011-05-02T14:20:37Z</time>
      </trkpt>
      <trkpt lat="43.92758" lon="5.18796">
        <ele>421.19</ele>
        <time>2011-05-02T14:20:53Z</time>
      </trkpt>
      <trkpt lat="43.92756" lon="5.18795">
        <ele>421.68</ele>
        <time>2011-05-02T14:21:12Z</time>
      </trkpt>
      <trkpt lat="43.92754" lon="5.18794">
        <ele>422.64</ele>
        <time>2011-05-02T14:21:14Z</time>
      </trkpt>
      <trkpt lat="43.9275" lon="5.18792">
        <ele>422.64</ele>
        <time>2011-05-02T14:21:18Z</time>
      </trkpt>
      <trkpt lat="43.9274" lon="5.18783">
        <ele>423.6</ele>
        <time>2011-05-02T14:21:33Z</time>
      </trkpt>
      <trkpt lat="43.92739" lon="5.18782">
        <ele>424.08</ele>
        <time>2011-05-02T14:21:38Z</time>
      </trkpt>
      <trkpt lat="43.92727" lon="5.18775">
        <ele>425.04</ele>
        <time>2011-05-02T14:21:52Z</time>
      </trkpt>
      <trkpt lat="43.9272" lon="5.18769">
        <ele>426.48</ele>
        <time>2011-05-02T14:22:07Z</time>
      </trkpt>
      <trkpt lat="43.92708" lon="5.1876">
        <ele>427.92</ele>
        <time>2011-05-02T14:22:22Z</time>
      </trkpt>
      <trkpt lat="43.92698" lon="5.18751">
        <ele>428.4</ele>
        <time>2011-05-02T14:22:38Z</time>
      </trkpt>
      <trkpt lat="43.92694" lon="5.18748">
        <ele>428.4</ele>
        <time>2011-05-02T14:22:52Z</time>
      </trkpt>
      <trkpt lat="43.92682" lon="5.18738">
        <ele>429.37</ele>
        <time>2011-05-02T14:23:09Z</time>
      </trkpt>
      <trkpt lat="43.9267" lon="5.18728">
        <ele>430.81</ele>
        <time>2011-05-02T14:23:24Z</time>
      </trkpt>
      <trkpt lat="43.92664" lon="5.18722">
        <ele>431.77</ele>
        <time>2011-05-02T14:23:37Z</time>
      </trkpt>
      <trkpt lat="43.92654" lon="5.18713">
        <ele>432.25</ele>
        <time>2011-05-02T14:23:50Z</time>
      </trkpt>
      <trkpt lat="43.92643" lon="5.18706">
        <ele>433.69</ele>
        <time>2011-05-02T14:24:06Z</time>
      </trkpt>
      <trkpt lat="43.92633" lon="5.18702">
        <ele>435.61</ele>
        <time>2011-05-02T14:24:21Z</time>
      </trkpt>
      <trkpt lat="43.92625" lon="5.18698">
        <ele>437.54</ele>
        <time>2011-05-02T14:24:37Z</time>
      </trkpt>
      <trkpt lat="43.92616" lon="5.18693">
        <ele>439.46</ele>
        <time>2011-05-02T14:24:51Z</time>
      </trkpt>
      <trkpt lat="43.92606" lon="5.1869">
        <ele>441.38</ele>
        <time>2011-05-02T14:25:06Z</time>
      </trkpt>
      <trkpt lat="43.92599" lon="5.18685">
        <ele>442.82</ele>
        <time>2011-05-02T14:25:21Z</time>
      </trkpt>
      <trkpt lat="43.92593" lon="5.18682">
        <ele>444.75</ele>
        <time>2011-05-02T14:25:36Z</time>
      </trkpt>
      <trkpt lat="43.92586" lon="5.18675">
        <ele>446.19</ele>
        <time>2011-05-02T14:25:50Z</time>
      </trkpt>
      <trkpt lat="43.92578" lon="5.1867">
        <ele>447.15</ele>
        <time>2011-05-02T14:26:04Z</time>
      </trkpt>
      <trkpt lat="43.92571" lon="5.18662">
        <ele>448.59</ele>
        <time>2011-05-02T14:26:20Z</time>
      </trkpt>
      <trkpt lat="43.9257" lon="5.18661">
        <ele>449.55</ele>
        <time>2011-05-02T14:26:22Z</time>
      </trkpt>
      <trkpt lat="43.92564" lon="5.18655">
        <ele>450.52</ele>
        <time>2011-05-02T14:26:31Z</time>
      </trkpt>
      <trkpt lat="43.92558" lon="5.18647">
        <ele>451.48</ele>
        <time>2011-05-02T14:26:45Z</time>
      </trkpt>
      <trkpt lat="43.92548" lon="5.18639">
        <ele>451.96</ele>
        <time>2011-05-02T14:27:01Z</time>
      </trkpt>
      <trkpt lat="43.92541" lon="5.18639">
        <ele>453.88</ele>
        <time>2011-05-02T14:27:16Z</time>
      </trkpt>
      <trkpt lat="43.92533" lon="5.18632">
        <ele>454.36</ele>
        <time>2011-05-02T14:27:31Z</time>
      </trkpt>
      <trkpt lat="43.92526" lon="5.18626">
        <ele>455.8</ele>
        <time>2011-05-02T14:27:44Z</time>
      </trkpt>
      <trkpt lat="43.92518" lon="5.18622">
        <ele>457.72</ele>
        <time>2011-05-02T14:27:58Z</time>
      </trkpt>
      <trkpt lat="43.9251" lon="5.18619">
        <ele>458.69</ele>
        <time>2011-05-02T14:28:12Z</time>
      </trkpt>
      <trkpt lat="43.92506" lon="5.18615">
        <ele>461.09</ele>
        <time>2011-05-02T14:28:29Z</time>
      </trkpt>
      <trkpt lat="43.92503" lon="5.18614">
        <ele>461.57</ele>
        <time>2011-05-02T14:28:34Z</time>
      </trkpt>
      <trkpt lat="43.92492" lon="5.18608">
        <ele>462.53</ele>
        <time>2011-05-02T14:28:49Z</time>
      </trkpt>
      <trkpt lat="43.92483" lon="5.18603">
        <ele>463.97</ele>
        <time>2011-05-02T14:29:03Z</time>
      </trkpt>
      <trkpt lat="43.92478" lon="5.18601">
        <ele>464.93</ele>
        <time>2011-05-02T14:29:16Z</time>
      </trkpt>
      <trkpt lat="43.92478" lon="5.18601">
        <ele>464.93</ele>
        <time>2011-05-02T14:29:44Z</time>
      </trkpt>
      <trkpt lat="43.92468" lon="5.18601">
        <ele>466.86</ele>
        <time>2011-05-02T14:29:57Z</time>
      </trkpt>
      <trkpt lat="43.92456" lon="5.18599">
        <ele>468.3</ele>
        <time>2011-05-02T14:30:14Z</time>
      </trkpt>
      <trkpt lat="43.92445" lon="5.18602">
        <ele>469.74</ele>
        <time>2011-05-02T14:30:30Z</time>
      </trkpt>
      <trkpt lat="43.92436" lon="5.18604">
        <ele>471.18</ele>
        <time>2011-05-02T14:30:45Z</time>
      </trkpt>
      <trkpt lat="43.92431" lon="5.18607">
        <ele>471.66</ele>
        <time>2011-05-02T14:30:57Z</time>
      </trkpt>
      <trkpt lat="43.92428" lon="5.18609">
        <ele>472.14</ele>
        <time>2011-05-02T14:31:17Z</time>
      </trkpt>
      <trkpt lat="43.92409" lon="5.18621">
        <ele>472.14</ele>
        <time>2011-05-02T14:31:36Z</time>
      </trkpt>
      <trkpt lat="43.92391" lon="5.18631">
        <ele>472.14</ele>
        <time>2011-05-02T14:31:53Z</time>
      </trkpt>
      <trkpt lat="43.92376" lon="5.18639">
        <ele>471.18</ele>
        <time>2011-05-02T14:32:08Z</time>
      </trkpt>
      <trkpt lat="43.92358" lon="5.18654">
        <ele>469.26</ele>
        <time>2011-05-02T14:32:27Z</time>
      </trkpt>
      <trkpt lat="43.92352" lon="5.18672">
        <ele>468.3</ele>
        <time>2011-05-02T14:32:41Z</time>
      </trkpt>
      <trkpt lat="43.92345" lon="5.18682">
        <ele>466.86</ele>
        <time>2011-05-02T14:32:56Z</time>
      </trkpt>
      <trkpt lat="43.92335" lon="5.18689">
        <ele>466.38</ele>
        <time>2011-05-02T14:33:08Z</time>
      </trkpt>
      <trkpt lat="43.92323" lon="5.18692">
        <ele>464.45</ele>
        <time>2011-05-02T14:33:23Z</time>
      </trkpt>
      <trkpt lat="43.9232" lon="5.18693">
        <ele>463.97</ele>
        <time>2011-05-02T14:33:26Z</time>
      </trkpt>
      <trkpt lat="43.92312" lon="5.187">
        <ele>462.53</ele>
        <time>2011-05-02T14:33:36Z</time>
      </trkpt>
      <trkpt lat="43.92303" lon="5.18703">
        <ele>461.57</ele>
        <time>2011-05-02T14:33:46Z</time>
      </trkpt>
      <trkpt lat="43.92295" lon="5.18706">
        <ele>460.61</ele>
        <time>2011-05-02T14:33:57Z</time>
      </trkpt>
      <trkpt lat="43.92293" lon="5.18708">
        <ele>459.65</ele>
        <time>2011-05-02T14:33:59Z</time>
      </trkpt>
      <trkpt lat="43.92281" lon="5.18714">
        <ele>458.21</ele>
        <time>2011-05-02T14:34:15Z</time>
      </trkpt>
      <trkpt lat="43.92279" lon="5.18714">
        <ele>457.72</ele>
        <time>2011-05-02T14:34:17Z</time>
      </trkpt>
      <trkpt lat="43.9227" lon="5.18718">
        <ele>456.76</ele>
        <time>2011-05-02T14:34:29Z</time>
      </trkpt>
      <trkpt lat="43.9226" lon="5.18725">
        <ele>455.32</ele>
        <time>2011-05-02T14:34:44Z</time>
      </trkpt>
      <trkpt lat="43.9225" lon="5.18729">
        <ele>453.88</ele>
        <time>2011-05-02T14:34:55Z</time>
      </trkpt>
      <trkpt lat="43.92246" lon="5.1873">
        <ele>453.88</ele>
        <time>2011-05-02T14:35:00Z</time>
      </trkpt>
      <trkpt lat="43.92242" lon="5.18731">
        <ele>452.92</ele>
        <time>2011-05-02T14:35:05Z</time>
      </trkpt>
      <trkpt lat="43.92238" lon="5.18734">
        <ele>452.44</ele>
        <time>2011-05-02T14:35:11Z</time>
      </trkpt>
      <trkpt lat="43.92231" lon="5.18738">
        <ele>451</ele>
        <time>2011-05-02T14:35:25Z</time>
      </trkpt>
      <trkpt lat="43.9223" lon="5.18739">
        <ele>451</ele>
        <time>2011-05-02T14:35:28Z</time>
      </trkpt>
      <trkpt lat="43.92224" lon="5.18746">
        <ele>450.03</ele>
        <time>2011-05-02T14:35:35Z</time>
      </trkpt>
      <trkpt lat="43.92217" lon="5.18757">
        <ele>448.11</ele>
        <time>2011-05-02T14:35:50Z</time>
      </trkpt>
      <trkpt lat="43.92215" lon="5.18759">
        <ele>448.11</ele>
        <time>2011-05-02T14:35:55Z</time>
      </trkpt>
      <trkpt lat="43.92206" lon="5.18766">
        <ele>446.19</ele>
        <time>2011-05-02T14:36:09Z</time>
      </trkpt>
      <trkpt lat="43.92199" lon="5.18774">
        <ele>444.27</ele>
        <time>2011-05-02T14:36:24Z</time>
      </trkpt>
      <trkpt lat="43.92191" lon="5.18782">
        <ele>442.82</ele>
        <time>2011-05-02T14:36:41Z</time>
      </trkpt>
      <trkpt lat="43.9218" lon="5.18788">
        <ele>440.9</ele>
        <time>2011-05-02T14:36:56Z</time>
      </trkpt>
      <trkpt lat="43.9217" lon="5.18789">
        <ele>438.98</ele>
        <time>2011-05-02T14:37:10Z</time>
      </trkpt>
      <trkpt lat="43.92166" lon="5.18796">
        <ele>438.02</ele>
        <time>2011-05-02T14:37:19Z</time>
      </trkpt>
      <trkpt lat="43.92157" lon="5.18803">
        <ele>436.1</ele>
        <time>2011-05-02T14:37:34Z</time>
      </trkpt>
      <trkpt lat="43.92155" lon="5.18804">
        <ele>435.61</ele>
        <time>2011-05-02T14:37:37Z</time>
      </trkpt>
      <trkpt lat="43.92143" lon="5.18811">
        <ele>433.21</ele>
        <time>2011-05-02T14:37:53Z</time>
      </trkpt>
      <trkpt lat="43.92133" lon="5.18816">
        <ele>432.73</ele>
        <time>2011-05-02T14:38:08Z</time>
      </trkpt>
      <trkpt lat="43.92122" lon="5.18818">
        <ele>431.77</ele>
        <time>2011-05-02T14:38:20Z</time>
      </trkpt>
      <trkpt lat="43.92114" lon="5.18834">
        <ele>431.77</ele>
        <time>2011-05-02T14:38:36Z</time>
      </trkpt>
      <trkpt lat="43.92113" lon="5.18836">
        <ele>431.77</ele>
        <time>2011-05-02T14:38:38Z</time>
      </trkpt>
      <trkpt lat="43.92101" lon="5.18845">
        <ele>430.81</ele>
        <time>2011-05-02T14:38:53Z</time>
      </trkpt>
      <trkpt lat="43.921" lon="5.18846">
        <ele>430.81</ele>
        <time>2011-05-02T14:38:55Z</time>
      </trkpt>
      <trkpt lat="43.92088" lon="5.18855">
        <ele>429.85</ele>
        <time>2011-05-02T14:39:07Z</time>
      </trkpt>
      <trkpt lat="43.92078" lon="5.18866">
        <ele>428.4</ele>
        <time>2011-05-02T14:39:21Z</time>
      </trkpt>
      <trkpt lat="43.92071" lon="5.18873">
        <ele>428.4</ele>
        <time>2011-05-02T14:39:32Z</time>
      </trkpt>
      <trkpt lat="43.92057" lon="5.18887">
        <ele>426.96</ele>
        <time>2011-05-02T14:39:49Z</time>
      </trkpt>
      <trkpt lat="43.9205" lon="5.18895">
        <ele>426.96</ele>
        <time>2011-05-02T14:39:58Z</time>
      </trkpt>
      <trkpt lat="43.92047" lon="5.18899">
        <ele>426</ele>
        <time>2011-05-02T14:40:02Z</time>
      </trkpt>
      <trkpt lat="43.92043" lon="5.18905">
        <ele>426.48</ele>
        <time>2011-05-02T14:40:10Z</time>
      </trkpt>
      <trkpt lat="43.92034" lon="5.18919">
        <ele>425.52</ele>
        <time>2011-05-02T14:40:23Z</time>
      </trkpt>
      <trkpt lat="43.92032" lon="5.18923">
        <ele>425.52</ele>
        <time>2011-05-02T14:40:26Z</time>
      </trkpt>
      <trkpt lat="43.92021" lon="5.18935">
        <ele>424.08</ele>
        <time>2011-05-02T14:40:41Z</time>
      </trkpt>
      <trkpt lat="43.92016" lon="5.18951">
        <ele>423.6</ele>
        <time>2011-05-02T14:40:56Z</time>
      </trkpt>
      <trkpt lat="43.92014" lon="5.18962">
        <ele>422.64</ele>
        <time>2011-05-02T14:41:05Z</time>
      </trkpt>
      <trkpt lat="43.92012" lon="5.18968">
        <ele>422.16</ele>
        <time>2011-05-02T14:41:10Z</time>
      </trkpt>
      <trkpt lat="43.92006" lon="5.18984">
        <ele>420.71</ele>
        <time>2011-05-02T14:41:26Z</time>
      </trkpt>
      <trkpt lat="43.92002" lon="5.19">
        <ele>420.23</ele>
        <time>2011-05-02T14:41:39Z</time>
      </trkpt>
      <trkpt lat="43.91997" lon="5.19005">
        <ele>419.75</ele>
        <time>2011-05-02T14:41:46Z</time>
      </trkpt>
      <trkpt lat="43.91989" lon="5.19023">
        <ele>419.27</ele>
        <time>2011-05-02T14:42:00Z</time>
      </trkpt>
      <trkpt lat="43.91982" lon="5.19032">
        <ele>418.31</ele>
        <time>2011-05-02T14:42:11Z</time>
      </trkpt>
      <trkpt lat="43.91979" lon="5.19037">
        <ele>417.83</ele>
        <time>2011-05-02T14:42:25Z</time>
      </trkpt>
      <trkpt lat="43.91972" lon="5.1904">
        <ele>417.83</ele>
        <time>2011-05-02T14:42:45Z</time>
      </trkpt>
      <trkpt lat="43.91963" lon="5.19043">
        <ele>416.39</ele>
        <time>2011-05-02T14:42:55Z</time>
      </trkpt>
      <trkpt lat="43.91949" lon="5.19054">
        <ele>416.39</ele>
        <time>2011-05-02T14:43:10Z</time>
      </trkpt>
      <trkpt lat="43.91936" lon="5.19069">
        <ele>414.95</ele>
        <time>2011-05-02T14:43:27Z</time>
      </trkpt>
      <trkpt lat="43.91933" lon="5.19076">
        <ele>414.47</ele>
        <time>2011-05-02T14:43:41Z</time>
      </trkpt>
      <trkpt lat="43.91931" lon="5.19078">
        <ele>414.95</ele>
        <time>2011-05-02T14:43:58Z</time>
      </trkpt>
      <trkpt lat="43.91928" lon="5.19083">
        <ele>413.98</ele>
        <time>2011-05-02T14:44:03Z</time>
      </trkpt>
      <trkpt lat="43.91916" lon="5.19098">
        <ele>413.02</ele>
        <time>2011-05-02T14:44:19Z</time>
      </trkpt>
      <trkpt lat="43.91904" lon="5.19109">
        <ele>412.06</ele>
        <time>2011-05-02T14:44:32Z</time>
      </trkpt>
      <trkpt lat="43.91892" lon="5.19124">
        <ele>410.62</ele>
        <time>2011-05-02T14:44:48Z</time>
      </trkpt>
      <trkpt lat="43.91888" lon="5.19129">
        <ele>411.1</ele>
        <time>2011-05-02T14:44:53Z</time>
      </trkpt>
      <trkpt lat="43.91879" lon="5.19141">
        <ele>409.66</ele>
        <time>2011-05-02T14:45:07Z</time>
      </trkpt>
      <trkpt lat="43.91871" lon="5.19149">
        <ele>408.7</ele>
        <time>2011-05-02T14:45:19Z</time>
      </trkpt>
      <trkpt lat="43.91859" lon="5.19158">
        <ele>406.77</ele>
        <time>2011-05-02T14:45:33Z</time>
      </trkpt>
      <trkpt lat="43.91853" lon="5.19166">
        <ele>405.81</ele>
        <time>2011-05-02T14:45:42Z</time>
      </trkpt>
      <trkpt lat="43.91839" lon="5.1918">
        <ele>405.33</ele>
        <time>2011-05-02T14:45:59Z</time>
      </trkpt>
      <trkpt lat="43.91837" lon="5.19185">
        <ele>404.85</ele>
        <time>2011-05-02T14:46:10Z</time>
      </trkpt>
      <trkpt lat="43.91837" lon="5.19182">
        <ele>404.37</ele>
        <time>2011-05-02T14:46:28Z</time>
      </trkpt>
      <trkpt lat="43.91837" lon="5.19182">
        <ele>404.85</ele>
        <time>2011-05-02T14:46:50Z</time>
      </trkpt>
      <trkpt lat="43.91835" lon="5.19193">
        <ele>402.93</ele>
        <time>2011-05-02T14:47:10Z</time>
      </trkpt>
      <trkpt lat="43.91832" lon="5.19198">
        <ele>402.45</ele>
        <time>2011-05-02T14:47:16Z</time>
      </trkpt>
      <trkpt lat="43.91825" lon="5.1921">
        <ele>402.45</ele>
        <time>2011-05-02T14:47:32Z</time>
      </trkpt>
      <trkpt lat="43.91822" lon="5.19214">
        <ele>401.01</ele>
        <time>2011-05-02T14:47:49Z</time>
      </trkpt>
      <trkpt lat="43.9181" lon="5.19225">
        <ele>399.57</ele>
        <time>2011-05-02T14:48:03Z</time>
      </trkpt>
      <trkpt lat="43.91799" lon="5.19235">
        <ele>398.12</ele>
        <time>2011-05-02T14:48:17Z</time>
      </trkpt>
      <trkpt lat="43.9179" lon="5.19245">
        <ele>396.68</ele>
        <time>2011-05-02T14:48:31Z</time>
      </trkpt>
      <trkpt lat="43.91777" lon="5.19257">
        <ele>395.24</ele>
        <time>2011-05-02T14:48:47Z</time>
      </trkpt>
      <trkpt lat="43.91766" lon="5.19266">
        <ele>393.8</ele>
        <time>2011-05-02T14:49:01Z</time>
      </trkpt>
      <trkpt lat="43.91762" lon="5.19269">
        <ele>393.32</ele>
        <time>2011-05-02T14:49:07Z</time>
      </trkpt>
      <trkpt lat="43.91753" lon="5.19277">
        <ele>391.87</ele>
        <time>2011-05-02T14:49:23Z</time>
      </trkpt>
      <trkpt lat="43.9175" lon="5.19286">
        <ele>391.39</ele>
        <time>2011-05-02T14:49:40Z</time>
      </trkpt>
      <trkpt lat="43.91749" lon="5.19293">
        <ele>390.43</ele>
        <time>2011-05-02T14:49:47Z</time>
      </trkpt>
      <trkpt lat="43.91747" lon="5.193">
        <ele>390.43</ele>
        <time>2011-05-02T14:50:02Z</time>
      </trkpt>
      <trkpt lat="43.91747" lon="5.19304">
        <ele>389.47</ele>
        <time>2011-05-02T14:50:23Z</time>
      </trkpt>
      <trkpt lat="43.91747" lon="5.19306">
        <ele>389.47</ele>
        <time>2011-05-02T14:50:40Z</time>
      </trkpt>
      <trkpt lat="43.91746" lon="5.19309">
        <ele>389.47</ele>
        <time>2011-05-02T14:50:43Z</time>
      </trkpt>
      <trkpt lat="43.91744" lon="5.19328">
        <ele>388.03</ele>
        <time>2011-05-02T14:50:57Z</time>
      </trkpt>
      <trkpt lat="43.91745" lon="5.19335">
        <ele>387.07</ele>
        <time>2011-05-02T14:51:02Z</time>
      </trkpt>
      <trkpt lat="43.91746" lon="5.19342">
        <ele>387.07</ele>
        <time>2011-05-02T14:51:06Z</time>
      </trkpt>
      <trkpt lat="43.91747" lon="5.19345">
        <ele>387.07</ele>
        <time>2011-05-02T14:51:08Z</time>
      </trkpt>
      <trkpt lat="43.9175" lon="5.19361">
        <ele>385.15</ele>
        <time>2011-05-02T14:51:23Z</time>
      </trkpt>
      <trkpt lat="43.91754" lon="5.19373">
        <ele>385.15</ele>
        <time>2011-05-02T14:51:38Z</time>
      </trkpt>
      <trkpt lat="43.91752" lon="5.19375">
        <ele>384.66</ele>
        <time>2011-05-02T14:51:48Z</time>
      </trkpt>
      <trkpt lat="43.91744" lon="5.19382">
        <ele>383.22</ele>
        <time>2011-05-02T14:51:59Z</time>
      </trkpt>
      <trkpt lat="43.9173" lon="5.19388">
        <ele>382.26</ele>
        <time>2011-05-02T14:52:14Z</time>
      </trkpt>
      <trkpt lat="43.91711" lon="5.19391">
        <ele>380.82</ele>
        <time>2011-05-02T14:52:29Z</time>
      </trkpt>
      <trkpt lat="43.91707" lon="5.1939">
        <ele>380.82</ele>
        <time>2011-05-02T14:52:33Z</time>
      </trkpt>
      <trkpt lat="43.91701" lon="5.19392">
        <ele>380.34</ele>
        <time>2011-05-02T14:52:48Z</time>
      </trkpt>
      <trkpt lat="43.91693" lon="5.19396">
        <ele>378.9</ele>
        <time>2011-05-02T14:52:59Z</time>
      </trkpt>
      <trkpt lat="43.91689" lon="5.19399">
        <ele>378.9</ele>
        <time>2011-05-02T14:53:05Z</time>
      </trkpt>
      <trkpt lat="43.91687" lon="5.19401">
        <ele>378.42</ele>
        <time>2011-05-02T14:53:07Z</time>
      </trkpt>
      <trkpt lat="43.91679" lon="5.19413">
        <ele>376.01</ele>
        <time>2011-05-02T14:53:23Z</time>
      </trkpt>
      <trkpt lat="43.91674" lon="5.19418">
        <ele>376.01</ele>
        <time>2011-05-02T14:53:34Z</time>
      </trkpt>
      <trkpt lat="43.91672" lon="5.19425">
        <ele>375.53</ele>
        <time>2011-05-02T14:53:39Z</time>
      </trkpt>
      <trkpt lat="43.91661" lon="5.19445">
        <ele>373.61</ele>
        <time>2011-05-02T14:53:56Z</time>
      </trkpt>
      <trkpt lat="43.91647" lon="5.19458">
        <ele>373.61</ele>
        <time>2011-05-02T14:54:11Z</time>
      </trkpt>
      <trkpt lat="43.91628" lon="5.19461">
        <ele>374.09</ele>
        <time>2011-05-02T14:54:29Z</time>
      </trkpt>
      <trkpt lat="43.91623" lon="5.19463">
        <ele>373.61</ele>
        <time>2011-05-02T14:54:35Z</time>
      </trkpt>
      <trkpt lat="43.91619" lon="5.19463">
        <ele>374.09</ele>
        <time>2011-05-02T14:54:38Z</time>
      </trkpt>
      <trkpt lat="43.91601" lon="5.19469">
        <ele>375.53</ele>
        <time>2011-05-02T14:54:54Z</time>
      </trkpt>
      <trkpt lat="43.91597" lon="5.1947">
        <ele>376.01</ele>
        <time>2011-05-02T14:54:58Z</time>
      </trkpt>
      <trkpt lat="43.91577" lon="5.19468">
        <ele>375.53</ele>
        <time>2011-05-02T14:55:15Z</time>
      </trkpt>
      <trkpt lat="43.91558" lon="5.19467">
        <ele>374.57</ele>
        <time>2011-05-02T14:55:32Z</time>
      </trkpt>
      <trkpt lat="43.91538" lon="5.1947">
        <ele>374.57</ele>
        <time>2011-05-02T14:55:49Z</time>
      </trkpt>
      <trkpt lat="43.91517" lon="5.19475">
        <ele>374.57</ele>
        <time>2011-05-02T14:56:08Z</time>
      </trkpt>
      <trkpt lat="43.91499" lon="5.19482">
        <ele>374.09</ele>
        <time>2011-05-02T14:56:26Z</time>
      </trkpt>
      <trkpt lat="43.91484" lon="5.19488">
        <ele>374.57</ele>
        <time>2011-05-02T14:56:40Z</time>
      </trkpt>
      <trkpt lat="43.9148" lon="5.19491">
        <ele>374.09</ele>
        <time>2011-05-02T14:56:44Z</time>
      </trkpt>
      <trkpt lat="43.91475" lon="5.19493">
        <ele>374.09</ele>
        <time>2011-05-02T14:56:48Z</time>
      </trkpt>
      <trkpt lat="43.91456" lon="5.19506">
        <ele>373.61</ele>
        <time>2011-05-02T14:57:07Z</time>
      </trkpt>
      <trkpt lat="43.91452" lon="5.19509">
        <ele>373.61</ele>
        <time>2011-05-02T14:57:12Z</time>
      </trkpt>
      <trkpt lat="43.91444" lon="5.19515">
        <ele>373.61</ele>
        <time>2011-05-02T14:57:20Z</time>
      </trkpt>
      <trkpt lat="43.91428" lon="5.1953">
        <ele>372.65</ele>
        <time>2011-05-02T14:57:38Z</time>
      </trkpt>
      <trkpt lat="43.91415" lon="5.19543">
        <ele>371.69</ele>
        <time>2011-05-02T14:57:52Z</time>
      </trkpt>
      <trkpt lat="43.91409" lon="5.19559">
        <ele>370.24</ele>
        <time>2011-05-02T14:58:09Z</time>
      </trkpt>
      <trkpt lat="43.91409" lon="5.19559">
        <ele>370.73</ele>
        <time>2011-05-02T14:58:13Z</time>
      </trkpt>
      <trkpt lat="43.91407" lon="5.19561">
        <ele>370.73</ele>
        <time>2011-05-02T14:58:15Z</time>
      </trkpt>
      <trkpt lat="43.91407" lon="5.19589">
        <ele>370.73</ele>
        <time>2011-05-02T14:58:33Z</time>
      </trkpt>
      <trkpt lat="43.91408" lon="5.19594">
        <ele>369.76</ele>
        <time>2011-05-02T14:58:37Z</time>
      </trkpt>
      <trkpt lat="43.91403" lon="5.19616">
        <ele>369.28</ele>
        <time>2011-05-02T14:58:54Z</time>
      </trkpt>
      <trkpt lat="43.91402" lon="5.19616">
        <ele>369.28</ele>
        <time>2011-05-02T14:59:02Z</time>
      </trkpt>
      <trkpt lat="43.91401" lon="5.19619">
        <ele>369.28</ele>
        <time>2011-05-02T14:59:04Z</time>
      </trkpt>
      <trkpt lat="43.91396" lon="5.19628">
        <ele>368.32</ele>
        <time>2011-05-02T14:59:20Z</time>
      </trkpt>
      <trkpt lat="43.91392" lon="5.19645">
        <ele>365.44</ele>
        <time>2011-05-02T14:59:36Z</time>
      </trkpt>
      <trkpt lat="43.91385" lon="5.19653">
        <ele>364</ele>
        <time>2011-05-02T14:59:47Z</time>
      </trkpt>
      <trkpt lat="43.91377" lon="5.19655">
        <ele>363.04</ele>
        <time>2011-05-02T14:59:56Z</time>
      </trkpt>
      <trkpt lat="43.91369" lon="5.19659">
        <ele>361.11</ele>
        <time>2011-05-02T15:00:13Z</time>
      </trkpt>
      <trkpt lat="43.91359" lon="5.19662">
        <ele>358.71</ele>
        <time>2011-05-02T15:00:29Z</time>
      </trkpt>
      <trkpt lat="43.91353" lon="5.19666">
        <ele>356.79</ele>
        <time>2011-05-02T15:00:41Z</time>
      </trkpt>
      <trkpt lat="43.91349" lon="5.19667">
        <ele>356.31</ele>
        <time>2011-05-02T15:00:44Z</time>
      </trkpt>
      <trkpt lat="43.9134" lon="5.19671">
        <ele>354.38</ele>
        <time>2011-05-02T15:00:59Z</time>
      </trkpt>
      <trkpt lat="43.91336" lon="5.19671">
        <ele>353.9</ele>
        <time>2011-05-02T15:01:17Z</time>
      </trkpt>
      <trkpt lat="43.91336" lon="5.19671">
        <ele>353.42</ele>
        <time>2011-05-02T15:01:32Z</time>
      </trkpt>
      <trkpt lat="43.91335" lon="5.19671">
        <ele>352.94</ele>
        <time>2011-05-02T15:01:34Z</time>
      </trkpt>
      <trkpt lat="43.91343" lon="5.19673">
        <ele>352.46</ele>
        <time>2011-05-02T15:01:47Z</time>
      </trkpt>
      <trkpt lat="43.91345" lon="5.19676">
        <ele>352.46</ele>
        <time>2011-05-02T15:01:50Z</time>
      </trkpt>
      <trkpt lat="43.91362" lon="5.19689">
        <ele>351.98</ele>
        <time>2011-05-02T15:02:08Z</time>
      </trkpt>
      <trkpt lat="43.91368" lon="5.19691">
        <ele>351.02</ele>
        <time>2011-05-02T15:02:14Z</time>
      </trkpt>
      <trkpt lat="43.9137" lon="5.19693">
        <ele>351.5</ele>
        <time>2011-05-02T15:02:16Z</time>
      </trkpt>
      <trkpt lat="43.91383" lon="5.19702">
        <ele>351.5</ele>
        <time>2011-05-02T15:02:32Z</time>
      </trkpt>
      <trkpt lat="43.91395" lon="5.1971">
        <ele>351.98</ele>
        <time>2011-05-02T15:02:46Z</time>
      </trkpt>
      <trkpt lat="43.91407" lon="5.19719">
        <ele>352.46</ele>
        <time>2011-05-02T15:03:01Z</time>
      </trkpt>
      <trkpt lat="43.91417" lon="5.19724">
        <ele>353.42</ele>
        <time>2011-05-02T15:03:15Z</time>
      </trkpt>
      <trkpt lat="43.91426" lon="5.19731">
        <ele>353.9</ele>
        <time>2011-05-02T15:03:27Z</time>
      </trkpt>
      <trkpt lat="43.91429" lon="5.19737">
        <ele>354.38</ele>
        <time>2011-05-02T15:03:40Z</time>
      </trkpt>
      <trkpt lat="43.91426" lon="5.19742">
        <ele>354.38</ele>
        <time>2011-05-02T15:03:52Z</time>
      </trkpt>
      <trkpt lat="43.91426" lon="5.19742">
        <ele>353.9</ele>
        <time>2011-05-02T15:04:14Z</time>
      </trkpt>
      <trkpt lat="43.91427" lon="5.19743">
        <ele>352.94</ele>
        <time>2011-05-02T15:04:32Z</time>
      </trkpt>
      <trkpt lat="43.91427" lon="5.19743">
        <ele>353.42</ele>
        <time>2011-05-02T15:05:02Z</time>
      </trkpt>
    </trkseg>
  </trk>
</gpx>